Coconut Barometer – Adam Reeder – KK6GPV


Home | Today | Week | Month | Year | All | Coconut Barometer | Aviation Weather | Aircraft | Paragliding | Soaring | N5777V | APRS | Travel | Photos | Programming | Links | About


APRS - HAM Radio

My main interest in amateur radio has to do with APRS (Automatic Packet Reporting System), description below from wikipedia:

Automatic Packet Reporting System (APRS) is an amateur radio-based system for real time tactical digital communications of information of immediate value in the local area. [1]

Below are maps generated from data reported from APRS beaconing, typically while flying. aprs.fi maintains historical daily logs of points and tracks.

KK6GPV Position Reports - Altitude

KK6GPV Telemetry

Bakersfield Area HAM Frequencies

Frequency Offset Tone Location Comment
145.150 - 100.0 Breckenridge Mt.
146.910 - 100.0 Grapevine Pk. Temporary Antenna - Storm Damage
224.060 - 100.0 Breckenridge Mt.
443.900 + 100.0 Low level North of Town
52.780 - 82.5 Grapevine Pk. Off the Air - Storm Damage
147.210 + 100.0 Mt. Adelaide KC6EOC
145.050 Packet @ County EOC PBBS: KC6EOC-1
147.150 + 100.0 ARRG Echo Link 56555
224.520 - 100.0 ARRG
444.425 + 100.0 Tehachapi ARRG
51.880 - 114.8 ARRG
146.670 - 100.0 Mt. Adelaide IRLP 3714, Echo Link 983970
444.750 + 141.3 Mt. Adelaide IRLP 3901
447.040 - 136.5 Frazier Mt. IRLP 7814
52.525 simplex Mt. Adelaide linked to 444.750
29.600 simplex Mt. Adelaide linked to 444.750
144.390 N American APRS reporting frequency

HAM Equipment

Item Description Image
Yaesu FT-2DR Dual band, APRS, touchscreen
Baofeng UV-5R Cheap, easy to use
QSL Card

aprs.fi Station Data

findu Station Data

QRZ Lookup

APRS Position Reports

Date / Time (UTC)LatitudeLongitudeCourse (deg)Speed (mph)Altitude (ft)
2018-01-17 15:03:0435.3183-119.10100355
2018-01-17 14:53:0435.3183-119.10100357
2018-01-17 14:43:0435.3183-119.10100353
2018-01-17 14:33:0535.3183-119.10100328
2018-01-17 14:23:0435.3183-119.10100347
2018-01-17 14:13:0435.3183-119.10100347
2018-01-17 14:03:0435.3183-119.10100330
2018-01-17 13:53:0435.3183-119.10100354
2018-01-17 13:43:0435.3183-119.10100368
2018-01-17 13:33:0435.318-119.10100323
2018-01-17 13:23:0435.3183-119.10100328
2018-01-17 13:13:0435.3183-119.10100349
2018-01-17 13:03:0435.3183-119.10100337
2018-01-17 12:53:0435.3183-119.10100347
2018-01-17 12:43:0435.3183-119.10100328
2018-01-17 12:33:0435.3183-119.10100297
2018-01-17 12:23:0435.3187-119.10100328
2018-01-17 12:13:0435.3183-119.10100336
2018-01-17 12:03:0435.3183-119.10100327
2018-01-17 11:53:0435.3183-119.10100346
2018-01-17 11:43:0435.3183-119.10100346
2018-01-17 11:33:0435.3183-119.10100345
2018-01-17 11:23:0435.3183-119.10100347
2018-01-17 11:13:0435.3183-119.10100349
2018-01-17 11:03:0435.3183-119.10100329
2018-01-17 10:53:0835.3183-119.10100347
2018-01-17 10:43:0435.3183-119.101380343
2018-01-17 10:33:0435.3183-119.101380346
2018-01-17 10:23:0435.3183-119.101380328
2018-01-17 10:13:0435.3183-119.101380349
2018-01-17 10:03:0535.3183-119.101380345
2018-01-17 09:53:0535.3183-119.101380354
2018-01-17 09:52:0435.3183-119.101380354
2018-01-17 09:51:0435.3183-119.101490354
2018-01-17 09:50:0535.3183-119.101340354
2018-01-17 09:49:0435.3183-119.101450354
2018-01-17 09:48:0435.3183-119.101330354
2018-01-17 09:47:0435.3183-119.1012080354
2018-01-17 09:46:0435.3183-119.101340354
2018-01-17 09:45:0435.3183-119.101350355
2018-01-17 09:44:0435.3183-119.101150354
2018-01-17 09:43:0435.3183-119.101460354
2018-01-17 09:42:0435.3183-119.101270354
2018-01-17 09:41:0435.3183-119.1011950355
2018-01-17 09:40:0435.3183-119.101900354
2018-01-17 09:39:0435.3183-119.101510354
2018-01-17 09:38:0435.3183-119.101320354
2018-01-17 09:37:0435.3183-119.101460354
2018-01-17 09:36:0435.3183-119.101370354
2018-01-17 09:35:0435.3183-119.10180353
2018-01-17 09:34:0535.3183-119.1011760352
2018-01-17 09:33:0435.3183-119.1011460353
2018-01-17 09:32:0435.3183-119.101830353
2018-01-17 09:31:0435.3183-119.101830353
2018-01-17 09:30:0435.3183-119.101830353
2018-01-17 09:29:0435.3183-119.101830353
2018-01-17 09:28:0435.3183-119.101830353
2018-01-17 09:27:0435.3183-119.101830353
2018-01-17 09:26:0435.3183-119.101830353
2018-01-17 09:25:0435.3183-119.101830353
2018-01-17 09:24:0435.3183-119.101830353
2018-01-17 09:23:0535.3183-119.101830353
2018-01-17 09:22:0435.3183-119.101830353
2018-01-17 09:21:0435.3183-119.101830353
2018-01-17 09:20:0435.3183-119.101830353
2018-01-17 09:19:0435.3183-119.101830353
2018-01-17 09:18:0435.3183-119.101830353
2018-01-17 09:17:0435.3183-119.101830353
2018-01-17 09:16:0435.3183-119.101610353
2018-01-17 09:15:0435.3183-119.101960354
2018-01-17 09:14:0435.3183-119.101591353
2018-01-17 09:13:0435.3183-119.101830354
2018-01-17 09:12:0435.3183-119.1011140354
2018-01-17 09:11:0435.3183-119.1011140354
2018-01-17 09:10:0435.3183-119.1011140354
2018-01-17 09:09:0435.3183-119.1011140354
2018-01-17 09:08:0435.3183-119.1011140354
2018-01-17 09:07:0435.3183-119.1011140354
2018-01-17 09:06:0435.3183-119.1011140354
2018-01-17 09:05:0435.3183-119.1011140354
2018-01-17 09:04:0435.3183-119.1011140354
2018-01-17 09:03:0435.3183-119.1011140354
2018-01-17 09:02:0435.3183-119.1011140354
2018-01-17 09:01:0435.3183-119.1011140354
2018-01-17 09:00:0435.3183-119.1011140354
2018-01-17 08:59:0435.3183-119.1011140354
2018-01-17 08:58:0535.3183-119.1011140354
2018-01-17 08:57:0435.3183-119.1011140354
2018-01-17 08:56:0535.3183-119.1011140354
2018-01-17 08:55:0435.3183-119.1011140354
2018-01-17 08:54:0435.3183-119.1011140354
2018-01-17 08:53:0535.3183-119.1011140354
2018-01-17 08:52:0435.3183-119.1011140354
2018-01-17 08:51:0435.3183-119.1011140354
2018-01-17 08:50:0435.3183-119.1011140354
2018-01-17 08:49:0435.3183-119.1011140354
2018-01-17 08:48:0535.3183-119.1011140354
2018-01-17 08:47:0435.3183-119.1011140354
2018-01-17 08:46:0435.3183-119.1011140354
2018-01-17 08:45:0435.3183-119.1011140354
2018-01-17 08:44:0435.3183-119.1011140354
2018-01-17 08:43:0435.3183-119.1011140354
2018-01-17 08:42:0435.3183-119.1011140354
2018-01-17 08:41:0435.3183-119.1011140354
2018-01-17 08:40:0435.3183-119.1011140354
2018-01-17 08:39:0435.3183-119.1011140354
2018-01-17 08:38:0435.3183-119.1011140354
2018-01-17 08:37:0435.3183-119.1011140354
2018-01-17 08:36:0435.3183-119.1011140354
2018-01-17 08:35:0435.3183-119.1011140354
2018-01-17 08:34:0435.3183-119.1011140354
2018-01-17 08:33:0535.3183-119.1011140354
2018-01-17 08:32:0435.3183-119.1011140354
2018-01-17 08:31:0435.3183-119.1011140354
2018-01-17 08:30:0535.3183-119.1011140354
2018-01-17 08:29:0435.3183-119.1011140354
2018-01-17 08:28:0535.3183-119.1011140354
2018-01-17 08:27:0535.3183-119.1011140354
2018-01-17 08:26:0535.3183-119.1011140354
2018-01-17 08:25:0735.3183-119.1011140354
2018-01-17 08:24:0535.3183-119.1011140354
2018-01-17 08:23:0535.3183-119.1011140354
2018-01-17 08:22:0535.3183-119.1011140354
2018-01-17 08:21:0535.3183-119.1011140354
2018-01-17 08:20:0635.3183-119.1011140354
2018-01-17 08:19:0635.3183-119.1011140354
2018-01-17 08:18:0635.3183-119.1011140354
2018-01-17 08:17:0435.3183-119.1011140354
2018-01-17 08:16:0435.3183-119.1011140354
2018-01-17 08:15:0435.3183-119.1011140354
2018-01-17 08:14:0435.3183-119.1011140354
2018-01-17 08:13:0435.3183-119.1011140354
2018-01-17 08:12:0435.3183-119.1011140354
2018-01-17 08:11:0435.3183-119.1011140354
2018-01-17 08:10:0435.3183-119.1011140354
2018-01-17 08:09:0435.3183-119.1011140354
2018-01-17 08:08:0435.3183-119.1011140354
2018-01-17 08:07:0435.3183-119.1011140354
2018-01-17 08:06:0435.3183-119.1011140354
2018-01-17 08:05:0435.3183-119.1011140354
2018-01-17 08:04:0435.3183-119.1011140354
2018-01-17 08:03:0435.3183-119.1011140354
2018-01-17 08:02:0435.3183-119.1011140354
2018-01-17 08:01:0535.3183-119.1011140354
2018-01-17 08:00:0435.3183-119.1011140354
2018-01-17 07:59:0435.3183-119.1011140354
2018-01-17 07:58:0435.3183-119.1011140354
2018-01-17 07:57:0435.3183-119.1011140354
2018-01-17 07:56:0435.3183-119.1011140354
2018-01-17 07:54:0435.3183-119.1011140354
2018-01-17 07:53:0535.3183-119.1011140354
2018-01-17 07:52:0435.3183-119.1011140354
2018-01-17 07:51:0435.3183-119.1011140354
2018-01-17 07:50:0435.3183-119.1011140354
2018-01-17 07:49:0435.3183-119.1011140354
2018-01-17 07:48:0435.3183-119.1011140354
2018-01-17 07:47:0635.3183-119.1011140354
2018-01-17 07:46:0435.3183-119.1011140354
2018-01-17 07:45:0635.3183-119.1011140354
2018-01-17 07:44:0435.3183-119.1011140354
2018-01-17 07:43:0435.3183-119.1011140354
2018-01-17 07:42:0435.3183-119.1011140354
2018-01-17 07:41:0435.3183-119.1011140354
2018-01-17 07:40:0435.3183-119.1011140354
2018-01-17 07:39:0435.3183-119.1011140354
2018-01-17 07:38:0435.3183-119.1011140354
2018-01-17 07:37:0435.3183-119.1011140354
2018-01-17 07:36:0535.3183-119.1011140354
2018-01-17 07:35:0435.3183-119.1011140354
2018-01-17 07:34:0535.3183-119.1011140354
2018-01-17 07:33:0435.3183-119.1011140354
2018-01-17 07:32:0435.3183-119.1011140354
2018-01-17 07:31:0435.3183-119.1011140354
2018-01-17 07:30:0435.3183-119.1011140354
2018-01-17 07:29:0435.3183-119.1011140354
2018-01-17 07:28:0435.3183-119.1011140354
2018-01-17 07:27:0435.3183-119.1011140354
2018-01-17 07:26:0435.3183-119.1011140354
2018-01-17 07:25:0435.3183-119.1011140354
2018-01-17 07:24:0435.3183-119.1011140354
2018-01-17 07:23:0535.3183-119.1011140354
2018-01-17 07:22:0435.3183-119.1011140354
2018-01-17 07:21:0435.3183-119.1011140354
2018-01-17 07:20:0535.3183-119.1011140354
2018-01-17 07:19:0435.3183-119.1011140354
2018-01-17 07:18:0435.3183-119.1011140354
2018-01-17 07:17:0435.3183-119.1011140354
2018-01-17 07:16:0435.3183-119.1011140354
2018-01-17 07:15:0435.3183-119.1011140354
2018-01-17 07:14:0435.3183-119.1011140354
2018-01-17 07:13:0435.3183-119.1011140354
2018-01-17 07:12:0435.3183-119.1011140354
2018-01-17 07:11:0435.3183-119.1011140354
2018-01-17 07:10:0435.3183-119.1011140354
2018-01-17 07:09:0435.3183-119.1011140354
2018-01-17 07:08:0435.3183-119.1011140354
2018-01-17 07:07:0435.3183-119.1011140354
2018-01-17 07:06:0435.3183-119.1011140354
2018-01-17 07:05:0435.3183-119.1011140354
2018-01-17 07:04:0435.3183-119.1011140354
2018-01-17 07:03:0435.3183-119.1011140354
2018-01-17 07:02:0535.3183-119.1011140354
2018-01-17 07:01:0435.3183-119.1011140354
2018-01-17 07:00:0435.3183-119.1011140354
2018-01-17 06:59:0435.3183-119.1011140354
2018-01-17 06:58:0735.3183-119.1011140354
2018-01-17 06:57:0435.3183-119.1011140354
2018-01-17 06:56:0435.3183-119.1011140354
2018-01-17 06:55:0535.3183-119.1011530354
2018-01-17 06:54:0435.3183-119.10100353
2018-01-17 06:53:0535.3183-119.10101352
2018-01-17 06:43:0435.3183-119.10100354
2018-01-17 06:33:0435.3183-119.101740352
2018-01-17 06:31:2635.3183-119.1012290352
2018-01-17 06:30:5635.3183-119.1011380352
2018-01-17 06:30:2635.3183-119.1012830352
2018-01-17 06:29:5635.3183-119.1012000352
2018-01-17 06:29:2635.3183-119.1011170352
2018-01-17 06:28:5635.3183-119.1011141352
2018-01-17 06:28:2635.3187-119.1012554352
2018-01-17 06:27:5635.3178-119.11019351
2018-01-17 06:27:2635.3183-119.0982873336
2018-01-17 06:26:5635.318-119.09426938358
2018-01-17 06:26:2635.3203-119.09218042358
2018-01-17 06:25:5635.3263-119.09217943360
2018-01-17 06:25:2635.3325-119.09218045362
2018-01-17 06:24:5635.3388-119.09217945368
2018-01-17 06:24:2635.3455-119.09217947366
2018-01-17 06:23:4335.3545-119.09218040371
2018-01-17 06:23:1335.3603-119.09219044375
2018-01-17 06:22:4335.3667-119.09217844378
2018-01-17 06:22:1335.3725-119.09315645383
2018-01-17 06:21:4335.3787-119.09320146381
2018-01-17 06:21:1335.3842-119.09217737383
2018-01-17 06:20:4335.3903-119.09218044390
2018-01-17 06:20:4235.3905-119.09217944390
2018-01-17 06:20:1335.3945-119.09200361
2018-01-17 06:18:4235.4072-119.09218041388
2018-01-17 06:08:4235.41-119.09300387
2018-01-17 05:58:4135.41-119.09300386
2018-01-17 05:48:4235.41-119.09300388
2018-01-17 05:38:4235.41-119.09300394
2018-01-17 05:28:4235.41-119.09200344
2018-01-17 05:18:4235.41-119.09300387
2018-01-17 05:08:4235.41-119.09300388
2018-01-17 04:58:4235.41-119.09300364
2018-01-17 04:48:4235.41-119.09300390
2018-01-17 04:38:4235.41-119.09300392
2018-01-17 04:28:4235.41-119.09300400
2018-01-17 04:18:4235.41-119.09300364
2018-01-17 04:08:4235.41-119.09300393
2018-01-17 03:58:4235.4097-119.09300389
2018-01-17 03:48:4335.4103-119.0932110393
2018-01-17 03:47:0735.41-119.0922695393
2018-01-17 03:46:3735.407-119.092046389
2018-01-17 03:46:0735.4012-119.092032389
2018-01-17 03:45:3835.3947-119.09235846391
2018-01-17 03:45:0735.3883-119.092443387
2018-01-17 03:44:3735.383-119.0923590387
2018-01-17 03:44:0735.3788-119.0922348390
2018-01-17 03:43:3735.3722-119.09233846378
2018-01-17 03:43:0835.3662-119.09235543378
2018-01-17 03:42:3835.3617-119.092112375
2018-01-17 03:42:0735.357-119.092047374
2018-01-17 03:41:3735.3503-119.092049368
2018-01-17 03:41:0735.343-119.092050369
2018-01-17 03:40:3735.3375-119.09235944365
2018-01-17 03:40:0735.3308-119.09235947362
2018-01-17 03:39:3735.3238-119.09235947359
2018-01-17 03:38:3735.318-119.092900359
2018-01-17 03:38:0735.318-119.092900359
2018-01-17 03:37:3735.318-119.0939038358
2018-01-17 03:37:0735.3178-119.0981922349
2018-01-17 03:28:1335.3183-119.10100327
2018-01-17 03:18:1335.3183-119.10100353
2018-01-17 03:08:1335.3183-119.10100346
2018-01-17 02:58:1335.3183-119.10100298
2018-01-17 02:48:1335.3183-119.10100345
2018-01-17 02:38:1335.3183-119.10100352
2018-01-17 02:28:1335.3183-119.10100327
2018-01-17 02:18:1435.318-119.10100346
2018-01-17 02:08:1335.3183-119.10100331
2018-01-17 01:58:1435.3183-119.10100353
2018-01-17 01:48:1335.3183-119.10100336
2018-01-17 01:38:1435.3183-119.10100348
2018-01-17 01:28:1435.3183-119.10100328
2018-01-17 01:18:1435.3183-119.10100346
2018-01-17 01:08:1335.3183-119.10100346
2018-01-17 00:58:1435.3183-119.10100327
2018-01-17 00:48:1335.318-119.10100327
2018-01-17 00:38:1535.3183-119.10100350
2018-01-17 00:28:1335.3183-119.10100347
2018-01-17 00:18:1435.3183-119.10100342
2018-01-17 00:08:1435.3183-119.10100344
2018-01-03 22:06:1935.4047-119.10700388
2018-01-03 22:04:2235.4047-119.1071990385
2018-01-03 22:02:2435.4047-119.1074910385
2018-01-03 22:01:5435.405-119.10815016383
2018-01-03 22:01:2335.4072-119.1082571382
2018-01-03 22:00:5435.4075-119.1098815383
2018-01-03 22:00:2335.407-119.1135942383
2018-01-03 21:59:5335.4003-119.11043375
2018-01-03 21:59:2335.3978-119.1100378
2018-01-03 21:58:5435.3978-119.1100378
2018-01-03 21:58:5335.3978-119.1100378
2018-01-03 21:58:2335.3953-119.11043378
2018-01-03 21:57:5435.3897-119.11034372
2018-01-03 21:57:5335.3897-119.11034372
2018-01-03 21:48:1135.3838-119.11200394
2018-01-03 21:38:1135.3837-119.11200354
2018-01-03 21:28:1135.3837-119.11200292
2018-01-03 21:18:1135.3838-119.11200371
2018-01-03 21:08:1135.3838-119.1121870371
2018-01-03 21:07:1235.3847-119.1118018374
2018-01-03 21:07:1135.3847-119.1118018374
2018-01-03 21:06:1135.3862-119.111802346
2018-01-03 21:05:1135.3908-119.1117710359
2018-01-03 21:04:1135.3992-119.1117935375
2018-01-03 21:03:1135.4092-119.1117910386
2018-01-03 21:01:3035.4053-119.10834418384
2018-01-03 20:58:3335.4047-119.10700376
2018-01-03 20:48:3335.4047-119.10700376
2018-01-03 20:38:3335.4047-119.10700376
2018-01-03 20:28:3335.4047-119.10700376
2018-01-03 20:18:3335.4047-119.10700371
2018-01-03 20:08:3335.4047-119.10700371
2018-01-03 19:58:3335.4047-119.10700371
2018-01-03 19:48:3335.4047-119.10700371
2018-01-03 19:38:3435.4047-119.10700371
2018-01-03 19:28:3335.4047-119.10700377
2018-01-03 19:18:3335.4047-119.10700377
2018-01-03 19:08:3335.4047-119.10700377
2018-01-03 18:58:3335.4047-119.10700376
2018-01-03 18:48:3335.4047-119.10700376
2018-01-03 18:38:3335.4047-119.10700376
2018-01-03 18:28:3435.405-119.10700377
2018-01-03 18:18:3335.405-119.10700377
2018-01-03 18:08:3335.405-119.10700377
2018-01-03 17:58:3335.405-119.10700377
2018-01-03 17:48:3335.405-119.10700377
2018-01-03 17:38:3335.405-119.10700377
2018-01-03 17:28:3335.405-119.10700377
2018-01-03 17:18:3335.4047-119.10700377
2018-01-03 17:08:3435.4047-119.10700377
2018-01-03 17:08:3335.4047-119.10700377
2018-01-03 16:58:3335.4047-119.10700377
2018-01-03 16:48:3335.4047-119.10700377
2018-01-03 16:38:3335.4047-119.10700377
2018-01-03 16:28:3435.4047-119.10700376
2018-01-03 16:18:3435.4047-119.10700376
2018-01-03 16:18:3335.4047-119.10700376
2018-01-03 16:08:3435.4047-119.10700376
2018-01-03 15:58:3335.4047-119.10700376
2018-01-03 15:48:3335.4047-119.10700384
2018-01-03 15:38:3435.41-119.09302391
2018-01-03 15:38:3335.41-119.09302391
2018-01-03 15:37:3535.41-119.09302391
2018-01-03 15:37:3335.41-119.09302391
2018-01-03 15:36:3435.41-119.09302391
2018-01-03 15:36:3335.41-119.09302391
2018-01-03 15:35:3435.41-119.09302391
2018-01-03 15:35:3335.41-119.09302391
2018-01-03 15:34:3435.41-119.09302391
2018-01-03 15:34:3335.41-119.09302391
2018-01-03 15:33:3335.41-119.09302391
2018-01-03 15:32:3335.41-119.09302391
2018-01-03 15:31:3435.41-119.09302391
2018-01-03 15:30:3335.41-119.09302391
2018-01-03 15:29:3535.41-119.09302391
2018-01-03 15:28:3535.41-119.09302391
2018-01-03 15:27:3335.41-119.09302391
2018-01-03 07:13:5835.41-119.09300395
2018-01-03 07:03:5835.41-119.09300387
2018-01-03 06:53:5835.4097-119.09300390
2018-01-03 06:43:5835.41-119.09300387
2018-01-03 06:33:5835.41-119.09301363
2018-01-03 06:23:5835.41-119.09300391
2018-01-03 06:22:2635.41-119.09300391
2018-01-03 06:16:1335.41-119.09300387
2018-01-03 06:16:1235.41-119.09300387
2018-01-03 06:06:1235.41-119.09300363
2018-01-03 05:56:1235.4097-119.09300395
2018-01-03 05:46:1335.4103-119.09224111393
2018-01-03 05:46:1235.4103-119.09224111393
2018-01-03 05:45:1335.4137-119.1019052387
2018-01-03 05:44:1335.4103-119.1104386
2018-01-03 05:42:4135.4045-119.10725010384
2018-01-03 05:38:4535.405-119.10700377
2018-01-03 05:37:4535.405-119.10700377
2018-01-03 05:36:4535.405-119.10700377
2018-01-03 05:35:4535.405-119.10700377
2018-01-03 05:34:4535.405-119.10700377
2018-01-03 05:33:4535.405-119.10700377
2018-01-03 05:32:4535.405-119.10700377
2018-01-03 05:31:4535.405-119.10700377
2018-01-03 05:30:4535.405-119.10700377
2018-01-03 05:29:4535.405-119.10700377
2018-01-03 05:28:4535.405-119.10700377
2018-01-03 05:27:4535.405-119.10700377
2018-01-03 05:26:4535.405-119.10700377
2018-01-03 05:25:4535.405-119.10700377
2018-01-03 05:24:4535.405-119.10700377
2018-01-03 05:23:4535.405-119.10700377
2018-01-03 05:22:4535.405-119.10700377
2018-01-03 05:21:4535.405-119.10700377
2018-01-03 05:20:4535.405-119.10700376
2018-01-03 05:19:4535.405-119.10700376
2018-01-03 05:18:4535.405-119.10700376
2018-01-03 05:17:4535.405-119.10700376
2018-01-03 05:16:4535.405-119.10700376
2018-01-03 05:15:4535.405-119.10700376
2018-01-03 05:14:4535.405-119.10700376
2018-01-03 05:13:4535.405-119.10700376
2018-01-03 05:12:4535.405-119.10700376
2018-01-03 05:11:4535.405-119.10700376
2018-01-03 05:10:4635.405-119.10700376
2018-01-03 05:09:4535.405-119.10700376
2018-01-03 05:08:4535.405-119.10700376
2018-01-03 05:07:4535.405-119.10700376
2018-01-03 05:06:4535.405-119.10700376
2018-01-03 05:05:4535.405-119.10700376
2018-01-03 05:04:4535.405-119.10700376
2018-01-03 05:03:4535.405-119.10700377
2018-01-03 05:02:4535.405-119.10700377
2018-01-03 05:01:4535.405-119.10700377
2018-01-03 05:00:4535.405-119.10700377
2018-01-03 04:59:4535.405-119.10700377
2018-01-03 04:58:4535.405-119.10700377
2018-01-03 04:57:4635.405-119.10700377
2018-01-03 04:56:4535.405-119.10700377
2018-01-03 04:55:4535.405-119.10700377
2018-01-03 04:54:4535.405-119.10700377
2018-01-03 04:53:4535.405-119.10700377
2018-01-03 04:52:4535.405-119.10700377
2018-01-03 04:51:4535.405-119.10700377
2018-01-03 04:50:4535.405-119.10700377
2018-01-03 04:49:4535.405-119.10700377
2018-01-03 04:48:4635.405-119.10700377
2018-01-03 04:47:4535.405-119.10700377
2018-01-03 04:46:4535.405-119.10700377
2018-01-03 04:45:4535.405-119.10700377
2018-01-03 04:44:4535.405-119.10700377
2018-01-03 04:43:4535.405-119.10700377
2018-01-03 04:42:4635.405-119.10700377
2018-01-03 04:42:4535.405-119.10700377
2018-01-03 04:41:4635.405-119.10700377
2018-01-03 04:41:4535.405-119.10700377
2018-01-03 04:40:4535.405-119.10700377
2018-01-03 04:39:4535.405-119.10700377
2018-01-03 04:38:4535.405-119.10700377
2018-01-03 04:37:4535.405-119.10700377
2018-01-03 04:36:4535.405-119.10700377
2018-01-03 04:35:4535.405-119.10700377
2018-01-03 04:34:4535.405-119.10700377
2018-01-03 04:33:4535.405-119.10700377
2018-01-03 04:32:4535.405-119.10700377
2018-01-03 04:31:4535.405-119.10700377
2018-01-03 04:30:4635.405-119.10700377
2018-01-03 04:29:4535.405-119.10700377
2018-01-03 04:28:4535.405-119.10700377
2018-01-03 04:27:4535.405-119.10700377
2018-01-03 04:26:4535.405-119.10700377
2018-01-03 04:25:4535.405-119.10700374
2018-01-03 04:24:4535.405-119.10700374
2018-01-03 04:23:4535.405-119.10700374
2018-01-03 04:22:4535.405-119.10700374
2018-01-03 04:21:4535.405-119.10700374
2018-01-03 04:20:4535.405-119.10700374
2018-01-03 04:19:4535.405-119.10700374
2018-01-03 04:18:4535.405-119.10700374
2018-01-03 04:17:4535.405-119.10700374
2018-01-03 04:16:4535.405-119.10700374
2018-01-03 04:15:4535.405-119.10700374
2018-01-03 04:14:4535.405-119.10700374
2018-01-03 04:13:4535.405-119.10700374
2018-01-03 04:12:4535.405-119.10700374
2018-01-03 04:11:4535.405-119.10700374
2018-01-03 04:10:4535.405-119.10700374
2018-01-03 04:09:4635.405-119.10700374
2018-01-03 04:08:4535.405-119.10700374
2018-01-03 04:07:4535.405-119.10700374
2018-01-03 04:02:4535.3558-119.09200367
2018-01-03 03:52:4535.3558-119.09200367
2018-01-03 03:45:3735.3558-119.09100377
2018-01-03 03:35:3735.3558-119.09100414
2018-01-03 03:25:3735.3942-119.0929115377
2018-01-03 03:15:3835.4047-119.10700377
2018-01-03 03:05:3735.405-119.10700377
2018-01-03 02:55:3735.4047-119.10700385
2018-01-03 02:45:3735.4045-119.107618379
2018-01-03 02:44:3735.4013-119.10535915376
2018-01-03 02:43:3735.3992-119.107213359
2018-01-03 02:42:3735.3978-119.10500332
2018-01-03 02:40:3735.383-119.10135374
2018-01-03 02:39:3735.3828-119.1013569374
2018-01-03 02:38:3735.383-119.13420374
2018-01-03 02:36:4835.3828-119.1013240374
2018-01-03 02:36:1835.3828-119.13532374
2018-01-03 02:35:4835.3828-119.1013520374
2018-01-03 02:35:1835.3828-119.1350374
2018-01-03 02:34:4835.3828-119.1350374
2018-01-03 02:34:1835.3825-119.1019211374
2018-01-03 02:33:4835.3833-119.1048921373
2018-01-03 02:33:1835.3833-119.1088934374
2018-01-03 02:32:4835.3837-119.111800371
2018-01-03 02:32:1835.3862-119.111801374
2018-01-03 02:31:4835.3862-119.111804374
2018-01-03 02:31:1835.3887-119.111200371
2018-01-03 02:30:4935.3888-119.11970371
2018-01-03 02:30:4835.3888-119.11970371
2018-01-03 02:30:1835.3888-119.1128918371
2018-01-03 02:29:4835.3888-119.114938368
2018-01-03 02:29:1835.3888-119.114850367
2018-01-03 02:27:4835.3888-119.114850367
2018-01-03 02:27:1835.3888-119.114850367
2018-01-03 02:26:1835.3888-119.114850367
2018-01-03 02:25:4835.3888-119.114850367
2018-01-03 02:25:1835.3888-119.114850367
2018-01-03 02:24:4835.3892-119.11426518368
2018-01-03 02:24:1835.3892-119.11127510371
2018-01-03 02:23:4835.3888-119.112949371
2018-01-03 02:23:1835.3908-119.111780378
2018-01-03 02:22:4835.3905-119.111782378
2018-01-03 02:22:1835.3958-119.1118045378
2018-01-03 02:21:4835.3992-119.1117932374
2018-01-03 02:21:1835.4045-119.1117941378
2018-01-03 02:20:4835.4092-119.1104386
2018-01-03 02:20:1835.4075-119.1092687386
2018-01-03 02:19:4835.4075-119.1083217382
2018-01-03 02:17:3335.4047-119.1073360384
2018-01-03 02:17:2535.4047-119.1073360384
2018-01-03 02:15:4835.4047-119.10700386
2018-01-03 01:40:5435.405-119.10700386
2018-01-03 01:30:5435.405-119.10700386
2018-01-03 01:29:2035.4047-119.10700385
2018-01-03 01:29:1935.4047-119.10700385
2018-01-03 01:28:3635.4047-119.10700377
2018-01-03 01:19:3035.4047-119.10700384
2018-01-03 01:09:3035.4047-119.10700385
2018-01-03 00:59:3035.4047-119.1073051385
2018-01-03 00:59:2935.4047-119.1073051385
2018-01-03 00:49:3035.405-119.10700386
2018-01-03 00:39:3035.405-119.10700377
2018-01-03 00:39:2935.405-119.10700377
2018-01-03 00:29:3035.4047-119.10700385
2018-01-03 00:29:2935.4047-119.10700385
2018-01-03 00:19:3035.405-119.10700377
2018-01-03 00:09:3035.405-119.10700376
2018-01-02 23:59:3135.405-119.10700386
2018-01-02 23:49:3035.405-119.10700356
2018-01-02 23:39:3035.4047-119.1071040384
2018-01-02 23:29:3135.4047-119.10700385
2018-01-02 23:19:3035.405-119.10700386
2018-01-02 23:09:3135.405-119.10700378
2018-01-02 23:06:5335.4058-119.10716423386
2018-01-02 23:06:2335.4075-119.109884386
2018-01-02 23:05:5335.405-119.1135944379
2018-01-02 23:05:2335.4005-119.11015373
2018-01-02 23:05:2235.4005-119.11015373
2018-01-02 23:04:5335.3978-119.1111378
2018-01-02 23:04:2335.3933-119.1135951378
2018-01-02 23:03:5335.3875-119.1135916371
2018-01-02 23:03:2335.3875-119.111800371
2018-01-02 23:02:5335.3887-119.1118017371
2018-01-02 23:02:2335.3888-119.11880371
2018-01-02 23:01:5335.3888-119.11335710371
2018-01-02 23:01:2335.3887-119.114850368
2018-01-02 23:00:2335.3887-119.114850368
2018-01-02 22:59:2335.3887-119.114850368
2018-01-02 22:58:5335.3887-119.114850368
2018-01-02 22:58:2335.3888-119.1149610365
2018-01-02 22:57:5335.3892-119.11126922371
2018-01-02 22:57:1735.3888-119.1132213371
2018-01-02 22:47:1735.4047-119.10700386
2018-01-02 22:46:1735.405-119.10700385
2018-01-02 22:45:2335.405-119.10700385
2018-01-02 22:44:1735.405-119.10700385
2018-01-02 22:43:2335.405-119.10700385
2018-01-02 22:42:1735.405-119.10700385
2018-01-02 22:41:1835.405-119.10700385
2018-01-02 22:41:1735.405-119.10700385
2018-01-02 22:40:1735.405-119.10700385
2018-01-02 22:39:2135.405-119.10700385
2018-01-02 22:36:1735.405-119.10700385
2018-01-02 22:35:1735.405-119.1072150385
2018-01-02 22:34:1735.405-119.10700385
2018-01-02 22:33:1735.405-119.10700385
2018-01-02 22:32:1735.405-119.10700385
2018-01-02 22:31:2335.405-119.10700385
2018-01-02 22:30:1735.405-119.10700385
2018-01-02 22:29:2335.405-119.10700385
2018-01-02 22:28:1735.405-119.10700385
2018-01-02 22:27:1735.4047-119.10700385
2018-01-02 22:26:1735.4047-119.10700385
2018-01-02 22:24:1735.4047-119.10700385
2018-01-02 22:23:1735.405-119.10700377
2018-01-02 22:22:2335.405-119.10700377
2018-01-02 22:21:1735.405-119.10700377
2018-01-02 22:20:1735.405-119.10700377
2018-01-02 22:19:1735.405-119.10700377
2018-01-02 22:17:1735.405-119.10700377
2018-01-02 22:16:1735.405-119.10700377
2018-01-02 22:15:1735.405-119.10700377
2018-01-02 22:14:2335.405-119.10700377
2018-01-02 22:13:1735.405-119.10700377
2018-01-02 22:12:2435.405-119.10700377
2018-01-02 22:12:2335.405-119.10700377
2018-01-02 22:11:1735.405-119.10700377
2018-01-02 22:10:2335.405-119.10700377
2018-01-02 22:09:1735.405-119.10700377
2018-01-02 22:08:2335.405-119.10700377
2018-01-02 22:07:1735.405-119.10700377
2018-01-02 22:06:2335.405-119.10700377
2018-01-02 22:05:1735.405-119.10700377
2018-01-02 22:03:2335.405-119.10700377
2018-01-02 22:02:1735.405-119.10700377
2018-01-02 22:01:2335.405-119.10700377
2018-01-02 22:00:1735.405-119.10700377
2018-01-02 21:59:1735.405-119.10700377
2018-01-02 21:58:2335.405-119.10700377
2018-01-02 21:57:1735.405-119.10700377
2018-01-02 21:52:1735.405-119.10700377
2018-01-02 21:42:2335.4047-119.10700373
2018-01-02 21:32:1735.405-119.10700392
2018-01-02 21:22:1735.4047-119.10700388
2018-01-02 21:12:1735.405-119.10700383
2018-01-02 21:02:1735.4047-119.10700365
2018-01-02 20:52:1735.4047-119.10700382
2018-01-02 20:42:1735.405-119.10700386
2018-01-02 20:32:1735.4045-119.1072101381
2018-01-02 20:22:1735.3853-119.10300367
2018-01-02 20:12:1735.3853-119.10300366
2018-01-02 20:02:1735.385-119.1012722389
2018-01-02 20:00:4435.3858-119.09600373
2018-01-02 20:00:4335.388-119.0921858387
2018-01-02 19:58:2235.388-119.0921858387
2018-01-02 19:49:2935.4133-119.09400366
2018-01-02 19:39:2935.4133-119.09400386
2018-01-02 19:36:4135.4133-119.09400404
2018-01-02 17:30:2135.405-119.10700378
2018-01-02 01:05:5635.4047-119.10700387
2018-01-02 00:55:2935.4628-119.11613269384
2018-01-02 00:54:2935.4758-119.13313269371
2018-01-02 00:53:2935.4888-119.1513369370
2018-01-02 00:52:2935.502-119.16813069384
2018-01-02 00:51:2935.517-119.18314869429
2018-01-02 00:50:2935.5345-119.19216369417
2018-01-02 00:49:2935.5533-119.19717769415
2018-01-02 00:48:2935.5722-119.20116869398
2018-01-02 00:48:2835.5722-119.20116869398
2018-01-02 00:47:2935.5912-119.20614170398
2018-01-02 00:46:2935.6095-119.21217769383
2018-01-02 00:45:2935.6283-119.21516869352
2018-01-02 00:44:2935.6472-119.22117970337
2018-01-02 00:43:2935.6663-119.22516969325
2018-01-02 00:42:2935.6853-119.22917369321
2018-01-02 00:41:2935.7042-119.23316970292
2018-01-02 00:40:2935.723-119.23817168271
2018-01-02 00:39:2935.7408-119.24216958270
2018-01-02 00:38:2935.7578-119.24816966239
2018-01-02 00:37:2935.7762-119.25316973233
2018-01-02 00:36:3035.7933-119.25316065255
2018-01-02 00:35:2935.8113-119.25716956227
2018-01-02 00:34:2935.8295-119.25916870262
2018-01-02 00:33:2935.8483-119.26616971208
2018-01-02 00:32:2935.8683-119.27117374248
2018-01-02 00:31:2935.8875-119.27316869274
2018-01-02 00:30:2935.9055-119.27916866219
2018-01-02 00:29:2935.9247-119.28218071218
2018-01-02 00:28:2935.9422-119.28716858225
2018-01-02 00:27:2935.9592-119.29118863221
2018-01-02 00:26:3135.9755-119.29516155228
2018-01-02 00:25:2935.9922-119.29916957245
2018-01-02 00:24:2936.0092-119.30216065233
2018-01-02 00:23:2936.0263-119.30716967250
2018-01-02 00:22:2936.045-119.31117067230
2018-01-02 00:21:2936.0633-119.31316066226
2018-01-02 00:20:2936.0808-119.31916963231
2018-01-02 00:19:3036.098-119.32317569195
2018-01-02 00:18:2936.1172-119.32417668221
2018-01-02 00:17:2936.1342-119.32616762217
2018-01-02 00:16:2936.1508-119.33116562216
2018-01-02 00:15:2936.1688-119.33118969263
2018-01-02 00:14:2936.1862-119.32918059243
2018-01-02 00:13:3036.203-119.32818061254
2018-01-02 00:13:2936.203-119.32818061254
2018-01-02 00:12:2936.2195-119.33115768249
2018-01-02 00:11:2936.2367-119.34314970242
2018-01-02 00:10:2936.253-119.35514970247
2018-01-02 00:09:2936.2695-119.36614968273
2018-01-02 00:08:2936.2858-119.37815166266
2018-01-02 00:07:2936.3022-119.38815070257
2018-01-02 00:06:2936.3195-119.39912966271
2018-01-02 00:05:2936.3345-119.41414571230
2018-01-02 00:05:2836.3345-119.41414571230
2018-01-02 00:04:2936.3497-119.42615567238
2018-01-02 00:03:2936.3678-119.43215170263
2018-01-02 00:02:2936.3845-119.44315270261
2018-01-02 00:01:3136.4025-119.45515272257
2018-01-02 00:00:3136.42-119.46715270252
2018-01-01 23:59:2936.437-119.47815268251
2018-01-01 23:58:2936.453-119.49116070262
2018-01-01 23:57:2936.4708-119.50115167251
2018-01-01 23:56:2936.487-119.51412674257
2018-01-01 23:55:2936.4978-119.53412071277
2018-01-01 23:54:2936.51-119.55213870268
2018-01-01 23:53:2936.5242-119.56913568256
2018-01-01 23:52:2936.5375-119.58513666240
2018-01-01 23:51:2936.5508-119.60113564261
2018-01-01 23:50:2936.5645-119.61713871285
2018-01-01 23:49:2936.5788-119.63213870258
2018-01-01 23:48:2936.5933-119.64813871277
2018-01-01 23:47:2936.608-119.66413870284
2018-01-01 23:46:2936.6225-119.6813869268
2018-01-01 23:45:2936.6363-119.69513867284
2018-01-01 23:44:2936.6503-119.7113866255
2018-01-01 23:43:2936.6647-119.72613865270
2018-01-01 23:42:3036.6775-119.74113662280
2018-01-01 23:42:2936.6775-119.74113662280
2018-01-01 23:41:2936.69-119.75613562259
2018-01-01 23:40:2936.703-119.7714264256
2018-01-01 23:39:2936.7163-119.78314264244
2018-01-01 23:38:2936.7303-119.79813864255
2018-01-01 23:37:2936.7413-119.81712368253
2018-01-01 23:36:2936.757-119.82915465241
2018-01-01 23:35:2936.7737-119.8414168318
2018-01-01 23:34:2936.7878-119.85513868282
2018-01-01 23:33:2936.7995-119.87412969296
2018-01-01 23:32:2936.812-119.89213470280
2018-01-01 23:31:2936.8255-119.9113468282
2018-01-01 23:30:2936.8392-119.92613568281
2018-01-01 23:29:2936.8508-119.94614475239
2018-01-01 23:28:3136.8667-119.96214068255
2018-01-01 23:27:2936.8812-119.97814868230
2018-01-01 23:26:2936.8955-119.99213965239
2018-01-01 23:25:2936.9095-120.00614057235
2018-01-01 23:24:2936.9228-120.02114169240
2018-01-01 23:22:2936.9497-120.0512565238
2018-01-01 23:21:2936.9617-120.06514061218
2018-01-01 23:19:2936.9897-120.09313561227
2018-01-01 23:18:2937.002-120.10813663216
2018-01-01 23:17:2937.0147-120.12313066169
2018-01-01 23:16:2937.0275-120.13913568170
2018-01-01 23:15:2937.04-120.15612863191
2018-01-01 23:14:2937.0537-120.17113465165
2018-01-01 23:13:2937.0672-120.18913574198
2018-01-01 23:12:2937.0813-120.20513170226
2018-01-01 23:11:2937.097-120.21515759218
2018-01-01 23:10:2937.1092-120.22913368198
2018-01-01 23:09:2937.122-120.24613365227
2018-01-01 23:08:2937.1345-120.26413067202
2018-01-01 23:07:2937.1453-120.28213560171
2018-01-01 23:06:2937.158-120.29714068207
2018-01-01 23:05:2937.173-120.31313570205
2018-01-01 23:04:2937.1875-120.3313674162
2018-01-01 23:03:2937.2005-120.34813470136
2018-01-01 23:02:2937.2147-120.36514070142
2018-01-01 23:01:2937.2288-120.38212171130
2018-01-01 23:00:2937.2417-120.413571154
2018-01-01 22:59:2937.2562-120.41713571146
2018-01-01 22:58:2937.2703-120.43414967126
2018-01-01 22:57:3137.2828-120.45113369139
2018-01-01 22:57:2937.2828-120.45113369139
2018-01-01 22:56:2937.2947-120.46813061179
2018-01-01 22:55:2937.2988-120.48911462159
2018-01-01 22:54:2937.307-120.50914362156
2018-01-01 22:53:2937.315-120.52511450145
2018-01-01 22:52:2937.3225-120.54511468143
2018-01-01 22:51:2937.3308-120.56512569144
2018-01-01 22:50:3037.3388-120.58713469147
2018-01-01 22:49:2937.343-120.60911467137
2018-01-01 22:48:2937.3538-120.62810969148
2018-01-01 22:47:2937.362-120.6510575143
2018-01-01 22:46:2937.3697-120.67411876132
2018-01-01 22:45:2937.378-120.69711569129
2018-01-01 22:44:2937.3867-120.721177099
2018-01-01 22:43:2937.3937-120.7416062111
2018-01-01 22:42:2937.4078-120.75113763132
2018-01-01 22:41:2937.4213-120.76513170104
2018-01-01 22:40:2937.435-120.78113463112
2018-01-01 22:39:2937.4478-120.7971366899
2018-01-01 22:38:2937.46-120.8141166594
2018-01-01 22:37:2937.468-120.8351166692
2018-01-01 22:36:2937.4762-120.8551176588
2018-01-01 22:35:2937.4903-120.8691576685
2018-01-01 22:34:2937.5072-120.87815765100
2018-01-01 22:33:2937.5242-120.8871576593
2018-01-01 22:32:2937.5405-120.8961336585
2018-01-01 22:31:2937.5533-120.9131376683
2018-01-01 22:30:2937.567-120.9291376782
2018-01-01 22:29:2937.5805-120.9451376283
2018-01-01 22:28:2937.5938-120.961366771
2018-01-01 22:27:2937.6078-120.9751436683
2018-01-01 22:26:2937.6175-120.9921206734
2018-01-01 22:25:2937.6337-1211355938
2018-01-01 22:24:2937.6458-121.0161366761
2018-01-01 22:23:2937.6603-121.0261775884
2018-01-01 22:22:2937.6737-121.0421367166
2018-01-01 22:21:2937.6875-121.0591326767
2018-01-01 22:20:2937.7008-121.0721446363
2018-01-01 22:19:2937.7128-121.0881226258
2018-01-01 22:18:2937.7262-121.1041326460
2018-01-01 22:17:2937.7387-121.121366440
2018-01-01 22:16:2937.7497-121.1381406647
2018-01-01 22:15:2937.76-121.1561265843
2018-01-01 22:14:2937.7703-121.1741306141
2018-01-01 22:12:4137.7967-121.1911686639
2018-01-01 22:12:1137.805-121.1961356935
2018-01-01 22:11:4137.812-121.2051356824
2018-01-01 22:11:1137.8188-121.2131357128
2018-01-01 22:10:4137.8278-121.2171786830
2018-01-01 22:10:1137.8372-121.2181776627
2018-01-01 22:09:4237.8467-121.2181787127
2018-01-01 22:09:4137.8467-121.2181787127
2018-01-01 22:09:1837.8542-121.2181797027
2018-01-01 22:07:2737.8887-121.221797019
2018-01-01 22:07:0137.897-121.221796924
2018-01-01 22:06:5837.8987-121.221726828
2018-01-01 22:06:0137.9145-121.2271626619
2018-01-01 22:05:0137.932-121.2341716616
2018-01-01 22:04:0237.9503-121.238162669
2018-01-01 22:03:2737.9625-121.2421626417
2018-01-01 22:02:0237.987-121.2511626220
2018-01-01 22:01:0238.0008-121.2561605914
2018-01-01 21:58:3138.0438-121.2581766230
2018-01-01 21:58:3038.0438-121.2581766230
2018-01-01 21:58:0138.053-121.2591766928
2018-01-01 21:58:0038.053-121.2591766928
2018-01-01 21:57:3138.0628-121.2591797231
2018-01-01 21:57:3038.0628-121.2591797231
2018-01-01 21:57:0138.0728-121.261796831
2018-01-01 21:57:0038.0728-121.261796831
2018-01-01 21:56:3138.0822-121.261796933
2018-01-01 21:56:0138.092-121.261796938
2018-01-01 21:56:0038.092-121.261796938
2018-01-01 21:55:3138.1017-121.261816739
2018-01-01 21:55:3038.1017-121.261816739
2018-01-01 21:55:0138.1112-121.2591896844
2018-01-01 21:55:0038.1112-121.2591896844
2018-01-01 21:54:3438.1203-121.2571806743
2018-01-01 21:54:0138.1297-121.2571796626
2018-01-01 21:54:0038.1297-121.2571796626
2018-01-01 21:53:3138.1388-121.2581596538
2018-01-01 21:53:3038.1388-121.2581596538
2018-01-01 21:53:0138.1478-121.2611786843
2018-01-01 21:52:3138.157-121.2621796647
2018-01-01 21:52:3038.157-121.2621796647
2018-01-01 21:52:0138.1662-121.2621776549
2018-01-01 21:52:0038.1662-121.2621776549
2018-01-01 21:51:3138.1753-121.2621786944
2018-01-01 21:51:0138.1847-121.2621786850
2018-01-01 21:51:0038.1847-121.2621786850
2018-01-01 21:50:3138.1942-121.2631786452
2018-01-01 21:50:3038.1942-121.2631786452
2018-01-01 21:50:0138.203-121.2631796350
2018-01-01 21:50:0038.203-121.2631796350
2018-01-01 21:49:3138.2113-121.2661526450
2018-01-01 21:49:3038.2113-121.2661526450
2018-01-01 21:49:0138.2195-121.2711536247
2018-01-01 21:49:0038.2195-121.2711536247
2018-01-01 21:48:3038.2272-121.2761536349
2018-01-01 21:48:0138.2353-121.2811536339
2018-01-01 21:48:0038.2353-121.2811536339
2018-01-01 21:47:3138.2433-121.2871536332
2018-01-01 21:47:0138.2512-121.2921526545
2018-01-01 21:46:3138.2592-121.2971536443
2018-01-01 21:46:3038.2592-121.2971536443
2018-01-01 21:46:0038.2672-121.3011646237
2018-01-01 21:45:3138.2762-121.3041626534
2018-01-01 21:45:0138.2842-121.3081546138
2018-01-01 21:45:0038.2842-121.3081546138
2018-01-01 21:44:3138.292-121.3131546534
2018-01-01 21:44:3038.292-121.3131546534
2018-01-01 21:44:0138.3003-121.3171626434
2018-01-01 21:44:0038.3003-121.3171626434
2018-01-01 21:43:3138.3088-121.3211616326
2018-01-01 21:43:3038.3088-121.3211616326
2018-01-01 21:43:0138.3172-121.3241626428
2018-01-01 21:43:0038.3172-121.3241626428
2018-01-01 21:42:3138.3258-121.3271606528
2018-01-01 21:42:0138.3345-121.3321606229
2018-01-01 21:42:0038.3345-121.3321606229
2018-01-01 21:41:3138.3428-121.3351596532
2018-01-01 21:41:3038.3428-121.3351596532
2018-01-01 21:41:0138.3508-121.341565829
2018-01-01 21:40:3138.3578-121.3441565634
2018-01-01 21:40:0138.3645-121.351406435
2018-01-01 21:40:0038.3645-121.351406435
2018-01-01 21:39:3038.3717-121.3571416737
2018-01-01 21:39:0138.3788-121.3651426530
2018-01-01 21:39:0038.3788-121.3651426530
2018-01-01 21:38:3138.3858-121.3711426133
2018-01-01 21:38:3038.3858-121.3711426133
2018-01-01 21:38:0138.3928-121.3781506137
2018-01-01 21:38:0038.3928-121.3781506137
2018-01-01 21:37:3138.4003-121.3831536233
2018-01-01 21:37:3038.4003-121.3831536233
2018-01-01 21:37:0138.4087-121.3881556823
2018-01-01 21:36:3138.4172-121.3931606430
2018-01-01 21:36:0138.4255-121.3961606327
2018-01-01 21:36:0038.4255-121.3961606327
2018-01-01 21:35:3138.4338-121.4160627
2018-01-01 21:35:3038.4338-121.4160627
2018-01-01 21:35:0138.4425-121.4041636316
2018-01-01 21:34:3138.4508-121.4081606410
2018-01-01 21:34:3038.4508-121.4081606410
2018-01-01 21:34:0138.4588-121.4121596312
2018-01-01 21:33:3138.4672-121.4161496418
2018-01-01 21:33:0138.4742-121.4231406415
2018-01-01 21:32:3138.4812-121.431406416
2018-01-01 21:32:0138.488-121.4381406319
2018-01-01 21:31:3038.4947-121.4451396419
2018-01-01 21:31:0138.5017-121.4521396713
2018-01-01 21:31:0038.5017-121.4521396713
2018-01-01 21:30:3138.5088-121.4591536411
2018-01-01 21:30:3038.5088-121.4591536411
2018-01-01 21:30:0138.517-121.463157650
2018-01-01 21:29:3138.5253-121.4681576714
2018-01-01 21:29:3038.5253-121.4681576714
2018-01-01 21:29:0138.5337-121.472157614
2018-01-01 21:29:0038.5337-121.472157614
2018-01-01 21:28:3138.5428-121.474179697
2018-01-01 21:28:3038.5428-121.474179697
2018-01-01 21:28:0138.552-121.4741796826
2018-01-01 21:28:0038.552-121.4741796826
2018-01-01 21:27:3038.5595-121.4742223612
2018-01-01 21:27:0138.56-121.4672544933
2018-01-01 21:27:0038.56-121.4672544933
2018-01-01 21:26:3138.5603-121.4572886417
2018-01-01 21:26:0138.5572-121.446289685
2018-01-01 21:26:0038.5572-121.446289685
2018-01-01 21:25:3138.553-121.4362946013
2018-01-01 21:25:0138.5505-121.4252706543
2018-01-01 21:23:5938.5547-121.405253610
2018-01-01 21:22:5938.5583-121.3832626030
2018-01-01 21:21:5938.5608-121.3592626957
2018-01-01 21:20:5938.5662-121.3362386853
2018-01-01 21:19:5938.5755-121.3142426955
2018-01-01 21:18:5938.5867-121.2952336686
2018-01-01 21:17:5938.5992-121.27719463114
2018-01-01 21:16:5938.6113-121.26424463121
2018-01-01 21:15:5938.6195-121.24324468117
2018-01-01 21:14:5938.628-121.22223564130
2018-01-01 21:13:5938.6378-121.20423662134
2018-01-01 21:13:0138.6442-121.19122741162
2018-01-01 21:11:5938.648-121.18622650151
2018-01-01 21:11:0038.6578-121.18316643155
2018-01-01 21:09:2638.6725-121.18119138174
2018-01-01 21:08:2538.6838-121.17921124191
2018-01-01 21:07:2538.6845-121.179290192
2018-01-01 21:06:2538.6845-121.179290192
2018-01-01 21:05:2538.6845-121.179290192
2018-01-01 21:05:2438.6845-121.179290192
2018-01-01 21:04:2538.6845-121.179290192
2018-01-01 21:04:2438.6845-121.179290192
2018-01-01 21:03:2538.6842-121.17929119191
2018-01-01 21:03:2438.6842-121.17929119191
2018-01-01 21:02:2538.6797-121.1752119187
2018-01-01 21:02:2438.6797-121.1752119187
2018-01-01 21:01:2538.6788-121.1753206203
2018-01-01 20:55:2538.6783-121.176490211
2018-01-01 20:45:2538.678-121.17600212
2018-01-01 20:35:2538.678-121.17600219
2018-01-01 20:25:2538.678-121.17600208
2018-01-01 20:15:2538.6783-121.17601232
2018-01-01 20:05:2538.6542-121.14244354
2018-01-01 20:05:2438.6542-121.14244354
2018-01-01 19:55:2538.6445-121.12116410361
2018-01-01 19:54:2538.6463-121.11819320381
2018-01-01 19:53:2538.6453-121.11535922433
2018-01-01 19:52:3538.6437-121.10828645454
2018-01-01 19:51:2538.647-121.08824758642
2018-01-01 19:50:2538.6542-121.06724770653
2018-01-01 19:48:4038.6553-121.027271681112
2018-01-01 19:48:1038.655-121.016266641162
2018-01-01 19:47:4038.6558-121.003264661124
2018-01-01 19:47:1038.6575-120.991271701170
2018-01-01 19:46:4038.6588-120.98249661298
2018-01-01 19:46:3938.6588-120.98249661298
2018-01-01 19:46:1238.6595-120.968269641353
2018-01-01 19:45:4038.6595-120.956269661448
2018-01-01 19:45:3938.6595-120.956269661448
2018-01-01 19:45:1038.6612-120.944256721464
2018-01-01 19:44:4038.6645-120.933235641419
2018-01-01 19:44:1238.6708-120.924218681412
2018-01-01 19:43:4038.6787-120.917218721379
2018-01-01 19:43:1238.6863-120.909218681465
2018-01-01 19:42:4038.6922-120.9243661400
2018-01-01 19:42:1238.6958-120.89260621395
2018-01-01 19:41:4038.6972-120.878246651510
2018-01-01 19:41:1038.7008-120.868245661564
2018-01-01 19:40:4038.7045-120.857245651563
2018-01-01 19:40:1138.7083-120.846251691723
2018-01-01 19:40:1038.7083-120.846251691723
2018-01-01 19:39:4038.7138-120.838201601671
2018-01-01 19:39:1138.7213-120.833245641779
2018-01-01 19:38:4038.7267-120.825217521853
2018-01-01 19:38:1238.7303-120.817276611790
2018-01-01 19:37:4038.7283-120.809298401817
2018-01-01 19:37:1038.7283-120.80424421827
2018-01-01 19:36:4038.7283-120.80423901827
2018-01-01 19:36:1038.7288-120.802237261836
2018-01-01 19:36:0938.7288-120.802237261836
2018-01-01 19:35:4138.73-120.798291291880
2018-01-01 19:35:1238.7305-120.794232341886
2018-01-01 19:34:4238.7313-120.786246561948
2018-01-01 19:34:1238.7338-120.777246512033
2018-01-01 19:33:4038.7312-120.768317562174
2018-01-01 19:33:1038.732-120.759249582262
2018-01-01 19:32:4038.7312-120.748258552408
2018-01-01 19:32:1038.737-120.742241602555
2018-01-01 19:31:4038.7378-120.732261522697
2018-01-01 19:31:1038.7383-120.722290652845
2018-01-01 19:30:4138.737-120.711268672961
2018-01-01 19:30:1038.7388-120.7237602978
2018-01-01 19:29:4038.7378-120.689294663008
2018-01-01 19:29:1238.7347-120.678275683147
2018-01-01 19:28:4038.7355-120.667216623290
2018-01-01 19:28:1238.743-120.66232583383
2018-01-01 19:27:4038.7437-120.65274583446
2018-01-01 19:27:1438.7438-120.639280683512
2018-01-01 19:27:0338.7447-120.627266663608
2018-01-01 19:26:1138.7483-120.617263683658
2018-01-01 19:25:4038.7508-120.605246603727
2018-01-01 19:25:1138.7545-120.595245653812
2018-01-01 19:24:4038.7588-120.585250653923
2018-01-01 19:24:1138.7613-120.574272664015
2018-01-01 19:23:4038.7612-120.563262594074
2018-01-01 19:23:1038.7658-120.556203514067
2018-01-01 19:22:4038.7642-120.55310533882
2018-01-01 19:22:1138.763-120.541274573732
2018-01-01 19:21:4138.7608-120.532285583610
2018-01-01 19:21:1038.7605-120.522294513493
2018-01-01 19:20:4138.7608-120.513272503415
2018-01-01 19:20:4038.7608-120.513272503415
2018-01-01 19:20:1238.7608-120.505231533385
2018-01-01 19:19:4038.7658-120.498217543361
2018-01-01 19:19:1138.7658-120.489264533286
2018-01-01 19:19:1038.7658-120.489264533286
2018-01-01 19:18:4038.7655-120.48236513167
2018-01-01 19:18:1038.772-120.476232593218
2018-01-01 19:17:4438.7762-120.465246563225
2018-01-01 19:17:4338.7762-120.465246563225
2018-01-01 19:17:1138.7722-120.459306573199
2018-01-01 19:17:1038.7722-120.459306573199
2018-01-01 19:16:4038.7708-120.449317533255
2018-01-01 19:16:1038.7688-120.442274403311
2018-01-01 19:15:4038.7697-120.437234313345
2018-01-01 19:15:1038.7717-120.431243393314
2018-01-01 19:14:4038.7738-120.424252363348
2018-01-01 19:14:1238.7747-120.418287413382
2018-01-01 19:13:4438.7753-120.41273433391
2018-01-01 19:13:1038.7755-120.404302353387
2018-01-01 19:13:0938.7755-120.404302353387
2018-01-01 19:12:4038.7738-120.429253395
2018-01-01 19:12:1038.7737-120.398257143405
2018-01-01 19:11:4038.7738-120.396264163432
2018-01-01 19:11:1038.7737-120.393288123444
2018-01-01 19:10:4038.773-120.391297183455
2018-01-01 19:10:1038.7725-120.388297153472
2018-01-01 19:10:0938.7725-120.388297153472
2018-01-01 19:09:4038.7717-120.387319103481
2018-01-01 19:09:3938.7717-120.387319103481
2018-01-01 19:09:1038.7708-120.386300173495
2018-01-01 19:09:0938.7708-120.386300173495
2018-01-01 19:08:4038.7692-120.383316143495
2018-01-01 19:08:3938.7692-120.383316143495
2018-01-01 19:08:1038.7678-120.38231773493
2018-01-01 19:08:0938.7678-120.38231773493
2018-01-01 19:07:4038.767-120.38293163502
2018-01-01 19:07:3938.767-120.38293163502
2018-01-01 19:07:1038.767-120.378241453548
2018-01-01 19:07:0938.767-120.378241453548
2018-01-01 19:06:4038.7658-120.368283493583
2018-01-01 19:06:3938.7658-120.368283493583
2018-01-01 19:06:1038.7637-120.361304423578
2018-01-01 19:05:4038.7667-120.356275373629
2018-01-01 19:05:3938.7667-120.356275373629
2018-01-01 19:05:1038.7642-120.351279453637
2018-01-01 19:04:4038.7645-120.343246433731
2018-01-01 19:04:1038.7645-120.336277433794
2018-01-01 19:03:4038.7638-120.327268663856
2018-01-01 19:03:1038.7663-120.318221393978
2018-01-01 19:03:0938.7663-120.318221393978
2018-01-01 19:02:4038.7695-120.314233394011
2018-01-01 19:02:3938.7695-120.314233394011
2018-01-01 19:02:1038.7705-120.31248143951
2018-01-01 19:02:0938.7705-120.31248143951
2018-01-01 19:01:4038.7722-120.305235393928
2018-01-01 19:01:3938.7722-120.305235393928
2018-01-01 19:01:1138.7745-120.296262354050
2018-01-01 18:38:5438.9672-119.918241336636
2018-01-01 18:33:5438.9672-119.918241336636
2018-01-01 18:32:5438.9672-119.918241336636
2018-01-01 18:30:5438.9672-119.918241336636
2018-01-01 18:27:5438.9672-119.918241336636
2018-01-01 18:26:5838.9672-119.918241336636
2018-01-01 18:22:5438.9672-119.918241336636
2018-01-01 18:15:5538.9672-119.918241336636
2018-01-01 18:15:5438.9672-119.918241336636
2018-01-01 18:14:5638.9672-119.918241336636
2018-01-01 18:14:5538.9672-119.918241336636
2018-01-01 18:13:5438.9672-119.918241336636
2018-01-01 00:31:2338.9628-119.8480345040
2018-01-01 00:21:2238.9628-119.8480345040
2018-01-01 00:11:2338.9628-119.8480345040
2017-12-31 21:36:4139.0033-119.84631274793
2017-12-31 21:36:0639-119.844324264789
2017-12-31 21:35:5438.9997-119.844331184768
2017-12-31 21:35:2538.9962-119.842331364724
2017-12-31 21:35:0438.9925-119.839327474696
2017-12-31 21:33:2238.9712-119.83810484718
2017-12-31 21:32:5238.9642-119.839351514734
2017-12-31 21:32:2238.9575-119.84353514736
2017-12-31 21:31:5938.9522-119.8421514761
2017-12-31 21:30:5938.9395-119.844343484772
2017-12-31 21:29:1438.9322-119.846134474934
2017-12-31 21:29:1338.9322-119.846134474934
2017-12-31 21:28:4438.9383-119.848191465050
2017-12-31 21:28:4338.9383-119.848191465050
2017-12-31 21:28:1438.9447-119.848200455190
2017-12-31 21:28:1338.9447-119.848200455190
2017-12-31 21:27:4438.9497-119.849196435270
2017-12-31 21:27:4338.9497-119.849196435270
2017-12-31 21:27:1438.9553-119.848192405330
2017-12-31 21:26:4438.9605-119.847164415420
2017-12-31 21:26:4338.9605-119.847164415420
2017-12-31 21:26:1438.962-119.85270415582
2017-12-31 21:26:1338.962-119.85270415582
2017-12-31 21:25:4438.963-119.85970375711
2017-12-31 21:25:4338.963-119.85970375711
2017-12-31 21:25:1438.967-119.86263415857
2017-12-31 21:25:1338.967-119.86263415857
2017-12-31 21:24:4338.9687-119.853232405999
2017-12-31 21:24:1438.9728-119.856143456160
2017-12-31 21:23:4438.9775-119.859254406284
2017-12-31 21:23:4338.9775-119.859254406284
2017-12-31 21:23:1338.9787-119.856101376438
2017-12-31 21:22:4338.9812-119.863128486603
2017-12-31 21:22:1438.9792-119.8696476760
2017-12-31 21:22:1338.9792-119.8696476760
2017-12-31 21:21:4338.9737-119.87102436903
2017-12-31 21:21:1438.9742-119.87893447032
2017-12-31 21:21:1338.9742-119.87893447032
2017-12-31 21:20:4338.9767-119.884149437187
2017-12-31 21:20:1338.9772-119.88723367313
2017-12-31 21:19:4338.9762-119.89271287236
2017-12-31 21:19:3638.9758-119.89367247227
2017-12-31 21:18:3638.9783-119.895201277196
2017-12-31 21:17:0638.983-119.89218907323
2017-12-31 21:17:0538.983-119.89218907323
2017-12-31 21:16:4438.983-119.89217707323
2017-12-31 21:15:4638.9833-119.89217937344
2017-12-31 21:15:4538.9833-119.89217937344
2017-12-31 21:14:1438.9837-119.893007397
2017-12-31 21:14:1338.9837-119.893007397
2017-12-31 21:13:2438.9837-119.893007398
2017-12-31 20:38:0438.9833-119.893007399
2017-12-31 20:28:0538.9837-119.89330807377
2017-12-31 20:28:0438.9837-119.89330807377
2017-12-31 20:21:0438.9837-119.89330807403
2017-12-31 20:11:0438.9837-119.893006668
2017-12-31 20:10:0438.9837-119.893006668
2017-12-31 20:09:0438.9837-119.893006668
2017-12-31 20:08:0438.9837-119.893006668
2017-12-31 20:07:0438.9837-119.893006668
2017-12-31 20:06:0438.9837-119.893006668
2017-12-31 20:05:0438.9837-119.893006668
2017-12-31 20:04:0438.9837-119.893006668
2017-12-31 20:03:0438.9837-119.893006668
2017-12-31 20:02:0438.9837-119.893006668
2017-12-31 20:01:0438.9837-119.893006668
2017-12-31 20:00:0438.9837-119.893006668
2017-12-31 19:59:0538.9837-119.893006668
2017-12-31 19:49:0438.9837-119.893007397
2017-12-31 19:39:0738.9833-119.89229007396
2017-12-31 19:29:0438.9833-119.892007394
2017-12-31 19:27:3138.9833-119.892007355
2017-12-31 19:27:2838.9833-119.892007358
2017-12-30 02:39:4138.9837-119.89324607312
2017-12-30 02:38:4338.9837-119.89319817336
2017-12-30 02:37:4138.9812-119.89452147201
2017-12-30 02:35:0238.973-119.9183366864
2017-12-30 02:34:3138.9703-119.91465306717
2017-12-30 02:34:2938.9703-119.91576276705
2017-12-30 02:34:0238.9683-119.9178306638
2017-12-30 02:33:3038.9672-119.923120366434
2017-12-30 02:31:2938.9638-119.93921206279
2017-12-30 02:29:5638.9683-119.93626706273
2017-12-30 02:22:0838.9683-119.93626706273
2017-12-30 02:21:0838.9675-119.9363016295
2017-12-30 02:20:0838.9637-119.939315186287
2017-12-30 02:19:0838.9572-119.93841246302
2017-12-30 02:18:0838.955-119.94220906314
2017-12-30 02:09:0838.9567-119.94121126286
2017-12-30 01:59:0838.9578-119.943006288
2017-12-30 01:49:0838.9578-119.94211296257
2017-12-30 01:48:0838.9562-119.9442706257
2017-12-30 01:47:0838.9537-119.9465106249
2017-12-30 01:46:0838.9533-119.94655116236
2017-12-30 01:45:0838.9525-119.9487006242
2017-12-30 01:44:0838.952-119.9561116238
2017-12-30 01:43:0838.9517-119.955986228
2017-12-30 01:43:0738.9517-119.955986228
2017-12-30 01:42:0838.9505-119.9535906217
2017-12-30 01:41:0838.95-119.9545246213
2017-12-30 01:36:0838.948-119.95619316223
2017-12-30 01:35:0838.9483-119.95722946225
2017-12-30 01:34:0838.948-119.957329106250
2017-12-30 01:33:0938.9425-119.953329226293
2017-12-30 01:33:0838.9425-119.953329226293
2017-12-30 01:24:0738.9192-119.95839296287
2017-12-30 01:22:1638.9062-119.96548306289
2017-12-30 01:21:4638.9033-119.96919376321
2017-12-30 01:21:1638.8978-119.9717456330
2017-12-30 01:20:4638.892-119.97317426362
2017-12-30 01:20:1638.888-119.97857396407
2017-12-30 01:19:4638.8847-119.98551386451
2017-12-30 01:19:4538.8847-119.98551386451
2017-12-30 01:19:1638.8803-119.98915386449
2017-12-30 01:18:4638.8753-119.99119456422
2017-12-30 01:18:1638.87-119.99426326422
2017-12-30 01:17:5238.8653-119.99734356406
2017-12-30 01:17:2238.8625-120.00270326383
2017-12-30 01:16:4938.8608-120.00844416333
2017-12-30 01:16:4838.8608-120.00844416333
2017-12-30 01:14:5838.8538-120.01659216345
2017-12-30 01:14:2838.8525-120.01956196355
2017-12-30 01:04:4738.8253-120.05672407123
2017-12-30 01:04:1738.8222-120.06470496998
2017-12-30 01:03:4738.8208-120.07364476890
2017-12-30 01:03:1738.8175-120.07968476774
2017-12-30 01:02:4738.8133-120.08661506686
2017-12-30 01:02:1738.8095-120.09255486616
2017-12-30 01:01:4738.8053-120.169536568
2017-12-30 01:01:1738.8047-120.10952536515
2017-12-30 01:00:4738.8033-120.115101586405
2017-12-30 01:00:1738.8028-120.122186416324
2017-12-30 00:59:4738.8072-120.123214466220
2017-12-30 00:59:1738.8113-120.12278516106
2017-12-30 00:58:4738.8092-120.13173536019
2017-12-30 00:58:1738.8067-120.13949545854
2017-12-30 00:57:4738.8005-120.14323485715
2017-12-30 00:57:1738.7953-120.14756505658
2017-12-30 00:56:4738.7897-120.15335535606
2017-12-30 00:56:1738.787-120.16111505565
2017-12-30 00:55:4738.7892-120.16996485548
2017-12-30 00:55:1738.7883-120.177107535467
2017-12-30 00:54:4738.7903-120.186109505501
2017-12-30 00:54:1738.79-120.19658625441
2017-12-30 00:53:4738.787-120.20571605403
2017-12-30 00:53:1738.7842-120.21542505314
2017-12-30 00:52:4838.7825-120.222108425255
2017-12-30 00:52:4738.7825-120.222108425255
2017-12-30 00:52:1838.783-120.22893245152
2017-12-30 00:52:1738.783-120.22893245152
2017-12-30 00:51:4738.7833-120.232100215076
2017-12-30 00:51:1838.7842-120.23683244981
2017-12-30 00:51:1738.7842-120.23683244981
2017-12-30 00:50:4838.7808-120.24159534899
2017-12-30 00:50:4738.7808-120.24159534899
2017-12-30 00:50:1738.7805-120.25166544702
2017-12-30 00:49:4738.7778-120.25984434597
2017-12-30 00:49:1738.7763-120.26682414481
2017-12-30 00:48:4738.7772-120.273114404373
2017-12-30 00:48:1738.7767-120.28161404273
2017-12-30 00:47:4738.773-120.28759424153
2017-12-30 00:47:1738.7738-120.293121404063
2017-12-30 00:46:4738.7742-120.371484038
2017-12-30 00:46:1738.7712-120.30872504004
2017-12-30 00:45:4738.768-120.31553483958
2017-12-30 00:45:1738.7642-120.32368563886
2017-12-30 00:44:4738.7638-120.333113373853
2017-12-30 00:44:1738.765-120.339106363812
2017-12-30 00:43:4738.7637-120.34583333738
2017-12-30 00:43:1738.7645-120.35196353669
2017-12-30 00:42:4738.767-120.35585303640
2017-12-30 00:42:1738.7633-120.3671323628
2017-12-30 00:41:4738.765-120.365105383633
2017-12-30 00:41:1738.767-120.372107503555
2017-12-30 00:40:4738.7678-120.381132383490
2017-12-30 00:40:1738.7705-120.385117313473
2017-12-30 00:39:4738.7733-120.391107353395
2017-12-30 00:39:1738.7737-120.39773353394
2017-12-30 00:38:4738.775-120.402131233412
2017-12-30 00:38:1738.7755-120.40882333403
2017-12-30 00:37:4738.7753-120.41476313389
2017-12-30 00:37:1738.775-120.419124283375
2017-12-30 00:36:4738.7738-120.42469383363
2017-12-30 00:36:1738.7725-120.42951323331
2017-12-30 00:35:4738.7703-120.43566223328
2017-12-30 00:35:1838.7688-120.43877323302
2017-12-30 00:35:1738.7688-120.43877323302
2017-12-30 00:34:4738.7688-120.44390403256
2017-12-30 00:34:1738.7713-120.45109503185
2017-12-30 00:33:4738.7728-120.46150533192
2017-12-30 00:33:1738.7758-120.46564533191
2017-12-30 00:32:4738.7725-120.47463543175
2017-12-30 00:32:1838.7663-120.47846563199
2017-12-30 00:31:4738.7658-120.48889553346
2017-12-30 00:31:1738.7663-120.49753573396
2017-12-30 00:30:4738.7608-120.50547593410
2017-12-30 00:30:2338.7605-120.51481553420
2017-12-30 00:29:5138.7605-120.522109523543
2017-12-30 00:29:1838.7605-120.53107503636
2017-12-30 00:28:4738.7625-120.539102483801
2017-12-30 00:28:1738.7625-120.547117383912
2017-12-30 00:27:5038.767-120.552130363972
2017-12-30 00:27:1738.7637-120.55736494021
2017-12-30 00:26:4738.7608-120.56585583980
2017-12-30 00:26:1738.7612-120.57693653896
2017-12-30 00:25:4738.7583-120.58766613806
2017-12-30 00:25:1738.7538-120.59673573729
2017-12-30 00:24:5138.7508-120.60566613691
2017-12-30 00:24:2138.7483-120.61579343642
2017-12-30 00:23:5038.7492-120.618144123623
2017-12-30 00:23:4938.7492-120.618144123623
2017-12-30 00:23:2138.7488-120.61823703626
2017-12-30 00:22:5238.7488-120.61823203625
2017-12-30 00:22:1738.7488-120.61823203625
2017-12-30 00:21:1738.7488-120.61823203625
2017-12-30 00:20:4738.7488-120.61823203625
2017-12-30 00:19:4838.7488-120.61823103666
2017-12-30 00:19:4738.7488-120.61823103666
2017-12-30 00:18:4838.7488-120.61823103666
2017-12-30 00:18:1838.7488-120.61823303650
2017-12-30 00:17:4838.7492-120.61824463609
2017-12-30 00:17:1738.748-120.61889373578
2017-12-30 00:16:4938.745-120.62572553553
2017-12-30 00:16:1738.7433-120.63595603478
2017-12-30 00:15:4738.7438-120.64669603392
2017-12-30 00:15:1738.7438-120.65786613287
2017-12-30 00:14:4738.738-120.66433563222
2017-12-30 00:14:1738.7342-120.67296633130
2017-12-30 00:13:4738.735-120.682107563029
2017-12-30 00:13:1738.7387-120.692115612968
2017-12-30 00:12:4738.7378-120.70164592963
2017-12-30 00:12:1738.7367-120.71188582864
2017-12-30 00:11:4738.738-120.721110582747
2017-12-30 00:11:1738.7375-120.73174582589
2017-12-30 00:10:4738.737-120.74162592446
2017-12-30 00:10:1738.7308-120.74774562293
2017-12-30 00:09:4738.732-120.75774582189
2017-12-30 00:09:1738.7305-120.768126572077
2017-12-30 00:08:4838.7337-120.77664571955
2017-12-30 00:08:4738.7337-120.77664571955
2017-12-30 00:08:1738.7313-120.78571581915
2017-12-30 00:07:4738.73-120.79555501873
2017-12-30 00:07:1738.7288-120.80256471841
2017-12-30 00:06:4738.7278-120.8058401830
2017-12-30 00:06:1938.7278-120.8058401830
2017-12-30 00:06:1738.7278-120.8058401830
2017-12-30 00:05:4738.7278-120.807103371831
2017-12-30 00:05:1738.73-120.81598671822
2017-12-30 00:04:4738.7267-120.82533661822
2017-12-30 00:04:1738.7213-120.83364531673
2017-12-30 00:03:4738.7137-120.83821611725
2017-12-30 00:03:1738.7083-120.84470411698
2017-12-30 00:02:5638.7072-120.84965571605
2017-12-30 00:02:2638.7037-120.85966581531
2017-12-30 00:01:5638.7003-120.86965631545
2017-12-30 00:01:2638.6967-120.87867561450
2017-12-30 00:00:5638.6955-120.88979631384
2017-12-30 00:00:2638.692-120.963711412
2017-12-29 23:59:5638.6862-120.90938661401
2017-12-29 23:59:2638.6787-120.91638701421
2017-12-29 23:58:5638.6712-120.92438651393
2017-12-29 23:58:2638.665-120.93255671465
2017-12-29 23:57:5638.6613-120.94276601458
2017-12-29 23:57:2638.6595-120.95382611436
2017-12-29 23:56:5638.6592-120.96389561353
2017-12-29 23:56:2638.6592-120.97389571282
2017-12-29 23:55:5638.6575-120.98365571152
2017-12-29 23:55:2638.6572-120.99382601075
2017-12-29 23:54:5638.6555-121.00584661186
2017-12-29 23:54:2638.655-121.01588591144
2017-12-29 23:53:5638.655-121.02692581065
2017-12-29 23:53:2638.6542-121.0377259966
2017-12-29 23:52:5638.6575-121.04611461772
2017-12-29 23:52:2638.6572-121.0576766663
2017-12-29 23:51:5638.6537-121.0686769597
2017-12-29 23:51:2638.65-121.0796763621
2017-12-29 23:50:5638.6463-121.0896666676
2017-12-29 23:50:2638.6437-121.18761588
2017-12-29 23:49:5638.643-121.1118764418
2017-12-29 23:49:2638.6425-121.1228759327
2017-12-29 23:48:5638.6422-121.1328764284
2017-12-29 23:48:2638.6417-121.1448666251
2017-12-29 23:47:5638.6417-121.1569364248
2017-12-29 23:47:2638.6422-121.1679369238
2017-12-29 23:46:5638.642-121.1798166233
2017-12-29 23:46:2638.6405-121.198161189
2017-12-29 23:45:5638.6387-121.2015964124
2017-12-29 23:45:2638.6337-121.2115665128
2017-12-29 23:44:5638.6288-121.225662146
2017-12-29 23:44:2638.6238-121.236465142
2017-12-29 23:43:5638.6203-121.246465108
2017-12-29 23:43:2638.6162-121.2516464114
2017-12-29 23:42:5638.6122-121.2616465124
2017-12-29 23:42:2638.6083-121.272596189
2017-12-29 23:41:5638.6012-121.2771260134
2017-12-29 23:41:2638.5937-121.2825164119
2017-12-29 23:40:5638.588-121.292527097
2017-12-29 23:40:2638.582-121.302526994
2017-12-29 23:39:5638.5767-121.312636861
2017-12-29 23:39:2638.5722-121.322636668
2017-12-29 23:38:5638.5675-121.332596582
2017-12-29 23:38:2638.5628-121.342686463
2017-12-29 23:37:5638.5612-121.354826892
2017-12-29 23:37:2638.56-121.366827048
2017-12-29 23:36:5638.5587-121.378826033
2017-12-29 23:36:2638.5575-121.388826110
2017-12-29 23:35:5638.5558-121.399735131
2017-12-29 23:35:2638.5537-121.407384030
2017-12-29 23:34:5638.5503-121.4093542230
2017-12-29 23:34:2638.5475-121.409359027
2017-12-29 23:33:5738.5445-121.4093552734
2017-12-29 23:32:4938.5438-121.40903427
2017-12-29 23:32:1938.5387-121.40903430
2017-12-29 23:31:4238.532-121.4093593925
2017-12-29 23:21:4238.5247-121.4090027
2017-12-29 23:11:4238.5247-121.4090020
2017-12-29 23:01:4338.5245-121.4090025
2017-12-29 22:51:4338.4958-121.4093571425
2017-12-29 22:51:4238.4958-121.4093571425
2017-12-29 22:41:4238.44-121.402340550
2017-12-29 22:39:4438.4075-121.3883327232
2017-12-29 22:39:1438.3983-121.3823336927
2017-12-29 22:38:4438.3903-121.3763226312
2017-12-29 22:38:1338.3837-121.369321620
2017-12-29 22:37:4538.3763-121.3623226813
2017-12-29 22:36:4338.3628-121.3473176044
2017-12-29 22:36:1338.355-121.3423366320
2017-12-29 22:35:4338.347-121.3373356232
2017-12-29 22:35:1338.3388-121.333340636
2017-12-29 22:34:4338.3308-121.33339617
2017-12-29 22:34:1338.3228-121.3263396212
2017-12-29 22:33:4338.3147-121.323342588
2017-12-29 22:33:1338.3075-121.323425514
2017-12-29 22:32:4338.2997-121.3173395416
2017-12-29 22:32:1338.2925-121.313336630
2017-12-29 22:31:4338.2855-121.3093335623
2017-12-29 22:31:1338.2775-121.3053426219
2017-12-29 22:30:4338.27-121.302344563
2017-12-29 22:30:1338.2617-121.2983336526
2017-12-29 22:29:4338.2533-121.293333669
2017-12-29 22:29:1338.2455-121.288333603
2017-12-29 22:28:4338.2378-121.283333630
2017-12-29 22:28:1338.2303-121.2783335611
2017-12-29 22:27:4338.2237-121.2743336031
2017-12-29 22:27:1338.2158-121.2693336430
2017-12-29 22:26:4338.2078-121.2643396941
2017-12-29 22:26:1338.1983-121.2633596813
2017-12-29 22:25:4338.1895-121.2623586212
2017-12-29 22:25:1338.1808-121.2623596115
2017-12-29 22:24:4338.1722-121.2623586219
2017-12-29 22:24:1338.1633-121.2623576917
2017-12-29 22:23:4338.1205-121.2573596124
2017-12-29 22:21:4338.1205-121.2573596124
2017-12-29 22:11:4337.9517-121.2383426110
2017-12-29 22:01:4337.7788-121.185316615
2017-12-29 21:51:4337.6647-121.0293135655
2017-12-29 21:41:4337.5392-120.8943206551
2017-12-29 21:31:4337.4137-120.7563216166
2017-12-29 21:29:5337.3897-120.73529455106
2017-12-29 21:29:2337.3887-120.7252826499
2017-12-29 21:28:5337.3855-120.71528955117
2017-12-29 21:28:2337.3828-120.7093033791
2017-12-29 21:27:5337.3788-120.69929369113
2017-12-29 21:27:2337.3753-120.68827973101
2017-12-29 21:26:5337.3712-120.67730271104
2017-12-29 21:26:2337.3667-120.66529469124
2017-12-29 21:25:5337.363-120.65528362115
2017-12-29 21:25:2337.3597-120.64430672103
2017-12-29 21:24:5337.3553-120.63428863100
2017-12-29 21:24:2337.3517-120.62432459130
2017-12-29 21:23:5337.3462-120.61729463104
2017-12-29 21:23:2337.3425-120.60729460103
2017-12-29 21:22:5337.34-120.59726560118
2017-12-29 21:22:2337.3395-120.58830656105
2017-12-29 21:21:5337.335-120.57929461122
2017-12-29 21:21:2337.3328-120.5728754105
2017-12-29 21:20:5337.3283-120.5612985992
2017-12-29 21:20:2337.325-120.55229460109
2017-12-29 21:19:5337.3213-120.54229461123
2017-12-29 21:19:2337.3178-120.53329460115
2017-12-29 21:18:5337.3145-120.52329454136
2017-12-29 21:18:2337.3117-120.51331362145
2017-12-29 21:17:5337.305-120.50629468143
2017-12-29 21:17:2337.3012-120.49429470139
2017-12-29 21:16:5337.2972-120.48429461138
2017-12-29 21:16:2337.2955-120.47426166148
2017-12-29 21:15:5337.2933-120.46530560146
2017-12-29 21:15:2337.2892-120.45730856136
2017-12-29 21:14:5337.2833-120.45131353135
2017-12-29 21:14:2337.2778-120.44330064140
2017-12-29 21:13:5337.2713-120.43433069140
2017-12-29 21:13:2337.2638-120.42731567144
2017-12-29 21:12:5337.2575-120.41931459150
2017-12-29 21:12:2337.2513-120.41131573161
2017-12-29 21:11:5337.2438-120.40231573178
2017-12-29 21:11:2337.2367-120.39331574164
2017-12-29 21:10:5337.23-120.38330073189
2017-12-29 21:10:2337.2238-120.37332573185
2017-12-29 21:09:5337.2153-120.36632076185
2017-12-29 21:09:2337.2078-120.35631574184
2017-12-29 21:08:5337.2005-120.34731671196
2017-12-29 21:08:2337.1942-120.33930967205
2017-12-29 21:07:5337.1875-120.32931672191
2017-12-29 21:07:2337.18-120.32131672202
2017-12-29 21:06:5337.1728-120.31231772228
2017-12-29 21:06:2337.1647-120.30532068175
2017-12-29 21:05:5337.1575-120.29631973167
2017-12-29 21:05:2337.15-120.28731575182
2017-12-29 21:04:5337.143-120.27829573189
2017-12-29 21:04:2337.1375-120.26831077225
2017-12-29 21:03:5337.1303-120.25731073217
2017-12-29 21:03:2337.1237-120.24831365205
2017-12-29 21:02:5337.1155-120.23730067228
2017-12-29 21:02:2437.1108-120.23131474225
2017-12-29 21:01:5437.1042-120.22331361216
2017-12-29 21:01:2437.0972-120.21533563199
2017-12-29 21:00:5437.088-120.21335063204
2017-12-29 21:00:2437.0813-120.20531662233
2017-12-29 20:59:5437.0753-120.19831564231
2017-12-29 20:59:2437.0683-120.18931575240
2017-12-29 20:58:5437.0608-120.1831076245
2017-12-29 20:58:2437.0542-120.17131553224
2017-12-29 20:57:5437.0487-120.16431650216
2017-12-29 20:57:2437.0425-120.15831765203
2017-12-29 20:56:5437.0362-120.1531363207
2017-12-29 20:56:2437.03-120.14231564214
2017-12-29 20:55:5437.0238-120.13431455213
2017-12-29 20:55:2437.0178-120.12831156210
2017-12-29 20:54:5437.0122-120.1231570232
2017-12-29 20:54:2437.005-120.11131570225
2017-12-29 20:53:5436.9975-120.10332270226
2017-12-29 20:53:3036.9925-120.09631566269
2017-12-29 20:52:3036.9788-120.08131661194
2017-12-29 20:52:2936.9788-120.08131661194
2017-12-29 20:51:3336.9658-120.06932248227
2017-12-29 20:50:3036.9553-120.05831945220
2017-12-29 20:50:2936.9553-120.05831945220
2017-12-29 20:49:3036.9455-120.04432052207
2017-12-29 20:49:2936.9455-120.04432052207
2017-12-29 20:48:3036.9338-120.03132054214
2017-12-29 20:48:2936.9338-120.03132054214
2017-12-29 20:47:2936.9217-120.0230958191
2017-12-29 20:46:3036.9105-120.00732062231
2017-12-29 20:45:2936.8967-119.99332067216
2017-12-29 20:44:3036.8825-119.97933063203
2017-12-29 20:44:2936.8825-119.97933063203
2017-12-29 20:43:3036.8695-119.96532060241
2017-12-29 20:42:2936.8563-119.95132063249
2017-12-29 20:41:2936.8447-119.93630368251
2017-12-29 20:40:3036.833-119.91931464248
2017-12-29 20:39:2936.8203-119.90231467264
2017-12-29 20:38:2936.8078-119.88631065235
2017-12-29 20:37:2936.7955-119.86931065249
2017-12-29 20:36:2936.7833-119.8531868260
2017-12-29 20:35:2936.7683-119.83633365258
2017-12-29 20:34:2936.7522-119.82632959230
2017-12-29 20:33:2936.74-119.81229266230
2017-12-29 20:32:3036.7278-119.79531865207
2017-12-29 20:32:2936.7278-119.79531865207
2017-12-29 20:31:3036.7125-119.7832172269
2017-12-29 20:31:2936.7125-119.7832172269
2017-12-29 20:30:3236.697-119.76431865222
2017-12-29 20:29:2936.6837-119.74831568231
2017-12-29 20:28:3036.6708-119.73331664268
2017-12-29 20:27:3036.6572-119.71731862272
2017-12-29 20:26:3036.643-119.70231864284
2017-12-29 20:25:3036.6295-119.68831553289
2017-12-29 20:18:3036.627-119.68380291
2017-12-29 20:16:3136.627-119.6833180276
2017-12-29 20:16:0036.627-119.6833180276
2017-12-29 20:15:3036.627-119.6831418283
2017-12-29 20:15:0536.6255-119.68332143257
2017-12-29 20:14:3136.6195-119.67631865263
2017-12-29 20:14:0136.6122-119.66931870265
2017-12-29 20:13:3036.6047-119.6631871285
2017-12-29 20:13:0136.597-119.65231873284
2017-12-29 20:12:3036.5895-119.64431874281
2017-12-29 20:12:0036.5817-119.63531875301
2017-12-29 20:11:3036.5738-119.62731771318
2017-12-29 20:11:0136.567-119.61931669304
2017-12-29 20:11:0036.567-119.61931669304
2017-12-29 20:10:3036.5597-119.61131867272
2017-12-29 20:10:0136.5525-119.60331672263
2017-12-29 20:10:0036.5525-119.60331672263
2017-12-29 20:09:3036.5453-119.59431673266
2017-12-29 20:08:3436.5317-119.57831570274
2017-12-29 20:07:3436.5175-119.56131369280
2017-12-29 20:06:3436.5042-119.54530964264
2017-12-29 20:05:3436.4938-119.52530768230
2017-12-29 20:04:3436.4817-119.50732972273
2017-12-29 20:03:3436.4642-119.49533271267
2017-12-29 20:01:5736.4367-119.47833169238
2017-12-29 20:01:2736.4283-119.47233167222
2017-12-29 20:00:5736.42-119.46633171208
2017-12-29 20:00:2936.4113-119.46133171244
2017-12-29 19:59:5736.4025-119.45533170227
2017-12-29 19:59:2736.3938-119.4533263239
2017-12-29 19:58:5736.3863-119.44533262234
2017-12-29 19:58:2736.3783-119.43933268237
2017-12-29 19:57:5736.3695-119.43333175280
2017-12-29 19:57:2736.36-119.42935569256
2017-12-29 19:56:5736.3508-119.42733867239
2017-12-29 19:56:2936.3428-119.42132669242
2017-12-29 19:55:5736.3353-119.41432569246
2017-12-29 19:55:2736.327-119.40832471275
2017-12-29 19:54:5736.32-119.39931065270
2017-12-29 19:54:2736.3122-119.39434570276
2017-12-29 19:53:5736.3033-119.38933168284
2017-12-29 19:53:2736.2953-119.38334167285
2017-12-29 19:52:5736.2867-119.37833167302
2017-12-29 19:52:2736.2783-119.37233268287
2017-12-29 19:51:5736.2703-119.36732865305
2017-12-29 19:51:2736.262-119.36133368298
2017-12-29 19:50:5736.2533-119.35532971299
2017-12-29 19:50:2736.245-119.34932971294
2017-12-29 19:49:5736.2363-119.34232971290
2017-12-29 19:49:2736.228-119.33632967294
2017-12-29 19:48:5836.22-119.33133666277
2017-12-29 19:48:4936.2178-119.3334263268
2017-12-29 19:47:4936.2003-119.328059235
2017-12-29 19:46:1936.1758-119.329961244
2017-12-29 19:45:4936.1672-119.331961236
2017-12-29 19:45:1936.1588-119.332064210
2017-12-29 19:44:4936.1497-119.3334666189
2017-12-29 19:44:1936.1408-119.32834561205
2017-12-29 19:43:4936.1322-119.32635362221
2017-12-29 19:43:1936.1237-119.32535560227
2017-12-29 19:42:4936.1155-119.32435559255
2017-12-29 19:42:1936.1075-119.32335562227
2017-12-29 19:41:4936.0992-119.32335665218
2017-12-29 19:41:1936.0905-119.32134961240
2017-12-29 19:40:4936.0825-119.3234960237
2017-12-29 19:40:1936.0738-119.31734760238
2017-12-29 19:39:4936.0662-119.31433962215
2017-12-29 19:39:1936.0583-119.31234968202
2017-12-29 19:38:4936.0488-119.311367239
2017-12-29 19:38:1936.0392-119.3134970228
2017-12-29 19:37:4936.0297-119.30834972218
2017-12-29 19:37:1936.0195-119.30534974219
2017-12-29 19:36:4836.0095-119.30234273203
2017-12-29 19:36:1935.9992-119.334974224
2017-12-29 19:35:4935.9892-119.29834971224
2017-12-29 19:35:1935.9797-119.29634863236
2017-12-29 19:34:4935.9708-119.29234873220
2017-12-29 19:34:1935.9612-119.291170249
2017-12-29 19:33:4935.9513-119.28934969243
2017-12-29 19:33:1935.942-119.28734973221
2017-12-29 19:32:4935.9325-119.28433669151
2017-12-29 19:32:1935.923-119.282368233
2017-12-29 19:31:4935.9133-119.28134973250
2017-12-29 19:31:1935.9033-119.27834967271
2017-12-29 19:30:4935.8942-119.27533367268
2017-12-29 19:30:1935.885-119.27234868282
2017-12-29 19:29:4935.8763-119.27066248
2017-12-29 19:29:1935.8667-119.2734869286
2017-12-29 19:28:4935.8572-119.26834972292
2017-12-29 19:28:1935.847-119.26534974292
2017-12-29 19:27:4935.8372-119.26134470334
2017-12-29 19:27:1835.8283-119.25934954299
2017-12-29 19:26:4835.8212-119.25835957299
2017-12-29 19:26:1935.8125-119.25734771325
2017-12-29 19:25:4935.8022-119.25534874348
2017-12-29 19:25:1935.7925-119.25232673317
2017-12-29 19:24:4935.783-119.2522368276
2017-12-29 19:24:1935.7737-119.25234972284
2017-12-29 19:23:4935.7638-119.24934869342
2017-12-29 19:23:1935.7542-119.24734172320
2017-12-29 19:22:4935.7447-119.24334069334
2017-12-29 19:22:1935.7347-119.2434974339
2017-12-29 19:21:4935.7247-119.23834877332
2017-12-29 19:21:1935.7147-119.23633874353
2017-12-29 19:20:4935.7045-119.23334871367
2017-12-29 19:20:1935.6942-119.23134977334
2017-12-29 19:19:4935.6838-119.22935375337
2017-12-29 19:19:1935.6737-119.22634672348
2017-12-29 19:18:4935.6637-119.22434974355
2017-12-29 19:18:1935.6533-119.22134772368
2017-12-29 19:17:4935.6433-119.21934075382
2017-12-29 19:17:1935.633-119.21634876389
2017-12-29 19:16:4835.6228-119.21434972397
2017-12-29 19:16:1935.6133-119.21235762401
2017-12-29 19:15:4935.6045-119.21235566410
2017-12-29 19:14:1235.5778-119.20234872434
2017-12-29 19:13:4235.5683-119.234867431
2017-12-29 19:13:1235.5592-119.19734973435
2017-12-29 19:12:4235.5492-119.19634870443
2017-12-29 19:12:1235.5392-119.19434872442
2017-12-29 19:11:4335.5297-119.18934071437
2017-12-29 19:11:4235.5297-119.18934071437
2017-12-29 19:11:1235.5205-119.18533272436
2017-12-29 19:10:4235.512-119.17932373428
2017-12-29 19:09:5135.5-119.16431171449
2017-12-29 19:08:5135.4863-119.14731270395
2017-12-29 19:07:5135.4728-119.12931271355
2017-12-29 19:06:5135.46-119.11231169403
2017-12-29 19:05:5135.447-119.09431269368
2017-12-29 19:04:5135.4412-119.0839037367
2017-12-29 19:03:5135.4408-119.087790407
2017-12-29 19:02:5135.4395-119.092042401
2017-12-29 19:01:5135.427-119.092016364
2017-12-29 19:00:5135.427-119.0959050368
2017-12-29 18:59:5135.427-119.1100404
2017-12-29 18:58:5135.4195-119.113580386
2017-12-29 18:57:5135.4128-119.11028386
2017-12-29 18:56:5135.4113-119.11226382
2017-12-29 18:55:5235.4075-119.1092680385
2017-12-29 18:53:1835.405-119.1073290386
2017-12-29 18:53:0035.405-119.1073290386
2017-12-29 18:52:2935.4047-119.1073575384
2017-12-29 18:51:5035.4047-119.10700384
2017-12-29 18:51:1235.405-119.10700377
2017-12-29 18:41:1135.405-119.10700377
2017-12-29 18:41:1035.405-119.10700377
2017-12-29 18:31:1035.405-119.10700377
2017-12-29 18:21:1035.405-119.10700377
2017-12-29 18:11:1035.405-119.10700377
2017-12-29 18:01:1135.405-119.10700377
2017-12-29 18:01:1035.405-119.10700377
2017-12-29 17:51:1035.405-119.10700377
2017-12-29 17:41:1135.405-119.10700377
2017-12-29 17:31:1135.405-119.10700378
2017-12-29 17:31:1035.405-119.10700378
2017-12-29 17:21:1135.405-119.10700378
2017-12-29 17:21:1035.405-119.10700378
2017-12-29 17:11:1135.405-119.10700378
2017-12-29 17:01:1135.405-119.10700378
2017-12-29 16:51:1035.405-119.10700378
2017-12-29 16:50:1135.405-119.10700378
2017-12-29 16:49:1035.405-119.10700378
2017-12-29 16:48:1035.405-119.10700378
2017-12-29 16:47:1135.405-119.10700378
2017-12-29 16:46:1035.405-119.10700378
2017-12-29 16:45:1035.405-119.10700378
2017-12-29 16:44:1135.405-119.10700378
2017-12-29 16:44:1035.405-119.10700378
2017-12-29 16:43:1135.405-119.10700378
2017-12-29 16:43:1035.405-119.10700378
2017-12-29 16:42:1035.405-119.10700378
2017-12-29 16:41:1035.405-119.10700378
2017-12-29 16:40:1035.405-119.10700378
2017-12-29 16:39:1135.405-119.10700378
2017-12-29 16:38:1035.405-119.10700378
2017-12-29 16:30:1135.405-119.10700378
2017-12-29 16:20:1135.405-119.10700378
2017-12-29 16:10:1135.405-119.10700378
2017-12-29 16:00:1035.405-119.10700378
2017-12-29 15:39:1135.405-119.10700378
2017-12-29 15:29:1135.405-119.10700378
2017-12-29 15:19:1035.405-119.10700378
2017-12-29 15:09:1035.405-119.10700378
2017-12-29 14:59:1135.405-119.10700378
2017-12-29 14:59:1035.405-119.10700378
2017-12-29 14:49:1235.405-119.10700378
2017-12-29 14:39:1135.405-119.10700378
2017-12-29 14:29:1135.405-119.10700378
2017-12-29 14:19:1135.405-119.10700378
2017-12-29 14:09:1135.405-119.10700378
2017-12-29 13:59:1135.405-119.10700378
2017-12-29 13:49:1135.405-119.10700378
2017-12-29 13:39:1135.405-119.10700378
2017-12-29 13:29:1135.405-119.10700378
2017-12-29 13:19:1135.405-119.10700378
2017-12-29 13:09:1135.405-119.10700378
2017-12-29 12:59:1135.405-119.10700378
2017-12-29 12:49:1135.405-119.10700378
2017-12-29 12:39:1135.405-119.10700378
2017-12-29 12:29:1135.405-119.10700378
2017-12-29 12:19:1135.405-119.10700378
2017-12-29 12:18:1135.405-119.10700378
2017-12-29 12:17:1135.405-119.10700378
2017-12-29 12:16:1135.405-119.10700378
2017-12-29 12:15:1135.405-119.10700378
2017-12-29 12:14:1135.405-119.10700378
2017-12-29 12:13:1135.405-119.10700378
2017-12-29 12:12:1135.405-119.10700378
2017-12-29 12:11:1135.405-119.10700378
2017-12-29 12:10:1135.405-119.10700378
2017-12-29 12:09:1135.405-119.10700378
2017-12-29 12:08:1135.405-119.10700378
2017-12-29 12:07:1135.405-119.10700378
2017-12-29 12:06:1135.405-119.10700378
2017-12-29 12:05:1135.405-119.10700378
2017-12-29 12:04:1135.405-119.10700378
2017-12-29 12:03:1135.405-119.10700378
2017-12-29 12:02:1135.405-119.10700378
2017-12-29 12:01:1135.405-119.10700378
2017-12-29 12:01:1035.405-119.10700378
2017-12-29 12:00:1135.405-119.10700378
2017-12-29 11:59:1135.405-119.10700378
2017-12-29 11:57:1135.405-119.10700378
2017-12-29 11:56:1135.405-119.10700378
2017-12-29 11:53:1135.405-119.10700378
2017-12-29 11:43:1135.405-119.10700378
2017-12-29 11:33:1135.405-119.10700378
2017-12-29 11:23:1335.405-119.10700378
2017-12-29 11:23:1135.405-119.10700378
2017-12-29 11:13:1235.405-119.10700378
2017-12-29 11:13:1135.405-119.10700378
2017-12-29 11:12:1135.405-119.10700378
2017-12-29 11:11:1135.405-119.10700378
2017-12-29 11:10:1135.405-119.10700378
2017-12-29 11:09:1135.405-119.10700378
2017-12-29 11:08:1135.405-119.10700378
2017-12-29 11:07:1135.405-119.10700378
2017-12-29 11:06:1135.405-119.10700378
2017-12-29 11:05:1135.405-119.10700378
2017-12-29 11:04:1135.405-119.10700378
2017-12-29 11:03:1035.405-119.10700378
2017-12-29 11:02:1135.405-119.10700378
2017-12-29 11:01:1135.405-119.10700378
2017-12-29 11:00:1135.405-119.10700378
2017-12-29 10:59:1135.405-119.10700378
2017-12-29 10:58:1135.405-119.10700378
2017-12-29 10:57:1135.405-119.10700378
2017-12-29 10:56:1135.405-119.10700378
2017-12-29 10:55:1135.405-119.10700378
2017-12-29 10:54:1135.405-119.10700378
2017-12-29 10:53:1135.405-119.10700378
2017-12-29 10:52:1135.405-119.10700378
2017-12-29 10:42:1135.405-119.10700378
2017-12-29 10:32:1135.405-119.10700378
2017-12-29 10:22:1135.405-119.10700378
2017-12-29 10:12:1135.405-119.10700378
2017-12-29 10:02:1135.405-119.10700378
2017-12-29 09:52:1135.405-119.10700378
2017-12-29 09:42:1135.405-119.10700378
2017-12-29 09:32:1135.405-119.10700378
2017-12-29 09:22:1335.405-119.10700378
2017-12-29 09:22:1135.405-119.10700378
2017-12-29 09:12:1135.405-119.10700378
2017-12-29 09:02:1135.405-119.10700378
2017-12-29 08:52:1135.405-119.10700378
2017-12-29 08:42:1135.405-119.10700378
2017-12-29 08:32:1135.405-119.10700378
2017-12-29 08:22:1135.405-119.10700378
2017-12-29 08:12:1135.405-119.10700378
2017-12-29 08:02:1135.405-119.10700378
2017-12-29 07:52:1135.405-119.10700378
2017-12-29 07:42:1135.405-119.10700378
2017-12-29 07:32:1135.405-119.10700378
2017-12-29 07:22:1135.405-119.10700378
2017-12-29 07:12:1135.405-119.10700378
2017-12-29 07:02:1135.405-119.10700378
2017-12-29 06:52:1135.405-119.10700378
2017-12-29 06:42:1135.405-119.10700378
2017-12-29 06:32:1135.405-119.10700378
2017-12-29 06:22:1135.405-119.10700378
2017-12-29 06:12:1135.405-119.10700378
2017-12-29 06:02:1135.405-119.10700378
2017-12-29 06:01:1135.405-119.10700378
2017-12-29 06:00:1135.405-119.10700378
2017-12-29 05:59:1135.405-119.10700378
2017-12-29 05:58:1135.405-119.10700378
2017-12-29 05:57:1135.405-119.10700378
2017-12-29 05:56:1135.405-119.10700378
2017-12-29 05:55:1135.405-119.10700378
2017-12-29 05:54:1135.405-119.10700378
2017-12-29 05:53:1135.405-119.10700378
2017-12-29 05:52:1135.405-119.10700378
2017-12-29 05:51:1135.405-119.10700378
2017-12-29 05:50:1135.405-119.10700378
2017-12-29 05:49:1135.405-119.10700378
2017-12-29 05:48:1135.405-119.10700378
2017-12-29 05:47:1135.405-119.10700378
2017-12-29 05:46:1135.405-119.10700378
2017-12-29 05:45:1135.405-119.10700378
2017-12-29 05:44:1135.405-119.10700378
2017-12-29 05:43:1135.405-119.10700378
2017-12-29 05:42:1135.405-119.10700378
2017-12-29 05:41:1135.405-119.10700378
2017-12-29 05:40:1135.405-119.10700378
2017-12-29 05:39:1135.405-119.10700378
2017-12-29 05:38:1135.405-119.10700378
2017-12-29 05:37:1135.405-119.10700378
2017-12-29 05:36:1135.405-119.10700378
2017-12-29 05:35:1135.405-119.10700378
2017-12-29 05:34:1135.405-119.10700378
2017-12-29 05:33:1135.405-119.10700378
2017-12-29 05:32:1135.405-119.10700378
2017-12-29 05:31:1135.405-119.10700378
2017-12-29 05:30:1135.405-119.10700378
2017-12-29 05:29:1135.405-119.10700378
2017-12-29 05:28:1135.405-119.10700378
2017-12-29 05:27:1135.405-119.10700378
2017-12-29 05:26:1135.405-119.10700378
2017-12-29 05:25:1235.405-119.10700378
2017-12-29 05:24:1135.405-119.10700378
2017-12-29 05:23:1135.405-119.10700378
2017-12-29 05:22:1135.405-119.10700378
2017-12-29 05:21:1135.405-119.10700378
2017-12-29 05:20:1135.405-119.10700378
2017-12-29 05:19:1135.405-119.10700378
2017-12-29 05:18:1135.405-119.10700378
2017-12-29 05:17:1135.405-119.10700378
2017-12-29 05:16:1135.405-119.10700378
2017-12-29 05:15:1135.405-119.10700378
2017-12-29 05:14:1135.405-119.10700378
2017-12-29 05:13:1135.405-119.10700378
2017-12-29 05:12:1135.405-119.10700378
2017-12-29 05:11:1135.405-119.10700378
2017-12-29 05:10:1135.405-119.10700378
2017-12-29 05:09:1135.405-119.10700378
2017-12-29 05:08:1135.405-119.10700378
2017-12-29 05:07:1135.405-119.10700378
2017-12-29 05:06:1135.405-119.10700378
2017-12-29 05:05:1135.405-119.10700378
2017-12-29 05:04:1135.405-119.10700378
2017-12-29 05:03:1135.405-119.10700378
2017-12-29 05:02:1135.405-119.10700378
2017-12-29 05:01:1135.405-119.10700378
2017-12-29 05:00:1235.405-119.10700378
2017-12-29 05:00:1135.405-119.10700378
2017-12-29 04:59:1135.405-119.10700378
2017-12-29 04:58:1135.405-119.10700378
2017-12-29 04:57:1135.405-119.10700378
2017-12-29 04:56:1135.405-119.10700378
2017-12-29 04:55:1135.405-119.10700378
2017-12-29 04:54:1135.405-119.10700378
2017-12-29 04:53:1135.405-119.10700378
2017-12-29 04:52:1135.405-119.10700378
2017-12-29 04:51:1135.405-119.10700378
2017-12-29 04:50:1135.405-119.10700378
2017-12-29 04:49:1135.405-119.10700378
2017-12-29 04:48:1135.405-119.10700378
2017-12-29 04:47:1135.405-119.10700378
2017-12-29 04:46:1135.405-119.10700378
2017-12-29 04:45:1135.405-119.10700378
2017-12-29 04:44:1135.405-119.10700378
2017-12-29 04:43:1135.405-119.10700378
2017-12-29 04:42:1135.405-119.10700378
2017-12-29 04:41:1135.405-119.10700378
2017-12-29 04:40:1235.405-119.10700378
2017-12-29 04:40:1135.405-119.10700378
2017-12-29 04:39:1135.405-119.10700378
2017-12-29 04:38:1135.405-119.10700378
2017-12-29 04:37:1135.405-119.10700378
2017-12-29 04:36:1135.405-119.10700378
2017-12-29 04:35:1135.405-119.10700378
2017-12-29 04:34:1135.405-119.10700378
2017-12-29 04:33:1135.405-119.10700378
2017-12-29 04:32:1135.405-119.10700378
2017-12-29 04:31:1135.405-119.10700378
2017-12-29 04:30:1135.405-119.10700378
2017-12-29 04:29:1135.405-119.10700378
2017-12-29 04:28:1135.405-119.10700378
2017-12-29 04:27:1235.405-119.10700378
2017-12-29 04:26:1135.405-119.10700378
2017-12-29 04:16:1135.405-119.10700378
2017-12-29 04:06:1135.405-119.10700378
2017-12-29 03:56:1135.405-119.10700378
2017-12-29 03:46:1135.405-119.10700378
2017-12-29 03:36:1135.405-119.10700378
2017-12-29 03:26:1135.405-119.10700378
2017-12-29 03:16:1135.405-119.10700378
2017-12-29 03:06:1235.405-119.10700378
2017-12-29 03:06:1135.405-119.10700378
2017-12-29 03:05:1235.405-119.10700378
2017-12-29 03:05:1135.405-119.10700378
2017-12-29 03:04:1235.405-119.10700378
2017-12-29 03:04:1135.405-119.10700378
2017-12-29 03:03:1235.405-119.10700378
2017-12-29 02:56:1135.405-119.10700378
2017-12-29 02:46:1135.405-119.10700377
2017-12-29 02:36:1135.405-119.10700377
2017-12-29 02:26:1135.405-119.10700377
2017-12-29 02:16:1135.405-119.10700377
2017-12-29 02:06:1135.405-119.10700377
2017-12-29 01:56:1135.405-119.10700377
2017-12-29 01:46:1135.405-119.10700377
2017-12-29 01:36:1135.405-119.10700378
2017-12-29 01:26:1135.405-119.10700378
2017-12-29 01:16:1135.3983-119.111800377
2017-12-29 01:06:1135.3983-119.111800377
2017-12-29 01:05:1135.3983-119.111800377
2017-12-29 01:03:2535.3988-119.1117940375
2017-12-29 01:02:5535.4047-119.1118038380
2017-12-29 01:02:2535.4092-119.1104386
2017-12-29 00:47:0335.4058-119.10716021386
2017-12-29 00:47:0235.4058-119.10716021386
2017-12-29 00:46:0335.4063-119.1135945383
2017-12-29 00:45:0335.3937-119.1135942378
2017-12-29 00:44:0335.383-119.1135735371
2017-12-29 00:43:0335.3728-119.113595371
2017-12-29 00:42:0335.3645-119.1153343365
2017-12-29 00:41:0335.3547-119.11534439368
2017-12-29 00:40:0335.3487-119.1143591361
2017-12-29 00:39:0235.3438-119.114325361
2017-12-29 00:38:0335.3397-119.1127025361
2017-12-29 00:37:0335.3403-119.1092924361
2017-12-29 00:36:0335.3405-119.111119359
2017-12-29 00:35:0335.3442-119.1149719361
2017-12-29 00:34:0335.3447-119.1141790361
2017-12-29 00:33:0335.3508-119.11518039364
2017-12-29 00:32:0335.3575-119.11617545368
2017-12-29 00:31:0335.368-119.11121438370
2017-12-29 00:30:0435.3792-119.1119038368
2017-12-29 00:30:0335.3792-119.1119038368
2017-12-29 00:29:0335.3863-119.111800374
2017-12-29 00:28:0335.3888-119.111030371
2017-12-29 00:25:3835.3887-119.114910366
2017-12-29 00:24:3835.3887-119.114910366
2017-12-29 00:23:3835.3887-119.114910366
2017-12-29 00:22:3835.3887-119.114910366
2017-12-29 00:21:3835.3887-119.114910366
2017-12-29 00:20:3835.3887-119.114910366
2017-12-29 00:19:3835.3887-119.114910366
2017-12-29 00:19:0835.3892-119.11327024370
2017-12-29 00:18:3835.3892-119.112710371
2017-12-29 00:18:0835.3897-119.1118034374
2017-12-29 00:17:3835.3905-119.111780376
2017-12-29 00:17:0835.3953-119.1118049378
2017-12-29 00:16:3835.398-119.111800378
2017-12-29 00:16:0835.398-119.111803377
2017-12-29 00:15:3835.4012-119.1117937373
2017-12-29 00:15:0835.4053-119.111810382
2017-12-29 00:14:3835.4092-119.113593386
2017-12-29 00:14:0835.4075-119.1092689386
2017-12-29 00:04:5735.405-119.10700385
2017-12-28 23:54:5735.4047-119.1072931385
2017-12-28 23:44:5735.405-119.1073270381
2017-12-28 23:34:3835.4047-119.1073270360
2017-12-28 23:32:2435.4075-119.1112411337
2017-12-28 23:31:5535.41-119.1118020344
2017-12-28 23:31:5435.41-119.1118020344
2017-12-28 23:30:3335.4128-119.10726134376
2017-12-28 23:30:0335.4138-119.10127131383
2017-12-28 23:29:3335.4133-119.09729345402
2017-12-28 23:29:0335.4122-119.0927039393
2017-12-28 23:28:3335.4122-119.08427032371
2017-12-28 23:28:0335.4122-119.0822706386
2017-12-28 23:26:3535.4122-119.0732703370
2017-12-28 23:26:0535.4122-119.06827039378
2017-12-28 23:25:3535.4122-119.06126938387
2017-12-28 23:25:0535.4122-119.0582690402
2017-12-28 23:24:3535.4122-119.05826919420
2017-12-28 23:24:3435.4122-119.05826919420
2017-12-28 23:24:0535.413-119.05313624403
2017-12-28 23:23:3535.4108-119.05331743409
2017-12-28 23:23:0535.4058-119.04731956390
2017-12-28 23:22:3535.3975-119.04535866401
2017-12-28 23:22:0535.388-119.04435965404
2017-12-28 23:21:3535.3795-119.04435959400
2017-12-28 23:21:3435.3795-119.04435959400
2017-12-28 23:21:0535.3712-119.04334061385
2017-12-28 23:20:3535.3628-119.03934966336
2017-12-28 23:20:0535.3538-119.039065328
2017-12-28 23:19:3535.3453-119.039064344
2017-12-28 23:19:0535.3358-119.039066344
2017-12-28 23:18:5435.333-119.039067338
2017-12-28 23:17:5435.3137-119.03534768371
2017-12-28 23:16:5935.2892-119.02934770334
2017-12-28 23:15:5435.2747-119.02534773325
2017-12-28 23:14:5435.2558-119.0234758293
2017-12-28 23:13:5435.2388-119.01534865289
2017-12-28 23:12:5435.2208-119.01235265281
2017-12-28 23:11:5435.2028-119.00935263268
2017-12-28 23:10:5735.1837-119.00635273257
2017-12-28 23:09:5535.1642-119.00134567243
2017-12-28 23:08:5435.1453-118.99534571253
2017-12-28 23:07:5635.1263-118.9934574276
2017-12-28 23:06:5435.107-118.98334572363
2017-12-28 23:05:5535.088-118.97734573429
2017-12-28 23:04:5835.0688-118.97134569533
2017-12-28 23:02:5835.0297-118.95934573771
2017-12-28 23:02:1634.9995-118.949345691007
2017-12-28 23:00:5734.99-118.946345701087
2017-12-28 23:00:1634.9805-118.943345701168
2017-12-28 23:00:0134.9713-118.94345701261
2017-12-28 22:59:2134.9617-118.937345701355
2017-12-28 22:58:4834.9525-118.935345641451
2017-12-28 22:58:1434.9438-118.932345651528
2017-12-28 22:57:0434.9187-118.9242422117
2017-12-28 22:55:5734.9112-118.9235582288
2017-12-28 22:55:5334.9038-118.923351482430
2017-12-28 22:54:4434.8963-118.92318622605
2017-12-28 22:54:1434.8913-118.913309492733
2017-12-28 22:53:4434.8875-118.906300452882
2017-12-28 22:53:1434.8847-118.901320572974
2017-12-28 22:52:4434.878-118.896311563122
2017-12-28 22:52:1434.8725-118.89320523192
2017-12-28 22:51:4434.8672-118.884319483244
2017-12-28 22:51:1434.8608-118.878328693336
2017-12-28 22:50:4434.8522-118.872329713403
2017-12-28 22:50:1434.8438-118.866328713503
2017-12-28 22:49:4434.835-118.86436713547
2017-12-28 22:49:1434.828-118.87139653649
2017-12-28 22:48:4434.8208-118.87840663779
2017-12-28 22:48:1434.8125-118.8841683956
2017-12-28 22:47:4434.8053-118.88316634148
2017-12-28 22:47:1834.7988-118.872313634079
2017-12-28 22:46:4434.7963-118.863278693940
2017-12-28 22:46:1434.795-118.851279633842
2017-12-28 22:45:4434.7937-118.84276723677
2017-12-28 22:45:1434.788-118.829312763582
2017-12-28 22:44:4534.7817-118.819305723495
2017-12-28 22:44:4434.7817-118.819305723495
2017-12-28 22:44:1434.7758-118.809309753364
2017-12-28 22:43:4434.7683-118.801328683314
2017-12-28 22:43:2034.7597-118.796347653261
2017-12-28 22:42:4634.7513-118.795358653112
2017-12-28 22:41:2434.725-118.799358572978
2017-12-28 22:40:5334.7175-118.798356602922
2017-12-28 22:40:1634.7083-118.796339662880
2017-12-28 22:39:5734.7-118.793346642803
2017-12-28 22:39:1434.6913-118.788335692795
2017-12-28 22:38:4434.6833-118.782324692811
2017-12-28 22:38:1534.6755-118.776311642820
2017-12-28 22:38:0334.6713-118.766313702726
2017-12-28 22:37:1434.6637-118.76307682706
2017-12-28 22:36:4434.6555-118.7551702811
2017-12-28 22:35:5134.5353-118.653314121773
2017-12-28 22:35:5034.6383-118.746302672909
2017-12-28 22:35:1834.6347-118.735272632793
2017-12-28 22:34:4634.6305-118.726327642788
2017-12-28 22:34:1334.625-118.72322562716
2017-12-28 22:33:4334.6175-118.715335622713
2017-12-28 22:33:1334.6095-118.712358632782
2017-12-28 22:32:4334.6013-118.711355612813
2017-12-28 22:32:1334.592-118.7120712819
2017-12-28 22:31:4334.5837-118.708310592811
2017-12-28 22:31:1334.5778-118.701325672679
2017-12-28 22:30:4334.5728-118.692294612512
2017-12-28 22:30:1434.5667-118.686338562500
2017-12-28 22:30:1334.5667-118.686338562500
2017-12-28 22:29:4334.5608-118.68308532459
2017-12-28 22:29:1334.5567-118.673326482358
2017-12-28 22:28:4334.5508-118.67329452212
2017-12-28 22:28:1334.5463-118.665307462098
2017-12-28 22:27:4334.5428-118.661323222018
2017-12-28 22:27:1334.5405-118.659327191944
2017-12-28 22:26:4334.5392-118.657311251910
2017-12-28 22:26:1334.5375-118.656330241868
2017-12-28 22:25:1434.53-118.65338561643
2017-12-28 22:24:4434.5225-118.646336551467
2017-12-28 22:24:1434.5162-118.639328711313
2017-12-28 22:24:1334.5162-118.639328711313
2017-12-28 22:23:4434.5078-118.632327661241
2017-12-28 22:23:1434.4997-118.626340651197
2017-12-28 22:23:1334.4997-118.626340651197
2017-12-28 22:22:4434.492-118.62328691157
2017-12-28 22:22:1434.4837-118.615342631091
2017-12-28 22:22:1334.4837-118.615342631091
2017-12-28 22:21:4434.4745-118.61510671057
2017-12-28 22:21:4334.4745-118.61510671057
2017-12-28 22:21:1434.4653-118.616341631061
2017-12-28 22:20:4434.4567-118.6163621035
2017-12-28 22:20:4334.4567-118.6163621035
2017-12-28 22:20:1434.4483-118.612327681000
2017-12-28 22:20:1334.4483-118.612327681000
2017-12-28 22:19:4434.4425-118.604302611009
2017-12-28 22:19:4334.4425-118.604302611009
2017-12-28 22:19:1434.4372-118.595315681022
2017-12-28 22:19:1334.4372-118.595315681022
2017-12-28 22:18:4434.4317-118.589315451053
2017-12-28 22:18:1434.427-118.585336351077
2017-12-28 22:17:4434.4228-118.583337381086
2017-12-28 22:17:1434.418-118.58336251104
2017-12-28 22:17:1334.418-118.58336251104
2017-12-28 22:16:4434.415-118.579340381144
2017-12-28 22:16:4334.415-118.579340381144
2017-12-28 22:16:1434.4095-118.577339381178
2017-12-28 22:16:1334.4095-118.577339381178
2017-12-28 22:15:4434.4058-118.57534461218
2017-12-28 22:15:4334.4058-118.57534461218
2017-12-28 22:15:1434.4037-118.574339321242
2017-12-28 22:15:1334.4037-118.574339321242
2017-12-28 22:14:4434.3997-118.572347541327
2017-12-28 22:14:1434.3925-118.571349401357
2017-12-28 22:14:1334.3925-118.571349401357
2017-12-28 22:13:4434.3875-118.57341221313
2017-12-28 22:13:1434.3845-118.568341341304
2017-12-28 22:13:1334.3845-118.568341341304
2017-12-28 22:12:4434.3808-118.566336261325
2017-12-28 22:12:4334.3808-118.566336261325
2017-12-28 22:12:1434.377-118.564333381284
2017-12-28 22:11:4434.3713-118.561334571295
2017-12-28 22:11:4334.3713-118.561334571295
2017-12-28 22:11:1434.3642-118.555342591337
2017-12-28 22:11:1334.3642-118.555342591337
2017-12-28 22:10:4434.357-118.552319521430
2017-12-28 22:10:4334.357-118.552319521430
2017-12-28 22:10:1434.3517-118.546300471491
2017-12-28 22:10:1334.3517-118.546300471491
2017-12-28 22:09:4434.3495-118.54294441573
2017-12-28 22:09:4334.3495-118.54294441573
2017-12-28 22:09:1434.3467-118.534307591669
2017-12-28 22:09:1334.3467-118.534307591669
2017-12-28 22:08:4434.342-118.527291451772
2017-12-28 22:08:4334.342-118.527291451772
2017-12-28 22:08:1434.3408-118.521284281716
2017-12-28 22:08:1334.3408-118.521284281716
2017-12-28 22:07:4434.3388-118.516300271621
2017-12-28 22:07:4334.3388-118.516300271621
2017-12-28 22:07:1434.3372-118.513301221580
2017-12-28 22:07:1334.3372-118.513301221580
2017-12-28 22:06:4434.3353-118.51308241537
2017-12-28 22:06:4334.3353-118.51308241537
2017-12-28 22:06:1434.3337-118.50832451519
2017-12-28 22:06:1334.3337-118.50832451519
2017-12-28 22:05:4434.3325-118.507335111520
2017-12-28 22:05:4334.3325-118.507335111520
2017-12-28 22:05:1434.3312-118.50634751475
2017-12-28 22:05:1334.3312-118.50634751475
2017-12-28 22:04:4434.33-118.506336101449
2017-12-28 22:04:4334.33-118.506336101449
2017-12-28 22:04:1434.3287-118.505337101427
2017-12-28 22:04:1334.3287-118.505337101427
2017-12-28 22:03:4434.3272-118.505338131403
2017-12-28 22:03:1434.3262-118.50432541378
2017-12-28 22:03:1334.3262-118.50432541378
2017-12-28 22:02:4434.325-118.50331661357
2017-12-28 22:02:4334.325-118.50331661357
2017-12-28 22:02:1434.3245-118.502313121352
2017-12-28 22:01:4334.3237-118.50130601340
2017-12-28 22:01:1434.3228-118.499304121328
2017-12-28 22:00:4434.3222-118.498305121315
2017-12-28 22:00:1434.3217-118.49730411306
2017-12-28 22:00:1334.3217-118.49730411306
2017-12-28 21:59:4434.3205-118.495305231289
2017-12-28 21:59:1434.3197-118.49430981285
2017-12-28 21:58:4434.3175-118.491324331288
2017-12-28 21:58:4334.3175-118.491324331288
2017-12-28 21:58:1434.3142-118.489328231271
2017-12-28 21:58:1334.3142-118.489328231271
2017-12-28 21:57:4434.3113-118.487330211249
2017-12-28 21:57:1434.3088-118.485322301212
2017-12-28 21:56:4434.3037-118.48321581167
2017-12-28 21:56:1434.2978-118.474320551131
2017-12-28 21:55:4434.2917-118.468320601144
2017-12-28 21:55:1434.2862-118.461305561083
2017-12-28 21:54:4434.2795-118.455329581024
2017-12-28 21:54:4334.2795-118.455329581024
2017-12-28 21:54:1434.2728-118.449329621004
2017-12-28 21:54:1334.2728-118.449329621004
2017-12-28 21:53:4434.2663-118.44332962978
2017-12-28 21:53:1434.2592-118.43831860955
2017-12-28 21:53:1334.2592-118.43831860955
2017-12-28 21:52:4434.2525-118.4331766941
2017-12-28 21:52:1434.2453-118.42331970907
2017-12-28 21:51:4434.2383-118.41531961851
2017-12-28 21:51:4334.2383-118.41531961851
2017-12-28 21:51:1434.2322-118.40829158864
2017-12-28 21:51:1334.2322-118.40829158864
2017-12-28 21:50:4434.2305-118.39728671805
2017-12-28 21:50:1434.2267-118.38828174804
2017-12-28 21:50:1334.2267-118.38828174804
2017-12-28 21:49:4434.2263-118.37629460786
2017-12-28 21:49:1434.222-118.36827359797
2017-12-28 21:48:4434.2205-118.35731268760
2017-12-28 21:48:4334.2205-118.35731268760
2017-12-28 21:48:1434.2147-118.35131430736
2017-12-28 21:48:1334.2147-118.35131430736
2017-12-28 21:47:4434.2122-118.34800703
2017-12-28 21:47:1434.2105-118.348228732
2017-12-28 21:46:4434.2063-118.348239681
2017-12-28 21:46:4334.2063-118.348239681
2017-12-28 21:46:1434.2025-118.34920676
2017-12-28 21:46:1334.2025-118.34920676
2017-12-28 21:45:4434.1997-118.349028683
2017-12-28 21:45:4334.1997-118.349028683
2017-12-28 21:45:1434.1992-118.35860687
2017-12-28 21:45:1334.1992-118.35860687
2017-12-28 21:45:0834.1992-118.35860687
2017-12-28 21:44:0934.1992-118.3500675
2017-12-28 21:33:4034.1958-118.35400746
2017-12-28 21:21:1534.1972-118.3548941651
2017-12-28 21:20:4634.1975-118.37291145951
2017-12-28 21:19:2234.1987-118.446891452200
2017-12-28 21:06:1134.147-117.982792978964
2017-12-28 21:05:5334.1397-117.9312802919823
2017-12-28 21:05:0634.1325-117.88328029110272
2017-12-28 21:05:0534.1325-117.88328029110272
2017-12-28 21:04:3734.125-117.83528028910352
2017-12-28 17:19:4732.8458-96.848700473
2017-12-28 12:22:2032.8255-96.811726610492
2017-12-28 12:21:5032.8258-96.808823615506
2017-12-28 12:21:2032.825-96.806729228502
2017-12-28 12:20:5032.8233-96.802531016495
2017-12-28 12:20:2032.8217-96.8022029495
2017-12-28 12:19:5032.8172-96.8022129485
2017-12-28 12:19:2032.8145-96.80223240471
2017-12-28 12:18:5032.8128-96.800532124446
2017-12-28 12:18:2032.8097-96.796731427493
2017-12-28 12:17:5032.808-96.795331422492
2017-12-28 12:17:2032.807-96.7933590490
2017-12-28 12:16:5032.8062-96.7928542481
2017-12-28 12:15:3832.788-96.791735752478
2017-12-28 12:15:0932.7828-96.787529757467
2017-12-28 12:14:3832.778-96.781232446448
2017-12-28 12:14:0832.7728-96.778164467
2017-12-28 12:13:3832.7638-96.775534267437
2017-12-28 12:13:0832.7553-96.771334369428
2017-12-28 12:12:3832.7467-96.768734555399
2017-12-28 12:12:0832.7387-96.766234559383
2017-12-28 12:11:3832.7308-96.763834558389
2017-12-28 12:11:0832.7225-96.761233664417
2017-12-28 12:10:3832.7142-96.75733662428
2017-12-28 12:10:0832.7055-96.754234664413
2017-12-28 12:09:3832.6972-96.751334264407
2017-12-28 12:09:0832.6887-96.748334162407
2017-12-28 12:08:3832.6808-96.743332267407
2017-12-28 12:08:0832.6737-96.736732166431
2017-12-28 12:07:3832.6662-96.730332462469
2017-12-28 12:07:0832.6595-96.723830763453
2017-12-28 12:06:3832.6553-96.715530158452
2017-12-28 12:06:0832.6497-96.707833558439
2017-12-28 12:05:3832.642-96.703833763465
2017-12-28 12:05:0832.6338-96.733762480
2017-12-28 12:04:3832.6255-96.695833767465
2017-12-28 12:04:0832.617-96.691733868457
2017-12-28 12:03:3832.608-96.687833867460
2017-12-28 12:03:0832.5992-96.683333568444
2017-12-28 12:02:3832.5908-96.678733568458
2017-12-28 12:02:0832.582-96.674533768458
2017-12-28 12:01:3932.567-96.667233868454
2017-12-28 12:01:0132.5622-96.66534368411
2017-12-28 12:00:3132.5537-96.661734267411
2017-12-28 12:00:0132.5445-96.658735267459
2017-12-28 11:59:3132.5353-96.6588166470
2017-12-28 11:59:0132.5258-96.65951466459
2017-12-28 11:58:3132.517-96.66281167423
2017-12-28 11:58:0132.5075-96.6633267401
2017-12-28 11:57:3132.4983-96.6637167462
2017-12-28 11:57:0132.4888-96.6638165467
2017-12-28 11:56:3132.48-96.66334065452
2017-12-28 11:56:0132.4712-96.6605265414
2017-12-28 11:55:3132.4622-96.6622865407
2017-12-28 11:55:0132.453-96.6637864407
2017-12-28 11:54:3132.4442-96.664234465441
2017-12-28 11:54:0132.4355-96.660834165449
2017-12-28 11:53:3132.4267-96.65835864445
2017-12-28 11:53:0132.4178-96.6597565415
2017-12-28 11:52:3132.4088-96.65834365404
2017-12-28 11:52:0132.4003-96.654734165431
2017-12-28 11:51:3132.3913-96.651734365464
2017-12-28 11:51:0132.3828-96.648734265526
2017-12-28 11:50:3132.3745-96.644532465528
2017-12-28 11:50:0132.367-96.638332365509
2017-12-28 11:49:3132.3597-96.63232365513
2017-12-28 11:49:0132.352-96.626333365528
2017-12-28 11:48:3132.3437-96.621333267515
2017-12-28 11:48:0132.3355-96.616332867499
2017-12-28 11:47:3132.3275-96.610532867499
2017-12-28 11:47:0132.3195-96.60532467492
2017-12-28 11:46:3132.312-96.598331667485
2017-12-28 11:46:0132.307-96.589229866487
2017-12-28 11:45:3232.302-96.578729867445
2017-12-28 11:45:0232.298-96.570329867454
2017-12-28 11:44:3232.2937-96.560529865461
2017-12-28 11:44:0232.2895-96.551229766460
2017-12-28 11:43:3232.285-96.541730065445
2017-12-28 11:43:0232.2805-96.532229865440
2017-12-28 11:42:3232.2763-96.522829864456
2017-12-28 11:42:0232.272-96.513730665468
2017-12-28 11:41:3232.2645-96.507233565487
2017-12-28 11:41:0232.2563-96.502833564470
2017-12-28 11:40:3232.248-96.498333164440
2017-12-28 11:40:0232.24-96.493833764436
2017-12-28 11:39:3232.2317-96.489733864454
2017-12-28 11:39:0232.2237-96.485533963463
2017-12-28 11:38:3232.215-96.481333767441
2017-12-28 11:38:0232.2063-96.47733767414
2017-12-28 11:37:3232.1975-96.473335367381
2017-12-28 11:37:0232.188-96.472235361360
2017-12-28 11:36:3232.1822-96.471235329381
2017-12-28 11:36:0232.1808-96.471202413
2017-12-28 11:35:3232.1808-96.47123583393
2017-12-28 11:35:0232.1795-96.470835330387
2017-12-28 11:34:3232.1747-96.470535626367
2017-12-28 11:34:0232.1675-96.469535366378
2017-12-28 11:33:3232.1583-96.468335466398
2017-12-28 11:33:0232.1495-96.465833065410
2017-12-28 11:32:3232.1417-96.460832964425
2017-12-28 11:32:0232.1337-96.455833064445
2017-12-28 11:31:3232.1258-96.450533065421
2017-12-28 11:31:0232.1178-96.445534064418
2017-12-28 11:30:3232.1092-96.443334964399
2017-12-28 11:30:0232.1003-96.441234964390
2017-12-28 11:29:3232.0913-96.439234964378
2017-12-28 11:29:0232.0825-96.43951764392
2017-12-28 11:28:3232.0747-96.44473565413
2017-12-28 11:28:0232.0672-96.45082364409
2017-12-28 11:27:3232.0583-96.451234665413
2017-12-28 11:27:0232.0497-96.448834665396
2017-12-28 11:26:3232.0408-96.446334664433
2017-12-28 11:26:0232.0322-96.443334265440
2017-12-28 11:25:3232.0237-96.4434165415
2017-12-28 11:25:0232.015-96.436334067429
2017-12-28 11:24:3232.0062-96.432834067430
2017-12-28 11:24:0231.9972-96.428834067430
2017-12-28 11:23:3231.9883-96.425334067412
2017-12-28 11:23:0231.9792-96.42335267393
2017-12-28 11:22:3231.9703-96.42234863361
2017-12-28 11:22:0231.9612-96.42068356
2017-12-28 11:21:3231.9517-96.42121068312
2017-12-28 11:21:0231.9422-96.42331167309
2017-12-28 11:20:3231.933-96.424733968339
2017-12-28 11:20:0231.9267-96.416730767341
2017-12-28 11:19:3231.92-96.408730568316
2017-12-28 11:19:0231.9145-96.399730568334
2017-12-28 11:18:3231.9088-96.390530568339
2017-12-28 11:18:0231.9037-96.381330268369
2017-12-28 11:17:3231.8987-96.37230269347
2017-12-28 11:17:0231.8937-96.362530268361
2017-12-28 11:16:3231.888-96.35331869379
2017-12-28 11:16:0231.8812-96.346332065382
2017-12-28 11:15:3231.8742-96.3432067360
2017-12-28 11:15:0231.8683-96.331729268358
2017-12-28 11:14:3231.8645-96.321329367369
2017-12-28 11:14:0231.8608-96.311330368348
2017-12-28 11:13:3231.8538-96.303832168341
2017-12-28 11:13:0231.8463-96.29732068314
2017-12-28 11:12:3231.8392-96.289732068347
2017-12-28 11:12:0231.8313-96.283733568358
2017-12-28 11:11:3231.8228-96.279233567347
2017-12-28 11:11:0231.8147-96.273331568329
2017-12-28 11:10:3231.808-96.265830751324
2017-12-28 11:10:0231.8062-96.262234518343
2017-12-28 11:09:3231.8053-96.2623590348
2017-12-28 11:09:0231.8053-96.2623410358
2017-12-28 11:08:3231.8053-96.2623440363
2017-12-28 11:08:0231.8053-96.2623400351
2017-12-28 11:07:3231.8037-96.260832349341
2017-12-28 11:07:0231.797-96.253731668344
2017-12-28 11:06:3231.79-96.245831568360
2017-12-28 11:06:0231.7838-96.237530869402
2017-12-28 11:05:3231.7778-96.228731368425
2017-12-28 11:05:0231.7712-96.220831569433
2017-12-28 11:04:3231.7642-96.21331668425
2017-12-28 11:04:0231.757-96.205532068403
2017-12-28 11:03:3231.7495-96.198732169393
2017-12-28 11:03:0231.742-96.191332068410
2017-12-28 11:02:3231.7345-96.184532066417
2017-12-28 11:02:0231.7263-96.1834563438
2017-12-28 11:01:3231.7187-96.177533950458
2017-12-28 11:01:0231.7162-96.17533290482
2017-12-28 11:00:3231.712-96.175335058454
2017-12-28 11:00:0231.7028-96.172533868474
2017-12-28 10:59:3231.6942-96.168333868458
2017-12-28 10:59:0231.685-96.165335267433
2017-12-28 10:58:3231.6758-96.163835267409
2017-12-28 10:58:0231.6663-96.162235267385
2017-12-28 10:57:3231.657-96.160835267323
2017-12-28 10:57:0231.6478-96.159235167330
2017-12-28 10:56:3231.6383-96.15835667361
2017-12-28 10:56:0231.6288-96.157535667354
2017-12-28 10:55:3231.6195-96.156735667383
2017-12-28 10:55:0231.61-96.156235767411
2017-12-28 10:54:3231.6008-96.15534467466
2017-12-28 10:54:0231.5917-96.15234467449
2017-12-28 10:53:3231.5828-96.148833967435
2017-12-28 10:53:0231.5745-96.143733068410
2017-12-28 10:52:3231.5662-96.138333067415
2017-12-28 10:52:0231.558-96.132833167414
2017-12-28 10:51:3231.5497-96.127833567422
2017-12-28 10:51:0231.5412-96.12333267431
2017-12-28 10:50:3231.5328-96.117833067465
2017-12-28 10:50:0231.5247-96.112233067399
2017-12-28 10:49:3331.5158-96.106333067361
2017-12-28 10:49:1231.5112-96.103333067339
2017-12-28 10:48:4231.503-96.09833658310
2017-12-28 10:48:1231.4947-96.095334468303
2017-12-28 10:47:4231.4855-96.092534468297
2017-12-28 10:47:1231.4763-96.089534467350
2017-12-28 10:46:4231.4672-96.086334468384
2017-12-28 10:46:1231.4587-96.082532468380
2017-12-28 10:45:4231.4508-96.075832168390
2017-12-28 10:45:1231.4433-96.069232168384
2017-12-28 10:44:4231.4358-96.062232268363
2017-12-28 10:44:1231.4283-96.055532268343
2017-12-28 10:43:4231.4208-96.048732468347
2017-12-28 10:43:1231.4128-96.04333068338
2017-12-28 10:42:4231.4045-96.037533068362
2017-12-28 10:42:1231.3962-96.032233068357
2017-12-28 10:41:4231.388-96.026733068378
2017-12-28 10:41:1231.3797-96.021333768374
2017-12-28 10:40:4231.3703-96.018734667383
2017-12-28 10:40:1231.3612-96.016234668403
2017-12-28 10:39:4231.352-96.013734668391
2017-12-28 10:39:1231.3428-96.011234668381
2017-12-28 10:38:4331.3325-96.008334668387
2017-12-28 10:38:2431.3278-96.00734668357
2017-12-28 10:37:5431.3187-96.004534668351
2017-12-28 10:37:2431.3095-96.00234668313
2017-12-28 10:36:5431.3-95.999534768348
2017-12-28 10:36:2431.2912-95.996233568356
2017-12-28 10:35:5431.2822-95.991733668327
2017-12-28 10:35:2431.2737-95.987534567345
2017-12-28 10:34:5431.2645-95.9872467353
2017-12-28 10:34:2431.255-95.988467352
2017-12-28 10:33:5431.2458-95.98971967325
2017-12-28 10:33:2431.237-95.99281267331
2017-12-28 10:32:5431.2275-95.9947667382
2017-12-28 10:32:2431.2183-95.9958567381
2017-12-28 10:31:5431.2088-95.996334967349
2017-12-28 10:31:2431.1997-95.994234966294
2017-12-28 10:30:5431.1905-95.992234867287
2017-12-28 10:30:2531.1787-95.989534967297
2017-12-28 10:29:5231.1713-95.987834967340
2017-12-28 10:29:2231.1622-95.985834867372
2017-12-28 10:28:5231.153-95.983734967327
2017-12-28 10:28:2231.1438-95.981334666315
2017-12-28 10:27:5231.1347-95.978834667288
2017-12-28 10:27:2231.1258-95.976333866349
2017-12-28 10:26:5231.1172-95.972533266311
2017-12-28 10:26:2231.1088-95.967533266307
2017-12-28 10:25:5231.1003-95.963734366311
2017-12-28 10:25:2231.0913-95.960334366309
2017-12-28 10:24:5231.0828-95.957534366327
2017-12-28 10:24:2231.0738-95.954534366358
2017-12-28 10:23:5231.065-95.951334366350
2017-12-28 10:23:2231.0562-95.948334366346
2017-12-28 10:22:5231.0472-95.945334367319
2017-12-28 10:22:2231.0388-95.940832766327
2017-12-28 10:21:5331.0308-95.93532766302
2017-12-28 10:21:5231.0308-95.93532766302
2017-12-28 10:21:2231.023-95.929232766317
2017-12-28 10:20:5231.0153-95.923732765326
2017-12-28 10:20:2231.0075-95.917832766315
2017-12-28 10:19:5330.9988-95.911332765306
2017-12-28 10:19:4230.9975-95.910332765302
2017-12-28 10:19:1230.9897-95.904732765297
2017-12-28 10:18:4230.982-95.898832065288
2017-12-28 10:18:1230.975-95.89231965248
2017-12-28 10:17:4330.967-95.884231965235
2017-12-28 10:17:2930.9647-95.88232065240
2017-12-28 10:16:5930.958-95.87530465228
2017-12-28 10:16:2930.953-95.866230365243
2017-12-28 10:15:5930.948-95.857230365255
2017-12-28 10:15:2930.943-95.848330367195
2017-12-28 10:14:5930.938-95.839730359188
2017-12-28 10:14:2930.933-95.831230366212
2017-12-28 10:14:0330.928-95.822230467206
2017-12-28 10:13:5930.928-95.822230467206
2017-12-28 10:13:2930.9228-95.81330366177
2017-12-28 10:12:5930.9175-95.804230366179
2017-12-28 10:12:2930.9125-95.79530366155
2017-12-28 10:12:0030.9063-95.78732467132
2017-12-28 10:11:3030.8983-95.780332565170
2017-12-28 10:11:1230.8947-95.777532465166
2017-12-28 10:10:4230.8872-95.771332465173
2017-12-28 10:10:1230.8797-95.765332466229
2017-12-28 10:09:4230.8722-95.759232566228
2017-12-28 10:09:1230.8647-95.75332566218
2017-12-28 10:08:4230.8575-95.746331066176
2017-12-28 10:08:1230.8513-95.738331166183
2017-12-28 10:07:4230.8455-95.730331066221
2017-12-28 10:07:1230.8395-95.722231065232
2017-12-28 10:06:4230.833-95.714532167278
2017-12-28 10:06:1230.8258-95.707532167278
2017-12-28 10:05:4330.8187-95.700832066330
2017-12-28 10:05:1230.8113-95.693832166297
2017-12-28 10:04:4230.8045-95.68731966263
2017-12-28 10:04:1230.7972-95.6831967225
2017-12-28 10:03:4230.7908-95.67230666212
2017-12-28 10:03:1230.7853-95.663730665229
2017-12-28 10:02:4230.7797-95.65530766250
2017-12-28 10:02:1230.7742-95.646730666267
2017-12-28 10:01:4330.7678-95.636730566261
2017-12-28 10:01:3530.7675-95.636230666258
2017-12-28 10:01:0530.762-95.627530765285
2017-12-28 10:00:3530.7563-95.619230766306
2017-12-28 10:00:0530.7508-95.610830765326
2017-12-28 09:59:3630.7447-95.601730765323
2017-12-28 09:59:1330.7412-95.595830765339
2017-12-28 09:58:4230.7355-95.587530663317
2017-12-28 09:58:1230.7297-95.579731564360
2017-12-28 09:57:4230.723-95.572833064366
2017-12-28 09:57:1330.7153-95.567832964332
2017-12-28 09:56:4230.7075-95.562532966340
2017-12-28 09:56:1230.6997-95.55732665382
2017-12-28 09:55:4230.6925-95.550830463407
2017-12-28 09:55:1230.688-95.54229962396
2017-12-28 09:54:4230.6838-95.53329963397
2017-12-28 09:54:1330.6792-95.524530663406
2017-12-28 09:53:4230.6728-95.517533463427
2017-12-28 09:53:1330.6647-95.51333463392
2017-12-28 09:53:1230.6647-95.51333463392
2017-12-28 09:52:4230.6563-95.510335563337
2017-12-28 09:52:1230.6475-95.509535663349
2017-12-28 09:51:4230.6388-95.508735663346
2017-12-28 09:51:1230.63-95.507835561307
2017-12-28 09:50:4330.6213-95.50735561276
2017-12-28 09:50:1230.613-95.506335561293
2017-12-28 09:49:4230.6045-95.505535461277
2017-12-28 09:49:1330.5958-95.504735560256
2017-12-28 09:48:4230.5878-95.503835559273
2017-12-28 09:47:5030.573-95.502835558309
2017-12-28 09:47:2030.565-95.50234859313
2017-12-28 09:47:1930.565-95.50234859313
2017-12-28 09:46:5030.557-95.499734858311
2017-12-28 09:46:2030.5488-95.497834859302
2017-12-28 09:45:5030.5408-95.496234858295
2017-12-28 09:45:4930.5408-95.496234858295
2017-12-28 09:45:1930.5328-95.493834859292
2017-12-28 09:44:5030.5247-95.49234759291
2017-12-28 09:44:2030.5163-95.4908262281
2017-12-28 09:43:5030.5078-95.4912261283
2017-12-28 09:43:2030.4992-95.492761282
2017-12-28 09:43:1930.4992-95.492761282
2017-12-28 09:42:5030.4908-95.4933762315
2017-12-28 09:42:2030.4822-95.4947762289
2017-12-28 09:41:4930.4737-95.4962661282
2017-12-28 09:41:1930.465-95.496235562290
2017-12-28 09:40:4930.4567-95.495535860256
2017-12-28 09:40:1930.448-95.495535962330
2017-12-28 09:39:5130.4387-95.495335861361
2017-12-28 09:39:1730.43-95.494534761325
2017-12-28 09:38:4730.4217-95.49234561335
2017-12-28 09:38:1730.4133-95.489534561339
2017-12-28 09:37:4730.405-95.48734961314
2017-12-28 09:37:1730.3963-95.486235861284
2017-12-28 09:36:4730.388-95.485835860257
2017-12-28 09:36:1730.3795-95.485535861271
2017-12-28 09:35:4730.3712-95.48535660264
2017-12-28 09:35:1730.3625-95.484535760263
2017-12-28 09:34:4730.3542-95.483835660250
2017-12-28 09:34:1730.3458-95.482834260219
2017-12-28 09:33:4730.3378-95.479534160201
2017-12-28 09:33:1730.3297-95.476334160182
2017-12-28 09:32:4730.3217-95.473734360165
2017-12-28 09:32:1730.3137-95.470834460175
2017-12-28 09:31:0030.2928-95.464234361151
2017-12-28 09:30:3030.285-95.460532760134
2017-12-28 09:30:0030.2775-95.456735261101
2017-12-28 09:29:3030.2688-95.4567060107
2017-12-28 09:29:0030.2605-95.456706092
2017-12-28 09:28:3030.252-95.456706093
2017-12-28 09:28:0030.2437-95.45751161107
2017-12-28 09:27:3030.235-95.45873566099
2017-12-28 09:27:0030.2267-95.457835560110
2017-12-28 09:26:3030.2183-95.4573566087
2017-12-28 09:26:0030.2097-95.456235560103
2017-12-28 09:25:3130.2013-95.45533506167
2017-12-28 09:25:0030.193-95.45373496195
2017-12-28 09:24:3030.1847-95.45223556084
2017-12-28 09:24:0130.1763-95.45133556175
2017-12-28 09:23:3030.1678-95.45053556076
2017-12-28 09:23:0030.1595-95.44953516172
2017-12-28 09:22:3030.1512-95.44783496074
2017-12-28 09:22:0030.1428-95.44623506083
2017-12-28 09:21:3030.1345-95.44453496082
2017-12-28 09:21:0030.1262-95.44283496077
2017-12-28 09:20:3030.1178-95.44053286097
2017-12-28 09:20:0430.1103-95.43623426082
2017-12-28 09:20:0030.1103-95.43623426082
2017-12-28 09:19:4230.102-95.43533596179
2017-12-28 09:19:3030.102-95.43533596179
2017-12-28 09:19:0030.0933-95.43535761108
2017-12-28 09:18:3030.085-95.43621060102
2017-12-28 09:18:0030.0767-95.43623526062
2017-12-28 09:17:3030.0687-95.43453505954
2017-12-28 09:17:0030.0603-95.4333505952
2017-12-28 09:16:3430.052-95.43133486059
2017-12-28 09:16:3030.052-95.43133486059
2017-12-28 09:16:0030.0438-95.42973525966
2017-12-28 09:15:3030.0355-95.428805779
2017-12-28 09:15:0130.0287-95.42873584674
2017-12-28 09:15:0030.0287-95.42873584674
2017-12-28 09:14:3030.0228-95.42833503070
2017-12-28 09:14:0030.0228-95.42422522959
2017-12-28 09:13:3030.0233-95.423307643
2017-12-28 09:13:0030.0233-95.42287805
2017-12-28 09:12:3030.0233-95.4228168022
2017-12-28 09:12:0030.0233-95.4228168022
2017-12-28 09:11:0030.0233-95.4228168022
2017-12-28 09:10:3030.0233-95.4228168022
2017-12-28 09:10:0030.0233-95.4233411448
2017-12-28 09:09:3030.0213-95.427723051
2017-12-28 09:09:0030.0187-95.4283543848
2017-12-28 09:08:3030.0128-95.42753554334
2017-12-28 09:08:0130.0055-95.42673505441
2017-12-28 09:08:0030.0055-95.42673505441
2017-12-28 09:07:3029.9992-95.42533503593
2017-12-28 09:07:0029.9947-95.42453544193
2017-12-28 09:06:3029.9878-95.42333505695
2017-12-28 09:06:0229.98-95.4223515588
2017-12-28 09:06:0029.98-95.4223515588
2017-12-28 09:05:3029.9725-95.42053485788
2017-12-28 09:05:0029.9647-95.41873475694
2017-12-28 09:04:3129.957-95.4183565674
2017-12-28 09:04:3029.957-95.4183565674
2017-12-28 09:04:0129.9492-95.41673425686
2017-12-28 09:04:0029.9492-95.41673425686
2017-12-28 09:03:5929.9488-95.41673425686
2017-12-28 09:02:5929.7433-95.40121781228
2017-12-28 09:01:5929.7433-95.40121781228
2017-12-28 09:01:0029.7433-95.40121781228
2017-12-28 09:00:0129.7433-95.40121781228
2017-12-28 08:59:5929.7433-95.40121781228
2017-12-28 08:59:0029.7433-95.40121781228
2017-12-28 08:58:0029.7433-95.40121781228
2017-12-28 08:57:5929.7433-95.40121781228
2017-12-28 08:57:0029.7433-95.40121781228
2017-12-28 08:56:0029.7433-95.40121781228
2017-12-28 08:55:0129.7433-95.40121781228
2017-12-28 08:55:0029.7433-95.40121781228
2017-12-28 08:54:0029.7433-95.40121781228
2017-12-28 08:53:0029.7433-95.40121781228
2017-12-28 08:52:0029.7433-95.40121781228
2017-12-28 08:51:0029.7433-95.40121781228
2017-12-28 08:50:0029.7433-95.40121781228
2017-12-28 08:49:0029.7433-95.40121781228
2017-12-28 08:48:0129.7433-95.40121781228
2017-12-28 08:47:0029.7433-95.40121781228
2017-12-28 08:41:5929.7433-95.40121781228
2017-12-28 08:32:0629.7433-95.40121781228
2017-12-28 08:21:5929.7433-95.40121781228
2017-12-28 08:11:5929.7433-95.40121781228
2017-12-28 05:14:3429.685-95.41000
2017-12-27 21:51:1029.7745-95.5047249349
2017-12-27 21:50:1029.7745-95.5047249349
2017-12-27 21:49:4029.7747-95.50381801849
2017-12-27 21:49:0929.7775-95.50421261049
2017-12-27 21:48:3929.7778-95.50551792049
2017-12-27 21:48:0929.7808-95.50551791849
2017-12-27 21:47:3929.7833-95.50621801949
2017-12-27 21:47:0929.7838-95.51904090
2017-12-27 21:46:4029.7838-95.5155892694
2017-12-27 21:46:0929.7838-95.51889014119
2017-12-27 21:45:4029.7838-95.5205907131
2017-12-27 21:45:3929.7838-95.5205907131
2017-12-27 21:45:0929.7838-95.522901094
2017-12-27 21:44:3929.7838-95.523390368
2017-12-27 21:44:1029.7838-95.5245891585
2017-12-27 21:43:3929.7838-95.5278919102
2017-12-27 21:43:0929.7838-95.539010115
2017-12-27 21:42:0829.7842-95.5333919104
2017-12-27 21:41:3829.7842-95.5358930109
2017-12-27 21:41:0829.7842-95.54902249
2017-12-27 21:40:3829.7842-95.5438893372
2017-12-27 21:40:0829.7838-95.55894664
2017-12-27 21:39:3829.7838-95.55789250125
2017-12-27 21:39:0829.7867-95.56331713895
2017-12-27 21:38:3829.793-95.56331785042
2017-12-27 21:38:0829.8008-95.56371795656
2017-12-27 21:37:3829.8088-95.56371795982
2017-12-27 21:37:0829.817-95.56371795470
2017-12-27 21:36:3829.8242-95.56381795077
2017-12-27 21:36:0829.8308-95.56381804954
2017-12-27 21:35:3829.838-95.56381805156
2017-12-27 21:35:0829.8453-95.56371795450
2017-12-27 21:34:3829.8528-95.56381785191
2017-12-27 21:34:0829.86-95.56381834593
2017-12-27 21:32:5629.8737-95.555325160130
2017-12-27 21:32:4029.8755-95.551222763136
2017-12-27 21:31:4029.8928-95.549517961117
2017-12-27 21:30:4029.908-95.555816755104
2017-12-27 21:28:5829.9295-95.54532456174
2017-12-27 21:28:2829.933-95.53632445982
2017-12-27 21:27:5829.9362-95.52752556198
2017-12-27 21:26:1529.9372-95.496326953105
2017-12-27 21:25:4529.9372-95.48782695298
2017-12-27 21:25:1529.9375-95.47882695794
2017-12-27 21:25:1429.9375-95.47882695794
2017-12-27 21:24:4529.9375-95.47032674990
2017-12-27 21:24:1529.9375-95.46252715097
2017-12-27 21:24:1429.9375-95.46252715097
2017-12-27 21:23:4629.9375-95.45452694795
2017-12-27 21:23:1529.9378-95.44582695786
2017-12-27 21:22:4529.9378-95.43672765887
2017-12-27 21:22:1529.9387-95.4282545383
2017-12-27 21:21:4529.9405-95.42132553793
2017-12-27 21:21:1529.9417-95.41532153250
2017-12-27 21:20:4529.9463-95.41631623485
2017-12-27 21:20:1529.9512-95.4181704282
2017-12-27 21:19:4529.957-95.41871773380
2017-12-27 21:19:1529.9613-95.41871793314
2017-12-27 21:18:4529.9658-95.41951672359
2017-12-27 21:18:1529.9692-95.421682570
2017-12-27 21:17:4529.9745-95.42121685472
2017-12-27 21:17:1529.982-95.42281724796
2017-12-27 21:16:4529.9892-95.42381715495
2017-12-27 21:16:1529.9963-95.42531715096
2017-12-27 21:15:4530.0038-95.42671715417
2017-12-27 21:15:1530.0113-95.42781735266
2017-12-27 21:14:4530.0187-95.428717453105
2017-12-27 21:14:1530.0258-95.42921784998
2017-12-27 21:13:4530.0322-95.42921804796
2017-12-27 21:13:1530.0395-95.429717251116
2017-12-27 21:12:4530.0462-95.430517248130
2017-12-27 21:12:0730.0538-95.43221714889
2017-12-27 21:10:1330.082-95.4371885385
2017-12-27 21:09:4430.0897-95.43531835692
2017-12-27 21:09:1430.0972-95.435517952123
2017-12-27 21:09:1330.0972-95.435517952123
2017-12-27 21:08:4430.1042-95.435518048106
2017-12-27 21:08:4330.1042-95.435518048106
2017-12-27 21:08:1330.1112-95.43671625089
2017-12-27 21:07:4430.1167-95.44031474779
2017-12-27 21:07:1330.1237-95.442517050103
2017-12-27 21:06:4330.1305-95.444217053107
2017-12-27 21:06:1430.138-95.445517053107
2017-12-27 21:05:4430.1455-95.4471695694
2017-12-27 21:05:4330.1455-95.4471695694
2017-12-27 21:05:1330.1533-95.44871695185
2017-12-27 21:04:4330.1612-95.450317260129
2017-12-27 21:04:1430.1695-95.451217560119
2017-12-27 21:04:0130.1728-95.451317463132
2017-12-27 21:03:4430.178-95.45217557142
2017-12-27 21:03:0130.1888-95.45317158153
2017-12-27 21:02:0230.2053-95.455817556137
2017-12-27 21:02:0130.2053-95.455817556137
2017-12-27 21:00:2830.2463-95.45717562116
2017-12-27 20:59:1330.2522-95.45718061128
2017-12-27 20:58:1330.2692-95.456717961182
2017-12-27 20:56:2430.2992-95.466316462217
2017-12-27 20:55:2230.3162-95.47216361247
2017-12-27 20:54:5230.3245-95.474716361240
2017-12-27 20:54:2230.3325-95.477816161275
2017-12-27 20:53:5230.3405-95.480816161245
2017-12-27 20:53:2230.3487-95.483817362254
2017-12-27 20:52:5230.3572-95.484517761262
2017-12-27 20:52:2230.3658-95.485317661279
2017-12-27 20:51:5230.3742-95.485817560300
2017-12-27 20:51:2230.3828-95.486317868249
2017-12-27 20:50:5230.392-95.486717865237
2017-12-27 20:50:5130.392-95.486717865237
2017-12-27 20:50:2230.4013-95.48717766283
2017-12-27 20:49:5230.4103-95.488716565364
2017-12-27 20:49:2230.4192-95.491316564383
2017-12-27 20:48:5230.428-95.493816566391
2017-12-27 20:48:2230.4372-95.495317965351
2017-12-27 20:47:5230.4458-95.495517863308
2017-12-27 20:47:2230.4545-95.495817864218
2017-12-27 20:46:5230.4637-95.496217661245
2017-12-27 20:46:2230.4722-95.496318562333
2017-12-27 20:45:5130.4805-95.49518761327
2017-12-27 20:45:2230.4897-95.493718763265
2017-12-27 20:44:5230.4987-95.492218667269
2017-12-27 20:44:2230.508-95.491318269249
2017-12-27 20:43:5230.5178-95.490817867277
2017-12-27 20:43:2230.5267-95.492816759302
2017-12-27 20:42:5230.5338-95.494516847315
2017-12-27 20:42:2230.5405-95.496216849346
2017-12-27 20:41:5230.547-95.497816947355
2017-12-27 20:41:2230.5533-95.499216750339
2017-12-27 20:40:5230.5597-95.500816746371
2017-12-27 20:40:2230.5662-95.502217447356
2017-12-27 20:39:5230.5728-95.502817548374
2017-12-27 20:39:2230.5797-95.503317553345
2017-12-27 20:38:5230.5863-95.503817561321
2017-12-27 20:38:2230.5947-95.504717556321
2017-12-27 20:37:5230.6025-95.505517753312
2017-12-27 20:37:2230.6088-95.506217538294
2017-12-27 20:36:5230.6155-95.506717562348
2017-12-27 20:36:4230.618-95.50717564344
2017-12-27 20:36:2230.625-95.507517566362
2017-12-27 20:35:4230.6358-95.508317557419
2017-12-27 20:34:4230.6522-95.509717562440
2017-12-27 20:33:0130.6717-95.51714529462
2017-12-27 20:32:3130.6763-95.520513251380
2017-12-27 20:32:0130.6808-95.527812052372
2017-12-27 20:31:3130.6845-95.534712055344
2017-12-27 20:31:0130.6875-95.54211942368
2017-12-27 20:30:3130.6903-95.547212054395
2017-12-27 20:30:0130.6953-95.553814657436
2017-12-27 20:28:5330.7117-95.565515058360
2017-12-27 20:28:2330.7188-95.570314961371
2017-12-27 20:27:5330.7258-95.575513758384
2017-12-27 20:27:2330.7317-95.582213455333
2017-12-27 20:26:5330.7367-95.589512756324
2017-12-27 20:26:2330.7413-95.59712861328
2017-12-27 20:25:5330.747-95.605512768349
2017-12-27 20:25:2330.7525-95.614212764335
2017-12-27 20:24:5330.7583-95.62312767321
2017-12-27 20:24:2330.7642-95.631712865257
2017-12-27 20:23:5330.7697-95.640312769279
2017-12-27 20:23:2330.7758-95.649512771259
2017-12-27 20:22:5330.7817-95.658312768232
2017-12-27 20:22:2430.7875-95.667212771238
2017-12-27 20:21:5330.7933-95.676212771240
2017-12-27 20:21:2330.8003-95.683714070277
2017-12-27 20:20:5330.808-95.691214172342
2017-12-27 20:20:2330.8155-95.69814066338
2017-12-27 20:19:5330.8228-95.70514070278
2017-12-27 20:19:2330.83-95.71214067278
2017-12-27 20:18:5330.8372-95.719713272231
2017-12-27 20:18:2330.8672-95.755314573251
2017-12-27 20:16:4130.8672-95.755314573251
2017-12-27 20:11:1930.9383-95.840512367217
2017-12-27 20:09:4630.9538-95.867812366260
2017-12-27 20:09:1730.9587-95.875813163283
2017-12-27 20:08:4730.9647-95.882213963268
2017-12-27 20:08:1730.972-95.889214063266
2017-12-27 20:07:4730.9788-95.896213968296
2017-12-27 20:07:1630.9863-95.902514669289
2017-12-27 20:06:4730.9945-95.908714867294
2017-12-27 20:06:1631.0022-95.914214763307
2017-12-27 20:05:4631.0103-95.9214769324
2017-12-27 20:05:1631.0187-95.926214666306
2017-12-27 20:04:4631.0262-95.93214773314
2017-12-27 20:04:1731.0345-95.937814767350
2017-12-27 20:03:4631.0428-95.943815773286
2017-12-27 20:03:1631.0522-95.947216368304
2017-12-27 20:02:4631.0612-95.950316363305
2017-12-27 20:02:1631.07-95.953316365336
2017-12-27 20:01:4731.0788-95.956316469343
2017-12-27 20:01:1631.0878-95.959516263313
2017-12-27 20:00:4731.097-95.962516369308
2017-12-27 20:00:1731.1062-95.965815265313
2017-12-27 19:59:4731.1145-95.971215267296
2017-12-27 19:59:1731.1228-95.975816566274
2017-12-27 19:58:4631.1322-95.978316571284
2017-12-27 19:58:1731.142-95.981216670281
2017-12-27 19:57:4631.1513-95.983316973294
2017-12-27 19:57:1731.1612-95.985516867316
2017-12-27 19:56:4731.1705-95.987816968293
2017-12-27 19:56:1731.18-95.9916869229
2017-12-27 19:55:4631.1897-95.992216876262
2017-12-27 19:55:1731.2-95.994716970296
2017-12-27 19:54:4631.2097-95.996717568364
2017-12-27 19:54:1631.2192-95.995818666350
2017-12-27 19:53:4631.2275-95.994718660322
2017-12-27 19:53:1731.2362-95.993319360297
2017-12-27 19:52:4631.2442-95.990319964292
2017-12-27 19:52:1631.2528-95.988318566317
2017-12-27 19:51:4731.2622-95.987518472325
2017-12-27 19:51:1631.2728-95.987216675364
2017-12-27 19:50:4731.2908-95.996315673361
2017-12-27 19:50:2131.2908-95.996315569300
2017-12-27 19:50:1531.2917-95.99715567293
2017-12-27 19:49:2131.3083-96.00216772266
2017-12-27 19:48:2131.3288-96.007516777336
2017-12-27 19:47:2131.3495-96.01316673354
2017-12-27 19:46:2131.368-96.018316667352
2017-12-27 19:45:2131.3862-96.026215072342
2017-12-27 19:44:2131.4042-96.037815174271
2017-12-27 19:43:2131.4213-96.049514265350
2017-12-27 19:42:2131.4363-96.062814268321
2017-12-27 19:41:2131.4467-96.072214245324
2017-12-27 19:40:2131.4613-96.084716067330
2017-12-27 19:39:2131.4788-96.090316465286
2017-12-27 19:38:2131.4955-96.095816466286
2017-12-27 19:37:2131.5133-96.105315070305
2017-12-27 19:36:2131.5292-96.115515066425
2017-12-27 19:35:2131.5458-96.126715068422
2017-12-27 19:34:2131.562-96.137515069371
2017-12-27 19:33:2131.5787-96.147816462418
2017-12-27 19:32:2131.5958-96.153716468410
2017-12-27 19:31:2131.6138-96.15717655396
2017-12-27 19:29:4031.6462-96.159517264360
2017-12-27 19:29:1031.6555-96.160817170383
2017-12-27 19:28:4031.665-96.162517270391
2017-12-27 19:28:1031.675-96.163817271410
2017-12-27 19:27:4031.6853-96.165517276429
2017-12-27 19:27:1031.6947-96.169215870454
2017-12-27 19:26:4031.7037-96.17316264426
2017-12-27 19:26:1031.712-96.175516463443
2017-12-27 19:25:4031.7205-96.178316566439
2017-12-27 19:25:3331.7228-96.179216573430
2017-12-27 19:23:3631.7538-96.20314064412
2017-12-27 19:23:0631.7608-96.209713869414
2017-12-27 19:22:3631.7678-96.217813567385
2017-12-27 19:22:0631.7747-96.225513671376
2017-12-27 19:21:3631.7813-96.233812769356
2017-12-27 19:21:0631.7875-96.243312873309
2017-12-27 19:20:3631.7945-96.252213775207
2017-12-27 19:20:0631.802-96.260313668300
2017-12-27 19:19:3631.8083-96.26813370315
2017-12-27 19:19:0631.8158-96.275815369298
2017-12-27 19:18:3631.825-96.280515573298
2017-12-27 19:18:0631.8342-96.285514867283
2017-12-27 19:17:3631.8413-96.292214174243
2017-12-27 19:17:0631.8492-96.299514063251
2017-12-27 19:16:3631.8567-96.306714175279
2017-12-27 19:16:0631.8625-96.316311372307
2017-12-27 19:15:3631.8662-96.326311260329
2017-12-27 19:15:0631.8697-96.335512869305
2017-12-27 19:14:3631.8763-96.342513966358
2017-12-27 19:14:0631.8838-96.349514069330
2017-12-27 19:13:3631.8908-96.357812274306
2017-12-27 19:13:0631.8962-96.367812172312
2017-12-27 19:12:3631.9012-96.37712164338
2017-12-27 19:12:0631.9062-96.386312467300
2017-12-27 19:11:3631.9117-96.395312664289
2017-12-27 19:11:0631.9167-96.403712664275
2017-12-27 19:10:3631.9217-96.411313158264
2017-12-27 19:10:0631.9272-96.417812656284
2017-12-27 19:09:3631.9325-96.42516754272
2017-12-27 19:09:0631.9405-96.423819063298
2017-12-27 19:08:3631.9492-96.42219063298
2017-12-27 19:08:0631.9583-96.420317867267
2017-12-27 19:07:3631.9678-96.421716968322
2017-12-27 19:07:0631.9767-96.42317265356
2017-12-27 19:06:3631.9862-96.424716163387
2017-12-27 19:06:0631.9947-96.42816069372
2017-12-27 19:05:3632.0037-96.43215967431
2017-12-27 19:05:0632.0117-96.435315957430
2017-12-27 19:04:3632.0183-96.43815947412
2017-12-27 19:04:0632.0247-96.440516153423
2017-12-27 19:03:3132.032-96.443316047445
2017-12-27 18:56:5032.1397-96.4615162370
2017-12-27 18:55:1632.1667-96.469717369322
2017-12-27 18:54:4632.2705-96.51213363445
2017-12-27 18:49:2132.2705-96.51213363445
2017-12-27 18:47:3932.2853-96.542512160473
2017-12-27 18:47:0932.2895-96.551311867507
2017-12-27 18:46:3932.2938-96.561211865497
2017-12-27 18:45:0832.327-96.610514865459
2017-12-27 18:43:2832.3292-96.612214864448
2017-12-27 18:42:5832.3372-96.617815169439
2017-12-27 18:42:2832.3455-96.622815269466
2017-12-27 18:41:5932.3542-96.62815269449
2017-12-27 18:41:2832.3622-96.634514370471
2017-12-27 18:40:5932.37-96.641214370470
2017-12-27 18:40:3132.3772-96.646715769511
2017-12-27 18:40:1832.3813-96.648316369516
2017-12-27 18:35:0932.4763-96.66216161406
2017-12-27 18:28:0032.6-96.683815565458
2017-12-27 18:26:0132.6337-96.715764480
2017-12-27 18:25:3132.6417-96.703815760453
2017-12-27 18:25:0732.6478-96.70715761439
2017-12-27 18:24:2932.7003-96.752515726435
2017-12-27 18:22:4232.7003-96.752515726435
2017-12-27 18:21:0632.7013-96.753056339
2017-12-27 08:45:0432.8255-96.812500479
2017-12-27 08:43:5932.8255-96.812500479
2017-12-27 08:43:0332.8255-96.812500479
2017-12-27 08:41:5932.8255-96.812500479
2017-12-27 08:41:0332.8255-96.812500479
2017-12-27 08:39:5932.8255-96.812500479
2017-12-27 08:39:0532.8255-96.812500479
2017-12-27 08:37:5932.8255-96.812500479
2017-12-27 08:37:0532.8255-96.812500481
2017-12-27 08:35:5932.8255-96.812500481
2017-12-27 08:34:5932.8255-96.812500481
2017-12-27 08:33:5932.8255-96.812500481
2017-12-27 08:33:0532.8255-96.812500481
2017-12-27 08:31:5932.8255-96.812500481
2017-12-27 08:31:0532.8255-96.812500481
2017-12-27 08:29:5932.8255-96.812500481
2017-12-27 08:29:0332.8255-96.812500481
2017-12-27 08:27:5932.8255-96.812500481
2017-12-27 08:27:0232.8255-96.812500481
2017-12-27 08:25:5932.8255-96.812500481
2017-12-27 08:24:5932.8255-96.812500481
2017-12-27 08:24:0232.8255-96.812500481
2017-12-27 08:22:5932.8255-96.812500481
2017-12-27 08:21:5932.8255-96.812500481
2017-12-27 08:21:0232.8255-96.812500481
2017-12-27 08:19:5932.8255-96.812500481
2017-12-27 08:19:0532.8255-96.812500481
2017-12-27 08:17:5932.8255-96.812500481
2017-12-27 08:17:0232.8255-96.812500481
2017-12-27 08:15:5932.8255-96.812500481
2017-12-27 08:15:0232.8255-96.812500481
2017-12-27 08:13:5932.8255-96.812500474
2017-12-27 08:13:0332.8255-96.812500474
2017-12-27 08:11:5932.8255-96.812500474
2017-12-27 08:11:0232.8255-96.812500474
2017-12-27 08:09:5932.8255-96.812500474
2017-12-27 08:09:0232.8255-96.812500474
2017-12-27 08:07:5932.8255-96.812500474
2017-12-27 08:07:0232.8255-96.812500474
2017-12-27 08:05:5932.8255-96.812500474
2017-12-27 08:05:0232.8255-96.812500474
2017-12-27 08:03:5932.8255-96.812500474
2017-12-27 08:03:0232.8255-96.812500474
2017-12-27 08:01:5932.8255-96.812500474
2017-12-27 08:01:0232.8255-96.812500474
2017-12-27 07:59:5932.8255-96.812500474
2017-12-27 07:58:5932.8255-96.812500474
2017-12-27 07:57:5932.8255-96.812500482
2017-12-27 07:56:5932.8255-96.812500482
2017-12-27 07:55:5932.8255-96.812500482
2017-12-27 07:54:5932.8255-96.812500474
2017-12-27 07:53:5932.8255-96.812500474
2017-12-27 07:52:5932.8255-96.812500474
2017-12-27 07:51:5932.8255-96.812500474
2017-12-27 07:50:5932.8255-96.812500474
2017-12-27 07:49:5932.8255-96.812500474
2017-12-27 07:48:5932.8255-96.812500474
2017-12-27 07:48:0032.8255-96.812500474
2017-12-27 07:46:5932.8255-96.812500474
2017-12-27 07:46:0032.8255-96.812500474
2017-12-27 07:44:5932.8255-96.812500474
2017-12-27 07:43:5932.8255-96.812500474
2017-12-27 07:42:5932.8255-96.812500474
2017-12-27 07:41:5932.8255-96.812500474
2017-12-27 07:41:0032.8255-96.812500474
2017-12-27 07:39:5932.8255-96.812500474
2017-12-27 07:38:5932.8255-96.812500474
2017-12-27 07:37:5932.8255-96.812500474
2017-12-27 07:36:5932.8255-96.812500474
2017-12-27 07:35:5932.8255-96.812500474
2017-12-27 07:34:5932.8255-96.812500474
2017-12-27 07:33:5932.8255-96.812500474
2017-12-27 07:33:0132.8255-96.812500474
2017-12-27 07:31:5932.8255-96.812500474
2017-12-27 07:30:5932.8255-96.812500474
2017-12-27 07:29:5932.8255-96.812500474
2017-12-27 07:28:5932.8255-96.812500482
2017-12-27 07:27:5932.8255-96.812500482
2017-12-27 07:27:0032.8255-96.812500482
2017-12-27 07:26:0032.8255-96.812500482
2017-12-27 07:24:5932.8255-96.812500482
2017-12-27 07:23:5932.8255-96.812500482
2017-12-27 07:23:0032.8255-96.812500482
2017-12-27 07:21:5932.8255-96.812500482
2017-12-27 07:20:5932.8255-96.812500482
2017-12-27 07:19:5932.8255-96.812500482
2017-12-27 07:18:5932.8255-96.812500482
2017-12-27 07:17:5932.8255-96.812500481
2017-12-27 07:16:5932.8255-96.812500481
2017-12-27 07:15:5932.8255-96.812500481
2017-12-27 07:14:5932.8255-96.812500481
2017-12-27 07:13:5932.8255-96.812500481
2017-12-27 07:12:5932.8255-96.812500481
2017-12-27 07:11:5932.8255-96.812500479
2017-12-27 07:10:5932.8255-96.812500479
2017-12-27 07:09:5932.8255-96.812500479
2017-12-27 07:08:5932.8255-96.812500479
2017-12-27 07:07:5932.8255-96.812500479
2017-12-27 07:06:5932.8255-96.812500479
2017-12-27 07:05:5932.8255-96.812500473
2017-12-27 07:05:0132.8255-96.812500473
2017-12-27 07:03:5932.8255-96.812500473
2017-12-27 07:02:5932.8255-96.812500473
2017-12-27 07:02:0132.8255-96.812500473
2017-12-27 07:00:5932.8255-96.812500473
2017-12-27 06:59:5932.8255-96.812500473
2017-12-27 06:59:0132.8255-96.812500473
2017-12-27 06:58:0032.8255-96.812500473
2017-12-27 06:56:5932.8255-96.812500483
2017-12-27 06:55:5932.8255-96.812500483
2017-12-27 06:54:5932.8255-96.812500483
2017-12-27 06:53:5932.8255-96.812500483
2017-12-27 06:52:5932.8255-96.812500483
2017-12-27 06:51:5932.8255-96.812500483
2017-12-27 06:50:5932.8255-96.812500483
2017-12-27 06:50:0032.8255-96.812500483
2017-12-27 06:48:5932.8255-96.812500483
2017-12-27 06:47:5932.8255-96.812500483
2017-12-27 06:46:5932.8255-96.812500482
2017-12-27 06:45:5932.8255-96.812500482
2017-12-27 06:44:5932.8255-96.812500482
2017-12-27 06:43:5932.8255-96.812500482
2017-12-27 06:42:5932.8255-96.812500482
2017-12-27 06:41:5932.8255-96.812500482
2017-12-27 06:40:5932.8255-96.812500482
2017-12-27 06:39:5932.8255-96.812500482
2017-12-27 06:38:5932.8255-96.812500482
2017-12-27 06:37:5932.8255-96.812500482
2017-12-27 06:36:5932.8255-96.812500482
2017-12-27 06:35:5932.8255-96.812500482
2017-12-27 06:35:0032.8255-96.812500482
2017-12-27 06:33:5932.8255-96.812800480
2017-12-27 06:33:0032.8255-96.812800480
2017-12-27 06:31:5932.8255-96.812800480
2017-12-27 06:30:5932.8255-96.812800480
2017-12-27 06:29:5932.8255-96.812800480
2017-12-27 06:28:5932.8255-96.812800480
2017-12-27 06:27:5932.8255-96.812800480
2017-12-27 06:26:5932.8255-96.812800480
2017-12-27 06:25:5932.8255-96.812800480
2017-12-27 06:24:5932.8255-96.812800480
2017-12-27 06:23:5932.8255-96.812800480
2017-12-27 06:22:5932.8255-96.812800480
2017-12-27 06:22:0032.8255-96.812800480
2017-12-27 06:12:0032.8255-96.812800480
2017-12-27 06:01:5932.8255-96.812800480
2017-12-27 05:51:5932.8255-96.812800480
2017-12-27 05:41:5932.8255-96.812800480
2017-12-27 05:32:0032.8255-96.812800480
2017-12-27 05:22:0032.8255-96.812800480
2017-12-27 05:11:5932.8255-96.812800480
2017-12-27 05:02:1132.8253-96.812500480
2017-12-27 04:52:0032.8255-96.812500479
2017-12-27 04:42:0032.8255-96.812500479
2017-12-27 04:32:0332.8255-96.812500481
2017-12-27 04:21:5932.8255-96.812500480
2017-12-27 04:12:0232.8255-96.812500475
2017-12-27 04:02:0332.8255-96.812500475
2017-12-27 03:52:0432.8255-96.812500475
2017-12-27 03:42:0332.8255-96.812500475
2017-12-27 03:32:0332.8255-96.812500475
2017-12-27 03:21:5932.8255-96.812500475
2017-12-27 03:11:5932.8255-96.812500475
2017-12-27 03:02:0432.8255-96.812500475
2017-12-27 02:51:5932.8255-96.812500475
2017-12-27 02:41:5932.8255-96.812500475
2017-12-27 02:31:5932.8255-96.812500475
2017-12-27 02:21:5932.8255-96.812500475
2017-12-27 02:11:5932.8255-96.812500475
2017-12-27 02:02:0532.8255-96.812500475
2017-12-27 01:51:5932.8255-96.812500475
2017-12-27 01:41:5932.8255-96.812500475
2017-12-27 01:31:5932.8255-96.812500475
2017-12-27 01:21:5932.8255-96.812500475
2017-12-27 01:12:0032.8255-96.812500475
2017-12-27 01:01:5932.8255-96.812500475
2017-12-27 00:51:5932.8255-96.812500475
2017-12-27 00:41:5932.8255-96.812500475
2017-12-27 00:32:0232.8255-96.812500475
2017-12-27 00:22:0032.8255-96.812500475
2017-12-27 00:11:5932.8255-96.812500475
2017-12-27 00:01:5932.8255-96.812500475
2017-12-26 23:51:5932.8255-96.812500475
2017-12-26 23:41:5932.8255-96.812500475
2017-12-26 23:31:5932.8255-96.812500475
2017-12-26 23:21:5932.8255-96.812500475
2017-12-26 23:11:5932.8255-96.812500475
2017-12-26 23:01:5932.8255-96.812500475
2017-12-26 22:51:5932.8255-96.812500475
2017-12-26 22:42:0032.8255-96.812500475
2017-12-26 22:31:5932.8255-96.812500475
2017-12-26 22:21:5932.8255-96.812500475
2017-12-26 22:12:0132.8255-96.812500475
2017-12-26 22:02:0032.8255-96.812500475
2017-12-26 21:51:5932.8255-96.812500475
2017-12-26 21:41:5932.8255-96.812500475
2017-12-26 21:32:0032.8255-96.812500475
2017-12-26 21:30:5932.8255-96.812500475
2017-12-26 21:30:0232.8255-96.812500479
2017-12-26 21:28:5932.8255-96.812500479
2017-12-26 21:28:0032.8255-96.812500479
2017-12-26 21:26:5932.8255-96.812500479
2017-12-26 21:25:5932.8255-96.812500479
2017-12-26 21:24:5932.8255-96.812500480
2017-12-26 21:23:5932.8255-96.812500480
2017-12-26 21:22:5932.8255-96.812500480
2017-12-26 21:21:5932.8255-96.812500480
2017-12-26 21:20:5932.8255-96.812500480
2017-12-26 21:20:0232.8255-96.812500481
2017-12-26 21:18:5932.8255-96.812500481
2017-12-26 21:17:5932.8255-96.812500481
2017-12-26 21:16:5932.8255-96.812500481
2017-12-26 21:15:5932.8255-96.812500481
2017-12-26 21:14:5932.8255-96.812500481
2017-12-26 21:13:5932.8255-96.812500481
2017-12-26 21:12:5932.8255-96.812500481
2017-12-26 21:11:5932.8255-96.812500481
2017-12-26 21:11:0032.8255-96.812500481
2017-12-26 21:10:0332.8255-96.812500481
2017-12-26 21:07:5932.8255-96.812500481
2017-12-26 21:07:0032.8255-96.812500481
2017-12-26 21:05:5932.8255-96.812500481
2017-12-26 21:04:5932.8255-96.812500481
2017-12-26 21:03:5932.8255-96.812500481
2017-12-26 21:02:5932.8255-96.812500481
2017-12-26 21:01:5932.8255-96.812500481
2017-12-26 21:00:5932.8255-96.812500481
2017-12-26 20:59:5932.8255-96.812500481
2017-12-26 20:58:5932.8255-96.812500481
2017-12-26 20:57:5932.8255-96.812500481
2017-12-26 20:56:5932.8255-96.812500481
2017-12-26 20:55:5932.8255-96.812500481
2017-12-26 20:54:5932.8255-96.812500481
2017-12-26 20:53:5932.8255-96.812500481
2017-12-26 20:52:5932.8255-96.812500481
2017-12-26 20:52:0032.8255-96.812500481
2017-12-26 20:50:5932.8255-96.812500481
2017-12-26 20:49:5932.8255-96.812500481
2017-12-26 20:48:5932.8255-96.812500481
2017-12-26 20:47:5932.8255-96.812500481
2017-12-26 20:47:0132.8255-96.812500481
2017-12-26 20:46:0032.8255-96.812500481
2017-12-26 20:44:5932.8255-96.812500481
2017-12-26 20:43:5932.8255-96.812500481
2017-12-26 20:42:5932.8255-96.812500481
2017-12-26 20:41:5932.8255-96.812500481
2017-12-26 20:40:5932.8255-96.812500481
2017-12-26 20:39:5932.8255-96.812500481
2017-12-26 20:38:5932.8255-96.812500481
2017-12-26 20:37:5932.8255-96.812500481
2017-12-26 20:36:5932.8255-96.812500481
2017-12-26 20:35:5932.8255-96.812500481
2017-12-26 20:34:5932.8255-96.812500481
2017-12-26 20:34:0032.8255-96.812500481
2017-12-26 20:33:0232.8255-96.812500481
2017-12-26 20:32:0032.8255-96.812500481
2017-12-26 20:30:5932.8255-96.812500481
2017-12-26 20:29:5932.8255-96.812500481
2017-12-26 20:28:5932.8255-96.812500481
2017-12-26 20:27:5932.8255-96.812500481
2017-12-26 20:26:5932.8255-96.812500481
2017-12-26 20:24:5932.8255-96.812500481
2017-12-26 20:24:0032.8255-96.812500481
2017-12-26 20:22:5932.8255-96.812500479
2017-12-26 20:21:5932.8255-96.812500479
2017-12-26 20:20:5932.8255-96.812500479
2017-12-26 20:19:5932.8255-96.812500479
2017-12-26 20:18:5932.8255-96.812500479
2017-12-26 20:17:5932.8255-96.812500479
2017-12-26 20:17:0032.8255-96.812500479
2017-12-26 20:16:0032.8255-96.812500479
2017-12-26 20:14:5932.8255-96.812500479
2017-12-26 20:13:5932.8255-96.812500474
2017-12-26 20:13:0032.8255-96.812500474
2017-12-26 20:11:5932.8255-96.812500474
2017-12-26 20:10:5932.8255-96.812500474
2017-12-26 20:09:5932.8255-96.812500474
2017-12-26 20:08:5932.8255-96.812500474
2017-12-26 20:07:5932.8255-96.812500474
2017-12-26 20:07:0232.8255-96.812500477
2017-12-26 20:05:5932.8255-96.812500477
2017-12-26 20:05:0032.8255-96.812500477
2017-12-26 20:03:5932.8255-96.812500477
2017-12-26 20:03:0032.8253-96.812500480
2017-12-26 20:02:0032.8253-96.812500480
2017-12-26 20:00:5932.8253-96.812500480
2017-12-26 19:59:5932.8253-96.812500480
2017-12-26 19:58:5932.8253-96.812500480
2017-12-26 19:57:5932.8253-96.812500480
2017-12-26 19:56:5932.8253-96.812500480
2017-12-26 19:55:5932.8253-96.812500480
2017-12-26 19:54:5932.8253-96.812500480
2017-12-26 19:53:5932.8253-96.812500480
2017-12-26 19:53:0032.8253-96.812500480
2017-12-26 19:51:5932.8253-96.812500480
2017-12-26 19:51:0032.8253-96.812500480
2017-12-26 19:49:5932.8255-96.812500479
2017-12-26 19:48:5932.8253-96.812500478
2017-12-26 19:47:5932.8253-96.812500478
2017-12-26 19:46:5932.8253-96.812500478
2017-12-26 19:45:5932.8253-96.812500478
2017-12-26 19:44:5932.8253-96.812500478
2017-12-26 19:44:0032.8253-96.812500478
2017-12-26 19:43:0032.8253-96.812500478
2017-12-26 19:42:0232.8255-96.812500478
2017-12-26 19:40:5932.8255-96.812500478
2017-12-26 19:40:0032.8255-96.812500480
2017-12-26 19:38:5932.8255-96.812500480
2017-12-26 19:37:5932.8255-96.812500480
2017-12-26 19:36:5932.8255-96.812500480
2017-12-26 19:36:0032.8255-96.812500480
2017-12-26 19:34:5932.8255-96.812500480
2017-12-26 19:34:0132.8255-96.812500480
2017-12-26 19:32:5932.8255-96.812500480
2017-12-26 19:32:0032.8255-96.812500480
2017-12-26 19:30:5932.8255-96.812500480
2017-12-26 19:30:0032.8255-96.812500480
2017-12-26 19:29:0032.8255-96.812500480
2017-12-26 19:27:5932.8255-96.812500480
2017-12-26 19:26:5932.8255-96.812500480
2017-12-26 19:26:0032.8255-96.812800484
2017-12-26 19:24:5932.8255-96.812800484
2017-12-26 19:23:5932.8255-96.812800484
2017-12-26 19:23:0032.8255-96.812800484
2017-12-26 19:21:5932.8255-96.812800484
2017-12-26 19:20:5932.8255-96.812800484
2017-12-26 19:19:5932.8255-96.812800484
2017-12-26 19:18:5932.8255-96.812800484
2017-12-26 19:17:5932.8255-96.812800484
2017-12-26 19:16:5932.8255-96.812800484
2017-12-26 19:15:5932.8255-96.812800484
2017-12-26 19:14:5932.8255-96.812800484
2017-12-26 19:07:5932.8255-96.812800484
2017-12-26 18:58:0032.8255-96.812500484
2017-12-26 18:47:5932.8255-96.812500485
2017-12-26 18:38:0032.8255-96.812500485
2017-12-26 18:28:0032.8255-96.812500485
2017-12-26 18:17:5932.8255-96.812500485
2017-12-26 18:07:5932.8255-96.812500485
2017-12-26 17:57:5932.8255-96.812500485
2017-12-26 17:48:0032.8255-96.812500485
2017-12-26 17:38:0032.8253-96.812500474
2017-12-26 17:28:0732.8253-96.812500474
2017-12-26 17:18:0032.8253-96.812500474
2017-12-26 17:08:0032.8253-96.812500474
2017-12-26 16:57:5932.8253-96.812500474
2017-12-26 16:48:0032.8253-96.812500474
2017-12-26 16:38:0032.8253-96.812500474
2017-12-26 16:28:0032.8253-96.812500474
2017-12-26 16:18:0732.8253-96.812500474
2017-12-26 16:08:0032.8255-96.812500480
2017-12-26 15:57:5932.8253-96.812500480
2017-12-26 15:48:0032.8253-96.812500479
2017-12-26 15:38:0032.8253-96.812500479
2017-12-26 15:28:0032.8253-96.812500479
2017-12-26 15:18:0032.8253-96.812500478
2017-12-26 15:08:0032.8255-96.812200482
2017-12-26 14:58:0832.8255-96.812200482
2017-12-26 14:48:0032.8255-96.812500482
2017-12-26 14:37:5932.8255-96.812500481
2017-12-26 14:28:0532.8255-96.812500481
2017-12-26 14:18:0032.8255-96.812500481
2017-12-26 14:17:0032.8255-96.812500481
2017-12-26 14:16:0332.8255-96.812500481
2017-12-26 14:15:0032.8255-96.812500481
2017-12-26 14:14:0132.8255-96.812500481
2017-12-26 14:13:0532.8255-96.812500481
2017-12-26 14:12:0032.8255-96.812500481
2017-12-26 14:11:0432.8255-96.812500481
2017-12-26 14:10:0032.8255-96.812500481
2017-12-26 14:09:0332.8255-96.812500478
2017-12-26 14:08:0232.8255-96.812500478
2017-12-26 14:06:0032.8255-96.812500478
2017-12-26 14:05:0432.8255-96.812500478
2017-12-26 14:04:0032.8255-96.812500478
2017-12-26 14:03:0032.8255-96.812500478
2017-12-26 14:02:0032.8255-96.812500478
2017-12-26 14:01:0432.8255-96.812500478
2017-12-26 14:00:0032.8255-96.812500478
2017-12-26 13:59:0332.8255-96.812500478
2017-12-26 13:58:0032.8255-96.812500478
2017-12-26 13:57:0532.8255-96.812500478
2017-12-26 13:56:0032.8255-96.812500478
2017-12-26 13:55:0532.8255-96.812500478
2017-12-26 13:54:0032.8255-96.812500478
2017-12-26 13:53:0332.8255-96.812500478
2017-12-26 13:52:0032.8255-96.812500478
2017-12-26 13:51:0432.8255-96.812500478
2017-12-26 13:49:0332.8255-96.812500478
2017-12-26 13:48:0032.8255-96.812500478
2017-12-26 13:47:0432.8255-96.812500478
2017-12-26 13:46:0032.8255-96.812500478
2017-12-26 13:45:0332.8255-96.812500478
2017-12-26 13:44:0032.8255-96.812500478
2017-12-26 13:43:0032.8255-96.812500478
2017-12-26 13:42:0332.8255-96.812500478
2017-12-26 13:41:0032.8255-96.812500478
2017-12-26 13:40:0032.8255-96.812500478
2017-12-26 13:39:0432.8255-96.812500478
2017-12-26 13:37:5932.8255-96.812500478
2017-12-26 13:37:0332.8255-96.812500478
2017-12-26 13:36:0032.8255-96.812500478
2017-12-26 13:35:0332.8255-96.812500478
2017-12-26 13:34:0032.8255-96.812500478
2017-12-26 13:33:0332.8255-96.812500478
2017-12-26 13:32:0032.8255-96.812500478
2017-12-26 13:31:0332.8255-96.812500478
2017-12-26 13:30:0032.8255-96.812500478
2017-12-26 13:29:0332.8255-96.812500478
2017-12-26 13:28:0032.8255-96.812500478
2017-12-26 13:27:0332.8255-96.812500478
2017-12-26 13:26:0032.8255-96.812500478
2017-12-26 13:25:0532.8255-96.812500478
2017-12-26 13:24:0032.8255-96.812500481
2017-12-26 13:23:0032.8255-96.812500481
2017-12-26 13:22:0332.8255-96.812500481
2017-12-26 13:21:0032.8255-96.812500481
2017-12-26 13:20:0332.8255-96.812500481
2017-12-26 13:19:0032.8255-96.812500481
2017-12-26 13:17:0032.8255-96.812500479
2017-12-26 13:16:0032.8255-96.812500479
2017-12-26 13:15:0332.8255-96.812500479
2017-12-26 13:14:0032.8255-96.812500479
2017-12-26 13:13:0332.8255-96.812500479
2017-12-26 13:12:0032.8255-96.812500479
2017-12-26 13:11:0332.8255-96.812500479
2017-12-26 13:10:0032.8255-96.812500481
2017-12-26 13:09:0032.8255-96.812500481
2017-12-26 13:08:0332.8255-96.812500481
2017-12-26 13:07:0032.8255-96.812500481
2017-12-26 13:06:0332.8255-96.812500481
2017-12-26 13:05:0032.8255-96.812500481
2017-12-26 13:04:0032.8255-96.812500481
2017-12-26 13:03:0632.8255-96.812500481
2017-12-26 13:02:0032.8255-96.812500481
2017-12-26 13:01:0432.8255-96.812500481
2017-12-26 13:00:0032.8255-96.812500481
2017-12-26 12:59:0332.8255-96.812500481
2017-12-26 12:58:0032.8255-96.812500481
2017-12-26 12:57:0332.8255-96.812500481
2017-12-26 12:56:0032.8255-96.812500481
2017-12-26 12:55:0332.8255-96.812500481
2017-12-26 12:54:0032.8255-96.812500481
2017-12-26 12:53:0532.8255-96.812800481
2017-12-26 12:52:0032.8255-96.812800481
2017-12-26 12:51:0032.8255-96.812800481
2017-12-26 12:50:0332.8255-96.812800481
2017-12-26 12:49:0032.8255-96.812800481
2017-12-26 12:48:0432.8255-96.812800481
2017-12-26 12:47:0032.8255-96.812800481
2017-12-26 12:46:0032.8255-96.812500479
2017-12-26 12:45:0032.8255-96.812500479
2017-12-26 12:44:0032.8255-96.812500479
2017-12-26 12:43:0332.8255-96.812500479
2017-12-26 12:42:0032.8255-96.812500479
2017-12-26 12:41:0432.8255-96.812500479
2017-12-26 12:40:0032.8255-96.812500479
2017-12-26 12:39:0032.8255-96.812500478
2017-12-26 12:38:0332.8255-96.812500478
2017-12-26 12:37:0032.8255-96.812500478
2017-12-26 12:36:0432.8255-96.812500478
2017-12-26 12:35:0032.8255-96.812500478
2017-12-26 12:34:0332.8255-96.812500478
2017-12-26 12:33:0032.8255-96.812500478
2017-12-26 12:32:0432.8255-96.812500478
2017-12-26 12:31:0032.8255-96.812500478
2017-12-26 12:30:0432.8255-96.812500478
2017-12-26 12:29:0032.8255-96.812500478
2017-12-26 12:28:0232.8255-96.812500478
2017-12-26 12:27:0032.8253-96.812500478
2017-12-26 12:26:0432.8253-96.812500478
2017-12-26 12:25:0032.8253-96.812500478
2017-12-26 12:24:0332.8253-96.812500478
2017-12-26 12:23:0032.8253-96.812500478
2017-12-26 12:22:0632.8253-96.812500478
2017-12-26 12:21:0032.8253-96.812500478
2017-12-26 12:20:0632.8255-96.812500478
2017-12-26 12:19:0032.8255-96.812500478
2017-12-26 12:18:0432.8255-96.812500478
2017-12-26 12:17:0032.8255-96.812500478
2017-12-26 12:16:0332.8255-96.812500478
2017-12-26 12:15:0032.8255-96.812500478
2017-12-26 12:14:0632.8255-96.812500478
2017-12-26 12:13:0032.8255-96.812500478
2017-12-26 12:12:0532.8255-96.812500478
2017-12-26 12:11:0032.8255-96.812500478
2017-12-26 12:10:0532.8255-96.812500478
2017-12-26 12:09:0032.8255-96.812500478
2017-12-26 12:08:0432.8255-96.812500478
2017-12-26 12:07:0032.8255-96.812500478
2017-12-26 12:06:0332.8255-96.812800481
2017-12-26 12:05:0032.8255-96.812800481
2017-12-26 12:04:0432.8255-96.812800481
2017-12-26 12:03:0032.8255-96.812800481
2017-12-26 12:02:0032.8255-96.812800481
2017-12-26 12:01:0332.8255-96.812800481
2017-12-26 12:00:0032.8255-96.812800481
2017-12-26 11:59:0432.8255-96.812800481
2017-12-26 11:58:0232.8255-96.812800481
2017-12-26 11:57:0032.8255-96.812800481
2017-12-26 11:56:0532.8253-96.812500475
2017-12-26 11:55:0032.8253-96.812500475
2017-12-26 11:54:0432.8253-96.812500475
2017-12-26 11:53:0032.8253-96.812500475
2017-12-26 11:52:0032.8253-96.812500475
2017-12-26 11:51:0432.8253-96.812500475
2017-12-26 11:50:0032.8253-96.812500475
2017-12-26 11:49:0632.8253-96.812500475
2017-12-26 11:48:0032.8253-96.812500475
2017-12-26 11:47:0532.8255-96.812500478
2017-12-26 11:46:0032.8255-96.812500478
2017-12-26 11:45:0332.8255-96.812500478
2017-12-26 11:44:0032.8255-96.812500478
2017-12-26 11:43:0332.8255-96.812500478
2017-12-26 11:42:0032.8255-96.812500478
2017-12-26 11:41:0332.8255-96.812500478
2017-12-26 11:40:0032.8255-96.812500481
2017-12-26 11:39:0332.8255-96.812500481
2017-12-26 11:38:0032.8255-96.812500481
2017-12-26 11:37:0332.8255-96.812500481
2017-12-26 11:36:0032.8255-96.812500481
2017-12-26 11:35:0032.8255-96.812500481
2017-12-26 11:34:0332.8255-96.812500481
2017-12-26 11:33:0032.8255-96.812500481
2017-12-26 11:32:0332.8255-96.812500481
2017-12-26 11:31:0032.8255-96.812500481
2017-12-26 11:30:0332.8255-96.812500481
2017-12-26 11:29:0032.8255-96.812500481
2017-12-26 11:28:0032.8255-96.812500478
2017-12-26 11:27:0432.8255-96.812500478
2017-12-26 11:26:0032.8255-96.812500478
2017-12-26 11:25:0332.8255-96.812500478
2017-12-26 11:24:0032.8255-96.812500478
2017-12-26 11:23:0332.8255-96.812500478
2017-12-26 11:22:0032.8255-96.812500478
2017-12-26 11:21:0032.8255-96.812500480
2017-12-26 11:20:0332.8255-96.812500480
2017-12-26 11:19:0032.8255-96.812500480
2017-12-26 11:18:0032.8255-96.812500480
2017-12-26 11:17:0032.8255-96.812500480
2017-12-26 11:16:0032.8255-96.812500480
2017-12-26 11:15:0332.8255-96.812500480
2017-12-26 11:14:0032.8255-96.812500480
2017-12-26 11:13:0332.8255-96.812500480
2017-12-26 11:12:0032.8255-96.812500479
2017-12-26 11:11:0332.8255-96.812500479
2017-12-26 11:10:0032.8255-96.812500479
2017-12-26 11:08:0032.8255-96.812500479
2017-12-26 11:07:0332.8255-96.812500479
2017-12-26 11:06:0032.8255-96.812500479
2017-12-26 11:05:0432.8255-96.812500479
2017-12-26 11:04:0032.8255-96.812500479
2017-12-26 11:03:0332.8255-96.812500479
2017-12-26 11:02:0032.8255-96.812500479
2017-12-26 11:01:0432.8255-96.812500479
2017-12-26 11:00:0032.8255-96.812500479
2017-12-26 10:59:0432.8255-96.812500479
2017-12-26 10:58:0032.8255-96.812500479
2017-12-26 10:57:0032.8255-96.812500479
2017-12-26 10:56:0332.8255-96.812500479
2017-12-26 10:55:0032.8255-96.812500479
2017-12-26 10:54:0032.8255-96.812500479
2017-12-26 10:53:0532.8255-96.812500479
2017-12-26 10:52:0032.8255-96.812500481
2017-12-26 10:51:0432.8255-96.812500481
2017-12-26 10:50:0032.8255-96.812500481
2017-12-26 10:49:0032.8255-96.812500481
2017-12-26 10:48:0032.8255-96.812500481
2017-12-26 10:47:0632.8255-96.812500481
2017-12-26 10:46:0032.8255-96.812500479
2017-12-26 10:45:0532.8255-96.812500479
2017-12-26 10:44:0032.8255-96.812500479
2017-12-26 10:43:0532.8255-96.812500479
2017-12-26 10:42:0032.8255-96.812500479
2017-12-26 10:41:0432.8255-96.812500479
2017-12-26 10:40:0032.8255-96.812500479
2017-12-26 10:39:0032.8255-96.812500478
2017-12-26 10:38:0332.8255-96.812500478
2017-12-26 10:37:0032.8255-96.812500478
2017-12-26 10:36:0532.8255-96.812500478
2017-12-26 10:35:0032.8255-96.812500478
2017-12-26 10:34:0032.8255-96.812500478
2017-12-26 10:33:0032.8255-96.812500478
2017-12-26 10:32:0232.8255-96.812500478
2017-12-26 10:31:0032.8255-96.812500478
2017-12-26 10:30:0032.8255-96.812500478
2017-12-26 10:29:0532.8255-96.812500478
2017-12-26 10:28:0032.8255-96.812500483
2017-12-26 10:27:0432.8255-96.812500483
2017-12-26 10:26:0032.8255-96.812500483
2017-12-26 10:25:0332.8255-96.812500483
2017-12-26 10:24:0032.8255-96.812500483
2017-12-26 10:23:0532.8255-96.812500483
2017-12-26 10:22:0032.8255-96.812500483
2017-12-26 10:21:0332.8255-96.812500479
2017-12-26 10:20:0032.8255-96.812500479
2017-12-26 10:19:0432.8255-96.812500479
2017-12-26 10:18:0032.8255-96.812500479
2017-12-26 10:17:0432.8255-96.812500479
2017-12-26 10:16:0032.8255-96.812500479
2017-12-26 10:15:0432.8255-96.812500479
2017-12-26 10:14:0032.8255-96.812500479
2017-12-26 10:13:0532.8255-96.812500479
2017-12-26 10:12:0032.8255-96.812500481
2017-12-26 10:11:0432.8255-96.812500481
2017-12-26 10:10:0032.8255-96.812500481
2017-12-26 10:09:0332.8255-96.812500481
2017-12-26 10:08:0032.8255-96.812500481
2017-12-26 10:07:0432.8255-96.812500481
2017-12-26 10:06:0032.8255-96.812500481
2017-12-26 10:05:0432.8255-96.812500481
2017-12-26 10:04:0032.8255-96.812500481
2017-12-26 10:03:0432.8255-96.812500481
2017-12-26 10:02:0032.8255-96.812500481
2017-12-26 10:01:0332.8255-96.812500481
2017-12-26 10:00:0032.8255-96.812500481
2017-12-26 09:59:0432.8255-96.812500481
2017-12-26 09:58:0032.8255-96.812500481
2017-12-26 09:57:0432.8253-96.812500475
2017-12-26 09:56:0032.8253-96.812500475
2017-12-26 09:55:0432.8253-96.812500475
2017-12-26 09:54:0032.8253-96.812500475
2017-12-26 09:53:0532.8253-96.812500475
2017-12-26 09:52:0032.8253-96.812500475
2017-12-26 09:51:0332.8255-96.812500479
2017-12-26 09:50:0032.8255-96.812500479
2017-12-26 09:49:0032.8255-96.812500479
2017-12-26 09:48:0432.8255-96.812500479
2017-12-26 09:47:0032.8255-96.812500479
2017-12-26 09:46:0332.8255-96.812500479
2017-12-26 09:45:0032.8255-96.812500479
2017-12-26 09:44:0332.8255-96.812500479
2017-12-26 09:43:0032.8255-96.812500479
2017-12-26 09:42:0032.8255-96.812500479
2017-12-26 09:41:0532.8255-96.812500479
2017-12-26 09:40:0032.8255-96.812500479
2017-12-26 09:39:0032.8255-96.812500481
2017-12-26 09:38:0432.8255-96.812500481
2017-12-26 09:37:0032.8255-96.812500481
2017-12-26 09:36:0032.8255-96.812500481
2017-12-26 09:35:0432.8255-96.812500481
2017-12-26 09:34:0032.8255-96.812500481
2017-12-26 09:33:0332.8255-96.812500481
2017-12-26 09:32:0032.8255-96.812500481
2017-12-26 09:31:0432.8255-96.812500481
2017-12-26 09:30:0032.8255-96.812500481
2017-12-26 09:29:0032.8255-96.812500481
2017-12-26 09:28:0032.8255-96.812500481
2017-12-26 09:27:0332.8255-96.812500481
2017-12-26 09:26:0032.8255-96.812500481
2017-12-26 09:25:0532.8255-96.812500481
2017-12-26 09:24:0032.8255-96.812500481
2017-12-26 09:23:0532.8255-96.812500481
2017-12-26 09:22:0032.8255-96.812500481
2017-12-26 09:21:0432.8255-96.812500478
2017-12-26 09:20:0032.8255-96.812500478
2017-12-26 09:19:0332.8255-96.812500478
2017-12-26 09:18:0032.8255-96.812500478
2017-12-26 09:17:0032.8255-96.812500478
2017-12-26 09:16:0532.8255-96.812500478
2017-12-26 09:15:0032.8255-96.812500478
2017-12-26 09:14:0332.8255-96.812500478
2017-12-26 09:13:0032.8255-96.812500478
2017-12-26 09:12:0032.8255-96.812500478
2017-12-26 09:11:0332.8255-96.812500478
2017-12-26 09:10:0032.8255-96.812500478
2017-12-26 09:09:0532.8255-96.812500478
2017-12-26 09:08:0032.8255-96.812500479
2017-12-26 09:07:0032.8255-96.812500479
2017-12-26 09:06:0432.8255-96.812500479
2017-12-26 09:05:0032.8255-96.812500479
2017-12-26 09:04:0432.8255-96.812500479
2017-12-26 09:03:0032.8255-96.812500479
2017-12-26 09:02:0432.8255-96.812500479
2017-12-26 09:01:0132.8255-96.812500479
2017-12-26 09:00:0032.8255-96.812500479
2017-12-26 08:59:0432.8255-96.812500481
2017-12-26 08:58:0032.8255-96.812500481
2017-12-26 08:57:0332.8255-96.812500481
2017-12-26 08:56:0032.8255-96.812500481
2017-12-26 08:55:0632.8255-96.812500481
2017-12-26 08:54:0032.8255-96.812500481
2017-12-26 08:53:0532.8255-96.812500481
2017-12-26 08:52:0032.8255-96.812500479
2017-12-26 08:51:0532.8255-96.812500479
2017-12-26 08:50:0032.8255-96.812500479
2017-12-26 08:49:0332.8255-96.812500479
2017-12-26 08:48:0032.8255-96.812500479
2017-12-26 08:47:0632.8255-96.812500479
2017-12-26 08:46:0032.8255-96.812500479
2017-12-26 08:45:0032.8253-96.812500478
2017-12-26 08:44:0432.8253-96.812500478
2017-12-26 08:43:0032.8253-96.812500478
2017-12-26 08:42:0332.8253-96.812500478
2017-12-26 08:41:0032.8253-96.812500478
2017-12-26 08:40:0432.8253-96.812500478
2017-12-26 08:39:0032.8253-96.812500478
2017-12-26 08:38:0332.8255-96.812500483
2017-12-26 08:37:0032.8255-96.812500483
2017-12-26 08:36:0332.8255-96.812500483
2017-12-26 08:35:0032.8255-96.812500483
2017-12-26 08:34:0332.8255-96.812500483
2017-12-26 08:33:0032.8255-96.812500483
2017-12-26 08:32:0332.8255-96.812500483
2017-12-26 08:31:0032.8255-96.812500478
2017-12-26 08:30:0632.8255-96.812500478
2017-12-26 08:29:0032.8255-96.812500478
2017-12-26 08:28:0532.8255-96.812500478
2017-12-26 08:27:0032.8255-96.812500478
2017-12-26 08:26:0532.8255-96.812500478
2017-12-26 08:25:0032.8255-96.812500478
2017-12-26 08:24:0432.8255-96.812500478
2017-12-26 08:23:0032.8255-96.812500478
2017-12-26 08:22:0232.8255-96.812500478
2017-12-26 08:21:0032.8255-96.812500478
2017-12-26 08:20:0532.8255-96.812500478
2017-12-26 08:19:0032.8255-96.812500481
2017-12-26 08:18:0332.8255-96.812500481
2017-12-26 08:17:0032.8255-96.812500481
2017-12-26 08:16:0532.8255-96.812500481
2017-12-26 08:15:0032.8255-96.812500481
2017-12-26 08:14:0632.8255-96.812500481
2017-12-26 08:13:0032.8255-96.812500481
2017-12-26 08:12:0532.8255-96.812500481
2017-12-26 08:11:0032.8255-96.812500481
2017-12-26 08:10:0332.8255-96.812500481
2017-12-26 08:09:0032.8255-96.812500481
2017-12-26 08:08:0432.8255-96.812500481
2017-12-26 08:07:0032.8255-96.812500481
2017-12-26 08:06:0332.8255-96.812500481
2017-12-26 08:05:0032.8255-96.812500481
2017-12-26 08:04:0032.8255-96.812500481
2017-12-26 08:03:0032.8255-96.812500480
2017-12-26 08:02:0032.8255-96.812500480
2017-12-26 08:01:0032.8255-96.812500480
2017-12-26 08:00:0132.8255-96.812500480
2017-12-26 07:59:0132.8255-96.812500480
2017-12-26 07:58:0132.8255-96.812500480
2017-12-26 07:57:0132.8255-96.812500480
2017-12-26 07:56:0032.8255-96.812500479
2017-12-26 07:55:0032.8255-96.812500479
2017-12-26 07:54:0132.8255-96.812500479
2017-12-26 07:53:0132.8255-96.812500479
2017-12-26 07:52:0032.8255-96.812500479
2017-12-26 07:51:0132.8255-96.812500479
2017-12-26 07:50:0032.8255-96.812500479
2017-12-26 07:49:0132.8255-96.812500479
2017-12-26 07:48:0132.8255-96.812500479
2017-12-26 07:47:0132.8255-96.812500478
2017-12-26 07:46:0032.8255-96.812500478
2017-12-26 07:45:0032.8255-96.812500478
2017-12-26 07:44:0032.8255-96.812500478
2017-12-26 07:43:0232.8255-96.812500478
2017-12-26 07:42:0132.8255-96.812500478
2017-12-26 07:41:0032.8255-96.812500478
2017-12-26 07:40:0132.8255-96.812800480
2017-12-26 07:39:0032.8255-96.812800480
2017-12-26 07:38:0032.8255-96.812800480
2017-12-26 07:37:0032.8255-96.812800480
2017-12-26 07:35:0032.8255-96.812800480
2017-12-26 07:34:0032.8255-96.812800480
2017-12-26 07:33:0132.8255-96.812800480
2017-12-26 07:32:0032.8255-96.812800480
2017-12-26 07:31:0032.8255-96.812800480
2017-12-26 07:30:0032.8255-96.812800480
2017-12-26 07:29:0032.8255-96.812800480
2017-12-26 07:28:0032.8255-96.812500480
2017-12-26 07:27:0032.8255-96.812500480
2017-12-26 07:26:0032.8255-96.812500480
2017-12-26 07:25:0032.8255-96.812500480
2017-12-26 07:24:0032.8255-96.812500480
2017-12-26 07:23:0032.8255-96.812500480
2017-12-26 07:22:0032.8255-96.812500480
2017-12-26 07:21:0032.8255-96.812500480
2017-12-26 07:20:0032.8255-96.812500480
2017-12-26 07:19:0032.8255-96.812500480
2017-12-26 07:18:0032.8255-96.812500480
2017-12-26 07:17:0032.8255-96.812500480
2017-12-26 07:16:0032.8255-96.812500480
2017-12-26 07:15:0032.8255-96.812500480
2017-12-26 07:14:0132.8255-96.812500480
2017-12-26 07:13:0032.8255-96.812500480
2017-12-26 07:12:0032.8255-96.812500480
2017-12-26 07:11:0032.8255-96.812500480
2017-12-26 07:10:0032.8255-96.812500480
2017-12-26 07:09:0032.8255-96.812500480
2017-12-26 07:08:0032.8255-96.812500479
2017-12-26 07:07:0032.8255-96.812500479
2017-12-26 07:06:0032.8255-96.812500479
2017-12-26 07:05:0032.8255-96.812500479
2017-12-26 07:04:0032.8255-96.812500479
2017-12-26 07:03:0032.8255-96.812500479
2017-12-26 07:02:0032.8255-96.812500479
2017-12-26 07:01:0032.8255-96.812500479
2017-12-26 07:00:0032.8255-96.812500479
2017-12-26 06:59:0032.8255-96.812500479
2017-12-26 06:58:0032.8255-96.812500479
2017-12-26 06:57:0032.8255-96.812500479
2017-12-26 06:56:0032.8255-96.812500479
2017-12-26 06:55:0032.8255-96.812500479
2017-12-26 06:54:0032.8255-96.812500479
2017-12-26 06:53:0032.8255-96.812500479
2017-12-26 06:52:0032.8255-96.812500479
2017-12-26 06:51:0032.8255-96.812500479
2017-12-26 06:50:0032.8255-96.812500479
2017-12-26 06:49:0032.8255-96.812500479
2017-12-26 06:48:0032.8255-96.812500479
2017-12-26 06:47:0032.8255-96.812500479
2017-12-26 06:46:0032.8255-96.812500479
2017-12-26 06:45:0032.8255-96.812500481
2017-12-26 06:44:0032.8255-96.812500481
2017-12-26 06:43:0032.8255-96.812500481
2017-12-26 06:42:0032.8255-96.812500481
2017-12-26 06:41:0032.8255-96.812500481
2017-12-26 06:40:0032.8255-96.812500481
2017-12-26 06:39:0032.8255-96.812500481
2017-12-26 06:38:0032.8255-96.812500481
2017-12-26 06:37:0032.8255-96.812500481
2017-12-26 06:36:0032.8255-96.812500481
2017-12-26 06:35:0032.8255-96.812500481
2017-12-26 06:34:0032.8255-96.812500481
2017-12-26 06:33:0032.8255-96.812500481
2017-12-26 06:28:0132.8255-96.812500481
2017-12-26 06:18:0032.8255-96.812500481
2017-12-26 06:08:0032.8255-96.812500481
2017-12-26 05:58:0032.8255-96.812500481
2017-12-26 05:48:0032.8255-96.812500481
2017-12-26 05:38:0032.8255-96.812500481
2017-12-26 05:37:0032.8255-96.812500481
2017-12-26 05:36:0032.8255-96.812500481
2017-12-26 05:35:0032.8255-96.812500481
2017-12-26 05:34:0032.8255-96.812500481
2017-12-26 05:33:0032.8255-96.812500481
2017-12-26 05:32:0032.8255-96.812500481
2017-12-26 05:31:0032.8255-96.812500481
2017-12-26 05:30:0032.8255-96.812500481
2017-12-26 05:29:0032.8255-96.812500481
2017-12-26 05:28:0032.8255-96.812500481
2017-12-26 05:27:0032.8255-96.812500481
2017-12-26 05:26:0032.8255-96.812500481
2017-12-26 05:25:0132.8255-96.812500481
2017-12-26 05:24:0032.8255-96.812500481
2017-12-26 05:23:0032.8255-96.812500481
2017-12-26 05:22:0032.8255-96.812500481
2017-12-26 05:21:0032.8255-96.812500481
2017-12-26 05:20:0032.8255-96.812500481
2017-12-26 05:19:0032.8255-96.812500481
2017-12-26 05:18:0032.8255-96.812500481
2017-12-26 05:17:0032.8255-96.812500481
2017-12-26 05:16:0032.8255-96.812500481
2017-12-26 05:15:0032.8255-96.812500481
2017-12-26 05:14:0032.8255-96.812500481
2017-12-26 05:13:0032.8255-96.812500481
2017-12-26 05:12:0032.8255-96.812500481
2017-12-26 05:11:0032.8255-96.812500481
2017-12-26 05:10:0032.8255-96.812500481
2017-12-26 05:09:0032.8255-96.812500481
2017-12-26 05:08:0032.8255-96.812500481
2017-12-26 05:07:0032.8253-96.812500479
2017-12-26 05:06:0032.8253-96.812500479
2017-12-26 05:05:0032.8253-96.812500479
2017-12-26 05:04:0032.8253-96.812500479
2017-12-26 05:03:0032.8253-96.812500479
2017-12-26 05:02:0032.8253-96.812500479
2017-12-26 05:01:0032.8253-96.812500479
2017-12-26 05:00:0032.8253-96.812500479
2017-12-26 04:59:0032.8253-96.812500479
2017-12-26 04:58:0032.8253-96.812500479
2017-12-26 04:57:0032.8253-96.812500479
2017-12-26 04:56:0032.8253-96.812500479
2017-12-26 04:55:0032.8253-96.812500479
2017-12-26 04:54:0032.8253-96.812500479
2017-12-26 04:47:0032.8253-96.812500479
2017-12-26 04:37:0032.8253-96.812500479
2017-12-26 04:27:0032.8253-96.812500479
2017-12-26 04:07:0032.8255-96.812500482
2017-12-26 03:57:0032.8255-96.812500482
2017-12-26 03:47:0032.8255-96.812500482
2017-12-26 03:37:0032.8255-96.812500482
2017-12-26 03:27:0032.8255-96.812500482
2017-12-26 03:17:0032.8255-96.812500482
2017-12-26 03:07:0032.8255-96.812500482
2017-12-26 02:57:0032.8255-96.812500482
2017-12-26 02:47:0032.8255-96.812500482
2017-12-26 02:37:0032.8255-96.812500482
2017-12-26 02:27:0032.8255-96.812500482
2017-12-26 02:17:0032.8255-96.812500482
2017-12-26 02:07:0032.8255-96.812500482
2017-12-26 01:57:0032.8255-96.812500482
2017-12-26 01:47:0032.8255-96.812500482
2017-12-26 01:37:0032.8255-96.812500482
2017-12-26 01:27:0032.8255-96.812500482
2017-12-26 01:17:0032.8255-96.812500482
2017-12-26 01:07:0032.8255-96.812500482
2017-12-26 00:57:0032.8255-96.812500482
2017-12-26 00:47:0032.8255-96.812500482
2017-12-26 00:37:0032.8255-96.812500482
2017-12-26 00:27:0132.8255-96.812500482
2017-12-26 00:17:0032.8255-96.812500482
2017-12-26 00:16:0032.8255-96.812500482
2017-12-26 00:15:0032.8255-96.812500482
2017-12-26 00:14:0032.8255-96.812500482
2017-12-26 00:13:0032.8255-96.812500482
2017-12-26 00:12:0032.8255-96.812500482
2017-12-26 00:11:0032.8255-96.812500482
2017-12-26 00:10:0032.8255-96.812500482
2017-12-26 00:09:0032.8255-96.812500482
2017-12-26 00:08:0032.8255-96.812500482
2017-12-26 00:07:0032.8255-96.812500482
2017-12-26 00:06:0032.8255-96.812500482
2017-12-26 00:05:0032.8255-96.812500482
2017-12-26 00:04:0032.8255-96.812500482
2017-12-26 00:03:0032.8255-96.812500481
2017-12-26 00:02:0032.8255-96.812500481
2017-12-26 00:01:0032.8255-96.812500481
2017-12-25 23:59:2532.8255-96.812500446
2017-12-24 08:51:1132.8255-96.812800448
2017-12-24 08:50:0832.8255-96.812800448
2017-12-24 08:49:0832.8255-96.812800448
2017-12-24 08:48:0832.8255-96.812800448
2017-12-24 08:47:0832.8255-96.812800448
2017-12-24 08:46:0832.8255-96.812800448
2017-12-24 08:45:0832.8255-96.812800448
2017-12-24 08:44:0832.8255-96.812800448
2017-12-24 08:43:0832.8255-96.812800448
2017-12-24 08:42:0832.8255-96.812800448
2017-12-24 08:41:0832.8255-96.812800448
2017-12-24 08:40:0832.8255-96.812800448
2017-12-24 08:39:0932.8255-96.812800448
2017-12-24 08:38:0832.8255-96.812800448
2017-12-24 08:37:0832.8255-96.812800448
2017-12-24 08:36:0832.8255-96.812800448
2017-12-24 08:35:0832.8255-96.812800448
2017-12-24 08:34:0832.8255-96.812800448
2017-12-24 08:33:0832.8255-96.812800448
2017-12-24 08:25:0932.8253-96.812200451
2017-12-24 08:15:0832.8253-96.812500494
2017-12-24 08:05:0832.8255-96.812500480
2017-12-24 07:55:0832.8255-96.812500481
2017-12-24 07:45:0832.8255-96.812500484
2017-12-24 07:35:0832.8255-96.812500484
2017-12-24 07:25:0832.8255-96.81252650441
2017-12-24 07:15:0832.8255-96.812500482
2017-12-24 07:05:0832.8253-96.812500479
2017-12-24 06:55:0832.8253-96.812500479
2017-12-24 06:45:0832.8255-96.811326012493
2017-12-24 06:35:0832.8238-96.77440598
2017-12-24 06:33:3632.8238-96.7700575
2017-12-24 06:24:3432.8242-96.769700528
2017-12-24 06:14:3532.8242-96.769700528
2017-12-24 06:04:3532.8242-96.769700528
2017-12-24 05:54:3532.8242-96.769700528
2017-12-24 05:44:3532.8242-96.769700528
2017-12-24 05:34:3532.8242-96.769700528
2017-12-24 05:24:3632.8242-96.769700528
2017-12-24 05:23:0332.8238-96.769700473
2017-12-24 02:26:2432.8158-96.792200510
2017-12-24 02:16:2432.8158-96.79200481
2017-12-24 02:06:2432.8158-96.79200516
2017-12-24 01:56:2432.8162-96.792390516
2017-12-24 01:46:2432.8158-96.79200441
2017-12-24 01:36:2432.8158-96.79200444
2017-12-24 01:26:2432.8162-96.792501443
2017-12-24 01:16:2432.8158-96.792200511
2017-12-24 01:06:2532.8172-96.79958926466
2017-12-24 00:56:2432.8255-96.812500494
2017-12-24 00:55:2432.8255-96.812500443
2017-12-24 00:54:2432.8255-96.812500443
2017-12-24 00:53:2432.8255-96.812500443
2017-12-24 00:52:2432.8255-96.812500443
2017-12-24 00:51:2432.8255-96.812500443
2017-12-24 00:50:2432.8255-96.812500443
2017-12-24 00:49:2532.8255-96.812500443
2017-12-24 00:48:2432.8255-96.812500443
2017-12-24 00:47:2432.8255-96.812500443
2017-12-24 00:46:2632.8255-96.812500443
2017-12-24 00:45:2432.8255-96.812500443
2017-12-24 00:44:2532.8255-96.812500443
2017-12-24 00:43:2532.8255-96.812500443
2017-12-24 00:42:2432.8255-96.812500443
2017-12-24 00:41:2432.8255-96.812500443
2017-12-24 00:40:2432.8255-96.812500443
2017-12-24 00:39:2432.8255-96.812500443
2017-12-24 00:38:2432.8255-96.812500443
2017-12-24 00:37:2432.8255-96.812500443
2017-12-24 00:36:2432.8255-96.812500443
2017-12-24 00:35:2732.8255-96.812500443
2017-12-24 00:34:2532.8255-96.812500443
2017-12-24 00:33:2432.8255-96.812500443
2017-12-24 00:32:2532.8255-96.812500443
2017-12-24 00:31:2432.8255-96.812500443
2017-12-24 00:30:2432.8255-96.812500443
2017-12-24 00:29:2632.8255-96.812500443
2017-12-24 00:28:2432.8255-96.812500443
2017-12-24 00:27:2432.8255-96.812500443
2017-12-24 00:26:2532.8255-96.812500443
2017-12-24 00:25:2532.8255-96.812500443
2017-12-24 00:24:2432.8255-96.812500443
2017-12-24 00:23:2432.8255-96.812500443
2017-12-24 00:22:2432.8255-96.812500443
2017-12-24 00:21:2432.8255-96.812500443
2017-12-24 00:20:2432.8255-96.812500443
2017-12-24 00:19:2432.8255-96.812500443
2017-12-24 00:18:2432.8255-96.812500443
2017-12-24 00:17:2432.8255-96.812500443
2017-12-24 00:16:2432.8255-96.812500443
2017-12-24 00:15:2732.8255-96.812500443
2017-12-24 00:14:2432.8255-96.812500443
2017-12-24 00:13:2532.8255-96.812500443
2017-12-24 00:12:2432.8255-96.812500443
2017-12-24 00:11:2432.8255-96.812500443
2017-12-24 00:10:2432.8255-96.812500443
2017-12-24 00:09:2432.8255-96.812500443
2017-12-24 00:08:2432.8255-96.812500443
2017-12-24 00:07:2432.8255-96.812500443
2017-12-24 00:06:2432.8255-96.812500443
2017-12-24 00:05:2432.8255-96.812500443
2017-12-24 00:04:2432.8255-96.812500443
2017-12-23 23:59:2432.8255-96.812500481
2017-12-23 23:49:2532.8255-96.812500480
2017-12-23 23:39:2832.8255-96.812500442
2017-12-23 23:29:2532.8253-96.812500479
2017-12-23 23:19:2632.8253-96.812500479
2017-12-23 22:59:2432.8258-96.820800451
2017-12-23 22:49:2532.8258-96.820801451
2017-12-23 22:39:2532.8258-96.820801492
2017-12-23 22:29:2432.8253-96.812500493
2017-12-23 22:19:2632.8255-96.812500483
2017-12-23 22:09:2432.8255-96.812500482
2017-12-23 21:59:2532.8255-96.812500484
2017-12-23 21:49:2532.8255-96.812500483
2017-12-23 21:39:2432.8255-96.812500484
2017-12-23 21:29:2532.8255-96.812500484
2017-12-23 21:19:2432.8255-96.812500482
2017-12-23 21:09:2532.8255-96.812500484
2017-12-23 20:59:2632.8253-96.812500481
2017-12-23 20:49:2532.8253-96.812500480
2017-12-23 20:39:2532.8253-96.812500483
2017-12-23 20:29:2532.8255-96.812500442
2017-12-23 20:19:2732.8255-96.812500485
2017-12-23 20:09:2532.8255-96.812500482
2017-12-23 19:59:2532.8253-96.812500479
2017-12-23 19:49:2532.8255-96.812500482
2017-12-23 19:39:2532.8255-96.812500483
2017-12-23 19:29:2532.8253-96.812500479
2017-12-23 19:19:2532.8253-96.812500492
2017-12-23 19:09:2532.807-96.81700449
2017-12-23 18:59:2532.8133-96.8082300482
2017-12-23 18:49:2532.8133-96.80800482
2017-12-23 18:39:2532.8133-96.807800478
2017-12-23 18:19:2532.8228-96.802210494
2017-12-23 18:09:2532.8155-96.800800478
2017-12-23 17:59:2532.8153-96.8012910482
2017-12-23 17:49:2532.8255-96.812500493
2017-12-23 17:39:2532.8253-96.812500493
2017-12-23 17:37:5332.8253-96.812500483
2017-12-23 15:56:0032.8253-96.812500481
2017-12-23 15:46:0032.8253-96.812500481
2017-12-23 15:36:0032.8253-96.812500481
2017-12-23 15:26:0132.8253-96.812500481
2017-12-23 15:16:0032.8253-96.812500481
2017-12-23 15:06:0032.8253-96.812500481
2017-12-23 14:56:0032.8253-96.812500481
2017-12-23 14:46:0132.8255-96.812500485
2017-12-23 14:36:0032.8255-96.812500485
2017-12-23 14:26:0032.8255-96.812500484
2017-12-23 14:16:0032.8255-96.812500485
2017-12-23 14:06:0032.8255-96.812500482
2017-12-23 14:05:0032.8255-96.812500482
2017-12-23 14:02:0032.8255-96.812500482
2017-12-23 14:01:0032.8255-96.812500482
2017-12-23 14:00:0032.8255-96.812500482
2017-12-23 13:59:0032.8255-96.812500482
2017-12-23 13:58:0032.8255-96.812500482
2017-12-23 13:57:0032.8255-96.812500482
2017-12-23 13:56:0332.8255-96.812500482
2017-12-23 13:55:0032.8255-96.812500482
2017-12-23 13:54:0332.8255-96.812500482
2017-12-23 13:53:0032.8255-96.812500482
2017-12-23 13:52:0332.8255-96.812500482
2017-12-23 13:51:0032.8255-96.812500482
2017-12-23 13:50:0332.8255-96.812500482
2017-12-23 13:49:0032.8255-96.812500482
2017-12-23 13:48:0432.8255-96.812500482
2017-12-23 13:47:0032.8255-96.812500482
2017-12-23 13:46:0632.8255-96.812500474
2017-12-23 13:45:0032.8255-96.812500474
2017-12-23 13:44:0332.8255-96.812500474
2017-12-23 13:43:0032.8255-96.812500474
2017-12-23 13:42:0332.8255-96.812500474
2017-12-23 13:41:0032.8255-96.812500474
2017-12-23 13:40:0632.8255-96.812500474
2017-12-23 13:39:0032.8255-96.812500474
2017-12-23 13:38:0032.8255-96.812500474
2017-12-23 13:37:0332.8255-96.812500474
2017-12-23 13:36:0032.8255-96.812500474
2017-12-23 13:35:0332.8255-96.812500474
2017-12-23 13:34:0032.8255-96.812500474
2017-12-23 13:33:0432.8255-96.812500474
2017-12-23 13:32:0032.8255-96.812500474
2017-12-23 13:31:0032.8255-96.812500474
2017-12-23 13:30:0032.8255-96.812500474
2017-12-23 13:29:0032.8255-96.812500484
2017-12-23 13:28:0032.8255-96.812500484
2017-12-23 13:27:0032.8255-96.812500484
2017-12-23 13:26:0032.8255-96.812500484
2017-12-23 13:25:0032.8255-96.812500484
2017-12-23 13:24:0032.8255-96.812500484
2017-12-23 13:23:0032.8255-96.812500484
2017-12-23 13:22:0032.8255-96.812500484
2017-12-23 13:21:0032.8255-96.812500484
2017-12-23 13:20:0032.8255-96.812500484
2017-12-23 13:19:0032.8255-96.812500484
2017-12-23 13:18:0032.8255-96.812500484
2017-12-23 13:17:0032.8255-96.812500484
2017-12-23 13:05:0032.8255-96.812500484
2017-12-23 12:55:0032.8253-96.812500484
2017-12-23 12:45:0432.8255-96.812500484
2017-12-23 12:35:0532.8255-96.812500483
2017-12-23 12:25:0032.8255-96.812500484
2017-12-23 12:15:0332.8253-96.812500483
2017-12-23 12:05:0232.8255-96.812500484
2017-12-23 11:55:0032.8255-96.812500484
2017-12-23 11:45:0432.8255-96.812500484
2017-12-23 11:35:0432.8255-96.812500484
2017-12-23 11:25:0432.8255-96.812500484
2017-12-23 11:15:0432.8255-96.812500483
2017-12-23 11:05:0632.8255-96.812500484
2017-12-23 10:55:0332.8255-96.812500481
2017-12-23 10:45:0432.8253-96.812500483
2017-12-23 10:35:0032.8255-96.812500482
2017-12-23 10:25:0032.8255-96.812500483
2017-12-23 10:15:0432.8255-96.812500484
2017-12-23 10:05:0432.8255-96.812500483
2017-12-23 09:55:0532.8255-96.812500483
2017-12-23 09:45:0032.8255-96.812500483
2017-12-23 09:35:0432.8255-96.812500482
2017-12-23 09:25:0532.8255-96.812500482
2017-12-23 09:15:0632.8255-96.812500481
2017-12-23 09:05:0632.8255-96.812500476
2017-12-23 08:55:0432.8255-96.812500484
2017-12-23 08:45:0432.8255-96.812500484
2017-12-23 08:35:0432.8255-96.812500484
2017-12-23 08:25:0432.8255-96.812500484
2017-12-23 08:15:0032.8255-96.812500484
2017-12-23 08:05:0032.8255-96.812500481
2017-12-23 07:55:0432.8255-96.812500481
2017-12-23 07:45:0032.8255-96.812500481
2017-12-23 07:35:0532.8253-96.812500481
2017-12-23 07:25:0532.8253-96.812500480
2017-12-23 07:15:0432.8255-96.812500479
2017-12-23 07:05:0432.8253-96.812500473
2017-12-23 06:55:0632.8255-96.812500483
2017-12-23 06:45:0432.8255-96.812500483
2017-12-23 06:35:0432.8255-96.812500483
2017-12-23 06:25:0032.8253-96.812500483
2017-12-23 06:24:0332.8253-96.812500483
2017-12-23 06:23:0132.8253-96.812500483
2017-12-23 06:22:0132.8253-96.812500483
2017-12-23 06:21:0532.8253-96.812500483
2017-12-23 06:20:0232.8253-96.812500483
2017-12-23 06:19:0532.8253-96.812500483
2017-12-23 06:18:0132.8253-96.812500484
2017-12-23 06:17:0432.8253-96.812500484
2017-12-23 06:16:0132.8253-96.812500484
2017-12-23 06:15:0132.8253-96.812500484
2017-12-23 06:14:0132.8253-96.812500484
2017-12-23 06:13:0132.8253-96.812500484
2017-12-23 06:12:0532.8253-96.812500484
2017-12-23 06:11:0132.8253-96.812500484
2017-12-23 06:10:0432.8253-96.812500484
2017-12-23 06:09:0232.8253-96.812500484
2017-12-23 06:08:0032.8253-96.812500484
2017-12-23 06:07:0032.8253-96.812500484
2017-12-23 06:06:0432.8253-96.812500484
2017-12-23 06:05:0032.8253-96.812500485
2017-12-23 06:04:0132.8253-96.812500485
2017-12-23 06:03:0532.8253-96.812500485
2017-12-23 06:02:0132.8253-96.812500485
2017-12-23 06:01:0432.8253-96.812500485
2017-12-23 06:00:0032.8253-96.812500485
2017-12-23 05:59:0032.8253-96.812500485
2017-12-23 05:58:0032.8253-96.812500481
2017-12-23 05:57:0432.8253-96.812500481
2017-12-23 05:56:0132.8253-96.812500481
2017-12-23 05:55:0332.8253-96.812500481
2017-12-23 05:54:0032.8253-96.812500481
2017-12-23 05:53:0432.8253-96.812500481
2017-12-23 05:52:0132.8253-96.812500481
2017-12-23 05:51:0032.8253-96.812500481
2017-12-23 05:50:0432.8253-96.812500481
2017-12-23 05:49:0032.8253-96.812500481
2017-12-23 05:48:0332.8253-96.812500481
2017-12-23 05:47:0132.8253-96.812500481
2017-12-23 05:46:0332.8253-96.812500481
2017-12-23 05:45:0132.8253-96.812500481
2017-12-23 05:44:0432.8253-96.812500481
2017-12-23 05:43:0032.8253-96.812500481
2017-12-23 05:42:0532.8253-96.812500481
2017-12-23 05:41:0032.8255-96.812500481
2017-12-23 05:39:0132.8255-96.812500481
2017-12-23 05:38:0132.8255-96.812500481
2017-12-23 05:37:0432.8255-96.812500481
2017-12-23 05:36:0132.8255-96.812500481
2017-12-23 05:35:0632.8255-96.812500481
2017-12-23 05:34:0132.8253-96.812500480
2017-12-23 05:33:0532.8253-96.812500480
2017-12-23 05:32:0132.8253-96.812500480
2017-12-23 05:31:0132.8253-96.812500480
2017-12-23 05:30:0632.8253-96.812500480
2017-12-23 05:29:0032.8253-96.812500480
2017-12-23 05:28:0132.8253-96.812500480
2017-12-23 05:27:0132.8253-96.812500480
2017-12-23 05:26:0632.8253-96.812500480
2017-12-23 05:25:0132.8253-96.812500480
2017-12-23 05:24:0532.8253-96.812500480
2017-12-23 05:23:0032.8253-96.812500480
2017-12-23 05:22:0032.8253-96.812500480
2017-12-23 05:21:0332.8253-96.812500480
2017-12-23 05:20:0032.8253-96.812500480
2017-12-23 05:19:0032.8253-96.812500480
2017-12-23 05:18:0432.8253-96.812500480
2017-12-23 05:17:0032.8253-96.812500480
2017-12-23 05:16:0032.8253-96.812500480
2017-12-23 05:15:0532.8253-96.812500480
2017-12-23 05:14:0032.8253-96.812500480
2017-12-23 05:13:0432.8253-96.812500480
2017-12-23 05:12:0032.8253-96.812500480
2017-12-23 05:11:0532.8253-96.812500480
2017-12-23 05:10:0132.8253-96.812500480
2017-12-23 05:09:0432.8253-96.812500480
2017-12-23 05:08:0132.8253-96.812500480
2017-12-23 05:07:0132.8253-96.812500478
2017-12-23 05:06:0132.8253-96.812500478
2017-12-23 05:05:0432.8253-96.812500478
2017-12-23 05:04:0132.8253-96.812500478
2017-12-23 05:03:0632.8253-96.812500478
2017-12-23 05:02:0132.8253-96.812500478
2017-12-23 05:01:0632.8253-96.812500478
2017-12-23 05:00:0032.8253-96.812500478
2017-12-23 04:59:0732.8253-96.812500478
2017-12-23 04:58:0132.8253-96.812500478
2017-12-23 04:57:0732.8255-96.812500482
2017-12-23 04:56:0132.8255-96.812500482
2017-12-23 04:55:0432.8255-96.812500482
2017-12-23 04:54:0032.8255-96.812500482
2017-12-23 04:53:0032.8255-96.812500482
2017-12-23 04:52:0532.8255-96.812500482
2017-12-23 04:51:0132.8255-96.812500482
2017-12-23 04:50:0132.8255-96.812500482
2017-12-23 04:49:0532.8255-96.812500482
2017-12-23 04:48:0032.8255-96.812500482
2017-12-23 04:47:0432.8255-96.812500482
2017-12-23 04:46:0132.8255-96.812500482
2017-12-23 04:45:0132.8255-96.812500482
2017-12-23 04:44:0432.8255-96.812500482
2017-12-23 04:43:0132.8255-96.812500482
2017-12-23 04:42:0432.8255-96.812500482
2017-12-23 04:41:0032.8253-96.812500483
2017-12-23 04:40:0032.8253-96.812500483
2017-12-23 04:39:0032.8253-96.812500483
2017-12-23 04:38:0032.8253-96.812500483
2017-12-23 04:37:0032.8253-96.812500483
2017-12-23 04:36:0132.8253-96.812500483
2017-12-23 04:35:0132.8253-96.812500483
2017-12-23 04:34:0532.8253-96.812500483
2017-12-23 04:33:0032.8253-96.812500483
2017-12-23 04:32:0032.8253-96.812500483
2017-12-23 04:31:0432.8253-96.812500483
2017-12-23 04:30:0132.8253-96.812500483
2017-12-23 04:29:0532.8253-96.812500483
2017-12-23 04:28:0032.8253-96.812500483
2017-12-23 04:27:0132.8253-96.812500483
2017-12-23 04:26:0032.8253-96.812500483
2017-12-23 04:25:0132.8253-96.812500483
2017-12-23 04:24:0132.8253-96.812500483
2017-12-23 04:23:0132.8253-96.812500483
2017-12-23 04:22:0132.8255-96.812500482
2017-12-23 04:21:0232.8255-96.812500482
2017-12-23 04:20:0232.8255-96.812500482
2017-12-23 04:19:0032.8255-96.812500482
2017-12-23 04:18:0032.8255-96.812500482
2017-12-23 04:17:0032.8255-96.812500482
2017-12-23 04:16:0032.8255-96.812500482
2017-12-23 04:15:0032.8255-96.812500482
2017-12-23 04:14:0032.8255-96.812500482
2017-12-23 04:13:0032.8255-96.812500484
2017-12-23 04:12:0032.8255-96.812500484
2017-12-23 04:11:0032.8255-96.812500484
2017-12-23 04:10:0032.8255-96.812500484
2017-12-23 04:09:0232.8255-96.812500484
2017-12-23 04:08:0032.8255-96.812500484
2017-12-23 04:07:0032.8255-96.812500484
2017-12-23 04:06:0032.8255-96.812500484
2017-12-23 04:05:0932.8255-96.812500484
2017-12-23 04:04:0032.8255-96.812500484
2017-12-23 04:03:0132.8255-96.812500484
2017-12-23 04:02:0132.8255-96.812500484
2017-12-23 04:01:0232.8255-96.812500484
2017-12-23 04:00:0032.8255-96.812500484
2017-12-23 03:59:0032.8255-96.812500484
2017-12-23 03:58:0032.8255-96.812500484
2017-12-23 03:57:0032.8255-96.812500484
2017-12-23 03:56:0132.8255-96.812500484
2017-12-23 03:55:0032.8255-96.812500484
2017-12-23 03:54:0032.8255-96.812500484
2017-12-23 03:53:0032.8255-96.812500484
2017-12-23 03:52:0132.8255-96.812500484
2017-12-23 03:51:0132.8255-96.812500484
2017-12-23 03:50:0032.8255-96.812500484
2017-12-23 03:49:0132.8255-96.812500483
2017-12-23 03:48:0032.8255-96.812500483
2017-12-23 03:47:0032.8255-96.812500484
2017-12-23 03:46:0032.8255-96.812500484
2017-12-23 03:45:0032.8255-96.812500484
2017-12-23 03:44:0032.8255-96.812500484
2017-12-23 03:43:0032.8255-96.812500484
2017-12-23 03:42:0032.8278-96.809534619508
2017-12-23 03:41:0032.8278-96.809534619508
2017-12-23 03:40:0232.8278-96.809534619508
2017-12-23 03:34:0032.8278-96.809534619508
2017-12-23 03:24:0032.8278-96.809534619508
2017-12-23 03:14:0132.8278-96.809534619508
2017-12-23 03:04:0032.8278-96.809534619508
2017-12-23 03:02:2832.8275-96.809234619508
2017-12-23 00:47:4532.8228-96.79511223497
2017-12-23 00:37:4632.8258-96.812800441
2017-12-23 00:27:4932.8253-96.812800442
2017-12-23 00:17:4632.8253-96.812500441
2017-12-23 00:07:4632.8253-96.812500441
2017-12-22 23:57:4632.8253-96.812500479
2017-12-22 23:47:4532.8253-96.812500444
2017-12-22 23:37:4632.8253-96.812500443
2017-12-22 23:27:4632.8255-96.812800441
2017-12-22 23:17:4532.8253-96.812500453
2017-12-22 23:07:4532.8253-96.812500443
2017-12-22 22:57:4632.8253-96.812500444
2017-12-22 22:47:4532.8253-96.812500494
2017-12-22 22:37:4632.8255-96.809525821505
2017-12-22 22:27:4732.8158-96.800800477
2017-12-22 22:17:4632.8158-96.800800477
2017-12-22 22:07:4532.8155-96.800800477
2017-12-22 21:57:5332.8155-96.800800472
2017-12-22 21:47:4732.8178-96.80221797490
2017-12-22 21:45:1832.8238-96.804511227502
2017-12-22 21:35:1732.8512-96.81452012558
2017-12-22 21:25:2332.8512-96.8217910538
2017-12-22 21:24:1632.8512-96.82428921541
2017-12-22 21:23:1632.8512-96.8328923509
2017-12-22 21:22:1732.8513-96.8325940506
2017-12-22 21:21:1632.8513-96.8328900505
2017-12-22 21:20:1732.8513-96.8328900505
2017-12-22 21:19:1732.8513-96.8328890505
2017-12-22 21:18:1732.8512-96.829227028526
2017-12-22 21:17:1732.8512-96.82227121538
2017-12-22 21:16:1632.8475-96.8212027526
2017-12-22 21:15:1732.8447-96.821260523
2017-12-22 21:14:1832.8403-96.8213134512
2017-12-22 21:08:1732.8237-96.81923150486
2017-12-22 20:58:1832.823-96.817218620486
2017-12-22 20:48:1732.8253-96.812500447
2017-12-22 20:38:1732.8255-96.812500483
2017-12-22 20:28:1732.8253-96.812570494
2017-12-22 20:18:1732.8255-96.812501441
2017-12-22 20:08:1732.8208-96.800534929436
2017-12-22 19:58:1732.7903-96.79453146460
2017-12-22 19:48:1732.8103-96.770822522537
2017-12-22 19:38:1732.8162-96.770300449
2017-12-22 19:28:1732.8162-96.770300550
2017-12-22 19:18:1732.8162-96.770300551
2017-12-22 19:08:1732.8162-96.770300550
2017-12-22 18:58:1732.8162-96.77053570450
2017-12-22 18:48:1732.8158-96.770300557
2017-12-22 18:38:1732.7862-96.79222013489
2017-12-22 18:28:1732.8142-96.815313425476
2017-12-22 18:26:3332.8213-96.825512428470
2017-12-22 18:26:0332.8238-96.828813524472
2017-12-22 18:25:4832.825-96.83021434
2017-12-22 18:25:3332.8255-96.831300471
2017-12-22 18:22:3432.8325-96.83921360464
2017-12-22 18:12:3432.8463-96.850300470
2017-12-22 18:02:3432.8475-96.85178513470
2017-12-22 18:01:0232.8438-96.853835919470
2017-12-22 18:00:4832.8428-96.854531037416
2017-12-22 18:00:1832.835-96.8453315128397
2017-12-22 17:59:4832.813-96.8217311124682
2017-12-22 17:59:1832.8092-96.817314127915
2017-12-22 17:58:4832.7978-96.80283151191524
2017-12-22 17:58:1832.7863-96.78833141271943
2017-12-22 17:57:4832.772-96.77223141462000
2017-12-22 17:57:1832.7537-96.75053041532544
2017-12-22 17:56:4832.7495-96.72952761712838
2017-12-22 17:56:2632.7437-96.71032841683181
2017-12-22 17:56:1832.7417-96.7028003062
2017-12-22 17:55:4832.757-96.68122051802968
2017-12-22 17:55:1832.78-96.66832051822949
2017-12-22 17:54:4832.803-96.65552051822955
2017-12-22 17:54:1832.8267-96.64222042012869
2017-12-22 17:53:4832.8522-96.6282042032870
2017-12-22 17:53:1932.8895-96.61371942082822
2017-12-22 17:52:4432.9262-96.59871952102883
2017-12-22 17:52:2332.9292-96.598003302
2017-12-22 17:51:5332.957-96.60631442043442
2017-12-22 17:51:2332.98-96.62471391973782
2017-12-22 17:50:5332.9988-96.6481311963720
2017-12-22 17:50:2333.0175-96.67221301963565
2017-12-22 17:49:2033.06-96.72881322484058
2017-12-22 17:48:5033.0833-96.75921322473986
2017-12-22 17:47:2033.153-96.85051312503859
2017-12-22 17:46:5033.177-96.88121302584226
2017-12-22 17:46:2033.2005-96.91421292614861
2017-12-22 17:45:5033.2195-96.95131182624964
2017-12-22 17:45:2033.237-96.991182654980
2017-12-22 17:44:5033.2545-97.02881172695060
2017-12-22 17:44:2033.2728-97.06831172725654
2017-12-22 17:43:5033.2903-97.10871172746195
2017-12-22 17:43:2033.3087-97.14951182927129
2017-12-22 17:42:5033.328-97.192008183
2017-12-22 17:42:2033.3475-97.2355008500
2017-12-22 17:41:5033.3672-97.27921182988933
2017-12-22 17:41:2033.387-97.32281183009490
2017-12-22 17:40:5033.4067-97.367211730310038
2017-12-22 17:40:2033.4267-97.41211730710745
2017-12-22 17:39:5033.4472-97.456711631611126
2017-12-22 17:39:2033.4667-97.51211032611185
2017-12-22 17:38:5033.482-97.55929839411697
2017-12-22 17:38:2033.5033-97.622510535612446
2017-12-22 17:37:5033.518-97.666711145513599
2017-12-22 17:37:3033.535-97.7139543714573
2017-12-22 17:37:2033.5347-97.725040914790
2017-12-22 17:36:5033.5563-97.783811137615770
2017-12-22 17:36:2033.5737-97.842511028316652
2017-12-22 17:35:5133.5972-97.905301118291
2017-12-22 17:35:2033.6108-97.9622050219181
2017-12-22 17:34:5133.695-98.01170016481
2017-12-22 17:34:3333.6905-98.04530016605
2017-12-22 17:34:2133.6858-98.07250017484
2017-12-22 17:33:5033.7037-98.1620019280
2017-12-22 17:33:3233.7075-98.16780019395
2017-12-22 17:33:2133.6953-98.22780021918
2017-12-22 17:33:0933.7358-98.2230024267
2017-12-22 17:32:3933.733-98.25550024359
2017-12-22 17:32:1033.738-98.3612044325652
2017-12-22 17:29:2934.4458-102.7819550139552
2017-12-22 17:29:0334.4458-102.7819550139552
2017-12-22 17:26:4134.4458-102.7819550139552
2017-12-22 17:21:2034.28-100.850038548
2017-12-22 17:19:4734.28-100.850038488
2017-12-22 17:18:4734.28-100.850038446
2017-12-22 17:18:1834.2803-100.8480038446
2017-12-22 17:17:4734.2803-100.8480038446
2017-12-22 17:17:1734.2803-100.8480038446
2017-12-22 17:16:4734.4458-102.7819550139552
2017-12-22 17:16:0634.4458-102.7819550139552
2017-12-22 17:15:0734.4458-102.7819550139552
2017-12-22 17:14:0534.4458-102.7819550139552
2017-12-22 17:05:2134.4478-102.89550139543
2017-12-22 17:03:4434.4847-103.3047657839411
2017-12-22 17:03:3834.4858-103.3010039100
2017-12-22 17:02:1534.4853-103.3159455839567
2017-12-22 17:01:1634.6478-105.948048439460
2017-12-22 17:00:1734.6478-105.948048439460
2017-12-22 16:58:2334.6478-105.948048439460
2017-12-22 16:57:3134.6478-105.948048439460
2017-12-22 16:56:1434.6478-105.948048439460
2017-12-22 16:46:1334.6988-107.0529247639449
2017-12-22 16:44:2534.6988-107.0529247639449
2017-12-22 16:43:4834.6988-107.0529247639449
2017-12-22 16:40:3534.6988-107.0529247639449
2017-12-22 16:38:3934.7038-107.1739247739484
2017-12-22 16:28:3834.7588-108.7799147139431
2017-12-22 16:27:3834.763-108.9379147139394
2017-12-22 16:26:3834.7672-109.0959147139401
2017-12-22 16:25:3834.7712-109.2559147239418
2017-12-22 16:24:3834.7747-109.4149147239435
2017-12-22 16:23:3834.7783-109.5739147239484
2017-12-22 16:22:3834.7812-109.7329147339490
2017-12-22 16:21:3934.7845-109.8919147239450
2017-12-22 16:20:3934.7872-110.059147339461
2017-12-22 16:19:3934.7897-110.2119147839452
2017-12-22 16:18:3934.7925-110.3719047639450
2017-12-22 16:17:3934.7947-110.5339047939462
2017-12-22 16:16:3934.7963-110.6949047839469
2017-12-22 16:15:3834.7983-110.8549047739477
2017-12-22 16:14:3834.8003-111.0169047939492
2017-12-22 16:13:3834.802-111.1779047639489
2017-12-22 16:12:3934.803-111.3369046939501
2017-12-22 16:11:3834.8037-111.4939046639508
2017-12-22 16:10:3834.8042-111.659046439521
2017-12-22 16:09:3934.8047-111.8069046139535
2017-12-22 16:08:3834.805-111.9619046239491
2017-12-22 16:07:3834.8055-112.1189047038406
2017-12-22 16:06:3934.8055-112.2778947137592
2017-12-22 16:05:3834.8053-112.4358946937592
2017-12-22 16:04:3934.805-112.5938946737618
2017-12-22 16:03:3934.8038-112.758946437629
2017-12-22 16:02:3834.803-112.9068946337642
2017-12-22 16:01:3934.8022-113.0628946137635
2017-12-22 16:00:3834.8008-113.2178945937657
2017-12-22 15:59:3934.7995-113.3718945937650
2017-12-22 15:58:3834.7978-113.5268945937680
2017-12-22 15:57:3834.7958-113.6818945937703
2017-12-22 15:56:3834.7938-113.8358845537719
2017-12-22 15:55:3834.7917-113.9888845337722
2017-12-22 15:54:3834.7895-114.148844937722
2017-12-22 15:53:3934.7867-114.2918844937740
2017-12-22 15:52:3934.7842-114.4438845137763
2017-12-22 15:51:3934.7813-114.5950037740
2017-12-22 15:50:3334.7758-114.8248845437843
2017-12-22 15:50:0534.7758-114.8358845537841
2017-12-22 15:49:3334.7755-114.9179145937819
2017-12-22 15:48:3334.7787-115.0719145937836
2017-12-22 15:47:3334.7813-115.2269146137844
2017-12-22 15:46:3334.7842-115.3829146337869
2017-12-22 15:45:3334.7867-115.5379146037886
2017-12-22 15:44:3334.7887-115.6929045737885
2017-12-22 15:43:3434.7905-115.8469045937884
2017-12-22 15:42:3334.7925-116.0019046237883
2017-12-22 15:41:3434.7942-116.1579046537905
2017-12-22 15:39:5534.7967-116.4019055238307
2017-12-22 15:39:3234.7962-116.471046837773
2017-12-22 15:39:1934.7608-116.931045636297
2017-12-22 15:38:3534.7608-116.931045636297
2017-12-22 15:38:0134.7608-116.931045636297
2017-12-22 15:33:1334.7188-117.4517947829936
2017-12-22 15:31:3834.7075-117.7018746427330
2017-12-22 15:31:2834.7058-117.7278645827070
2017-12-22 15:31:2234.7008-117.8119245826969
2017-12-22 15:31:0334.7008-117.8118645325929
2017-12-22 15:30:4934.6997-117.8290025692
2017-12-22 15:30:4234.6997-117.8430025478
2017-12-22 15:29:5034.6847-118.0157843323421
2017-12-22 15:29:1434.6642-118.1146341121892
2017-12-22 15:27:5134.588-118.2073938519719
2017-12-22 15:26:5234.5067-118.2893937218047
2017-12-22 15:25:0434.312-118.4310510796
2017-12-22 15:24:3434.2925-118.4430010806
2017-12-22 15:24:0534.2608-118.4540010434
2017-12-22 15:24:0434.1372-118.402004158
2017-12-22 15:21:5934.1387-118.395002923
2017-12-22 15:21:2934.1508-118.379002339
2017-12-22 15:20:5934.1767-118.353001719
2017-12-22 15:20:2934.2067-118.35900529
2017-12-22 15:19:5934.2105-118.3600768
2017-12-22 15:19:4734.2117-118.3621113768
2017-12-22 15:19:3634.2117-118.35929413768
2017-12-22 15:19:3034.2113-118.35932015767
2017-12-22 15:18:5934.2095-118.35834810756
2017-12-22 15:18:3034.2078-118.35834518747
2017-12-22 15:17:0334.2003-118.35534820708
2017-12-22 15:16:0034.197-118.3532829696
2017-12-22 15:15:3034.197-118.3532580696
2017-12-22 15:15:0034.197-118.3531990696
2017-12-22 15:14:3034.197-118.3531730695
2017-12-22 15:14:0034.1967-118.3531882694
2017-12-22 15:13:3034.197-118.35301696
2017-12-22 15:13:2434.1972-118.35305696
2017-12-22 15:13:0034.1963-118.35100688
2017-12-22 15:11:4834.1963-118.3511040688
2017-12-22 15:11:1234.1963-118.35103691
2017-12-22 15:10:2634.1963-118.3521085691
2017-12-22 15:09:2634.1967-118.3521071691
2017-12-22 15:08:2634.1967-118.352844691
2017-12-22 15:07:2934.1967-118.35300696
2017-12-22 15:05:2634.1967-118.35300694
2017-12-22 15:03:5334.1963-118.35200682
2017-12-22 14:47:5734.1963-118.35300691
2017-12-22 14:27:5734.1963-118.35300691
2017-12-22 14:17:5734.1963-118.35301691
2017-12-22 14:07:5734.1963-118.35300691
2017-12-22 13:57:5734.1963-118.3531420695
2017-12-22 13:48:0034.1963-118.35200691
2017-12-22 13:37:5734.1963-118.3523080680
2017-12-22 13:27:3734.1963-118.3523080705
2017-12-22 13:16:5734.1962-118.3543590691
2017-12-22 13:15:1134.1962-118.3527016687
2017-12-22 13:14:4134.1958-118.3491810685
2017-12-22 13:14:1134.1988-118.34918314693
2017-12-22 13:13:4134.202-118.35400718
2017-12-22 13:08:5834.202-118.35400718
2017-12-22 13:07:2734.2012-118.35300718
2017-12-22 13:07:0234.1992-118.35101692
2017-12-22 13:02:4934.1992-118.35101692
2017-12-22 13:01:1534.1995-118.35101703
2017-12-22 13:00:1234.1992-118.352920706
2017-12-22 12:59:1234.1992-118.352917705
2017-12-22 12:58:1234.1995-118.3527814696
2017-12-22 12:57:1234.1955-118.3482711682
2017-12-22 12:55:4034.1955-118.3489122665
2017-12-22 12:54:4034.2025-118.34918040670
2017-12-22 12:53:4034.2128-118.3513846732
2017-12-22 12:52:4034.2217-118.3659456783
2017-12-22 12:51:4034.2263-118.3828758820
2017-12-22 12:50:4034.2308-118.40110060838
2017-12-22 12:49:4034.2403-118.41813968859
2017-12-22 12:48:4134.2547-118.43313867919
2017-12-22 12:47:4034.27-118.44714267994
2017-12-22 12:46:4034.2853-118.46126671077
2017-12-22 12:45:4034.2992-118.476140681151
2017-12-22 12:44:4034.3147-118.49148681277
2017-12-22 12:43:4034.3275-118.505158671448
2017-12-22 12:42:4034.3405-118.521105681729
2017-12-22 12:41:4034.3487-118.538114601552
2017-12-22 12:40:4034.3583-118.554151621342
2017-12-22 12:39:4034.3745-118.563152681266
2017-12-22 12:38:4034.3922-118.571168661326
2017-12-22 12:37:4034.4097-118.577159661160
2017-12-22 12:36:0334.4342-118.592135591041
2017-12-22 12:35:3334.44-118.599122581019
2017-12-22 12:35:0334.4442-118.608122591020
2017-12-22 12:34:3334.4508-118.615150611032
2017-12-22 12:34:0334.4595-118.615188631018
2017-12-22 12:34:0134.4597-118.615189641021
2017-12-22 12:33:0134.478-118.615186671050
2017-12-22 12:32:0134.4942-118.623148641156
2017-12-22 12:31:0134.5103-118.631147611389
2017-12-22 12:30:0134.5245-118.642147611668
2017-12-22 12:29:0134.5403-118.65143611941
2017-12-22 12:28:0234.5508-118.666123652243
2017-12-22 12:27:0134.5625-118.683130662499
2017-12-22 12:25:2334.5833-118.708130652860
2017-12-22 12:24:5334.5912-118.712177622831
2017-12-22 12:24:2334.6-118.711180662793
2017-12-22 12:24:0034.6092-118.712179672742
2017-12-22 12:23:2134.6183-118.716155672687
2017-12-22 12:21:2134.6405-118.749143672858
2017-12-22 12:20:2134.6572-118.755169632696
2017-12-22 12:19:2134.6713-118.767126642758
2017-12-22 12:18:2134.683-118.782143642787
2017-12-22 12:17:2134.6988-118.793164712823
2017-12-22 12:16:2134.717-118.799175672917
2017-12-22 12:15:2334.7362-118.798188693048
2017-12-22 12:14:2234.7555-118.796179703196
2017-12-22 12:13:2134.7728-118.805136723367
2017-12-22 12:12:2134.7847-118.825125703595
2017-12-22 12:11:2134.7938-118.84599713775
2017-12-22 12:10:2134.7967-118.868105684036
2017-12-22 12:08:4134.818-118.881221663723
2017-12-22 12:08:1134.8247-118.874221653621
2017-12-22 12:07:4134.8317-118.867220653567
2017-12-22 12:07:1234.8397-118.863156643458
2017-12-22 12:06:2435.1962-119.00817265298
2017-12-22 12:05:2435.1962-119.00817265298
2017-12-22 12:04:2535.1962-119.00817265298
2017-12-22 12:03:2535.1962-119.00817265298
2017-12-22 12:02:2535.1962-119.00817265298
2017-12-22 12:01:2535.1962-119.00817265298
2017-12-22 12:00:2535.1962-119.00817265298
2017-12-22 11:59:2535.1962-119.00817265298
2017-12-22 11:58:2435.1962-119.00817265298
2017-12-22 11:57:2435.1962-119.00817265298
2017-12-22 11:56:2935.1962-119.00817265298
2017-12-22 11:55:2535.1962-119.00817265298
2017-12-22 11:54:2435.1962-119.00817265298
2017-12-22 11:53:2535.1962-119.00817265298
2017-12-22 11:52:2535.1962-119.00817265298
2017-12-22 11:51:2435.1962-119.00817265298
2017-12-22 11:50:2535.1962-119.00817265298
2017-12-22 11:49:2535.1962-119.00817265298
2017-12-22 11:48:2535.1962-119.00817265298
2017-12-22 11:47:2535.1962-119.00817265298
2017-12-22 11:45:2735.2047-119.0117265304
2017-12-22 11:44:5735.2138-119.01117266308
2017-12-22 11:44:2735.2228-119.01217265312
2017-12-22 11:43:3735.238-119.01516765325
2017-12-22 11:43:3635.2383-119.01516766325
2017-12-22 11:43:0735.2572-119.0216766331
2017-12-22 11:42:2135.2605-119.02116766331
2017-12-22 11:42:0935.2642-119.02216764327
2017-12-22 11:41:0935.2825-119.02716770356
2017-12-22 11:40:0935.3012-119.03216767358
2017-12-22 11:39:0935.3192-119.03716867364
2017-12-22 11:38:0935.3378-119.03918069352
2017-12-22 11:37:0935.357-119.03918071361
2017-12-22 11:36:0935.3758-119.04517867383
2017-12-22 11:34:1635.408-119.0513771434
2017-12-22 11:33:5735.4117-119.05511443439
2017-12-22 11:32:2635.4122-119.0719041415
2017-12-22 11:31:5635.4122-119.0779042409
2017-12-22 11:31:2635.4122-119.0849042402
2017-12-22 11:30:5635.4122-119.0919041397
2017-12-22 11:29:4335.4125-119.1099028386
2017-12-22 11:28:2635.4075-119.10835310382
2017-12-22 11:27:2835.4047-119.10700384
2017-12-22 11:26:5735.4047-119.10700384
2017-12-22 01:27:3935.4047-119.1063570384
2017-12-22 01:26:3935.4042-119.10733212379
2017-12-22 01:25:3935.4038-119.1061690383
2017-12-22 01:24:3935.4012-119.1054513375
2017-12-22 01:23:3935.3987-119.107116383
2017-12-22 01:22:3935.3972-119.11036345
2017-12-22 01:21:3935.3878-119.11017371
2017-12-22 01:20:3935.388-119.1118018370
2017-12-22 01:19:3935.3888-119.1119022371
2017-12-22 01:15:3935.3887-119.1142680366
2017-12-22 01:14:3935.3887-119.1142680366
2017-12-22 01:13:3935.3887-119.1142680366
2017-12-22 01:12:3935.3887-119.1142680366
2017-12-22 01:11:3935.3887-119.1142680366
2017-12-22 01:10:3935.3888-119.1142696368
2017-12-22 01:09:3935.3892-119.11126810371
2017-12-22 01:08:3935.39-119.1118029375
2017-12-22 01:07:3935.3958-119.1118040343
2017-12-22 01:06:3935.3983-119.111800339
2017-12-22 01:05:3935.4037-119.1117944377
2017-12-22 01:04:3935.4092-119.1120386
2017-12-22 01:03:4135.4075-119.10831513382
2017-12-22 01:02:4335.4047-119.1071392384
2017-12-22 00:52:3935.4047-119.1071990384
2017-12-22 00:42:3935.405-119.10700386
2017-12-22 00:32:3935.4047-119.10700385
2017-12-22 00:22:3935.4047-119.10700385
2017-12-22 00:12:3935.405-119.10700356
2017-12-22 00:00:4035.4075-119.1088811382
2017-12-21 23:59:4035.4113-119.1118028382
2017-12-21 23:58:4035.4128-119.1092670385
2017-12-21 23:56:5835.4128-119.10725739383
2017-12-21 23:56:2835.4138-119.10126927392
2017-12-21 23:55:5835.4138-119.12720392
2017-12-21 23:55:2835.4125-119.09528446395
2017-12-21 23:55:0235.4125-119.0912702396
2017-12-21 23:54:0235.4122-119.08327023376
2017-12-21 23:53:0335.4122-119.07227045369
2017-12-21 23:52:0235.4122-119.05926924398
2017-12-21 23:50:1035.41-119.05231729422
2017-12-21 23:49:4035.405-119.04731651409
2017-12-21 23:49:1035.4005-119.03830163409
2017-12-21 23:48:4035.395-119.0331262405
2017-12-21 23:48:1035.39-119.02331234398
2017-12-21 23:47:4035.3892-119.0233590398
2017-12-21 23:47:1135.3892-119.023230398
2017-12-21 23:47:1035.3892-119.023200398
2017-12-21 23:45:3835.3867-119.024891391
2017-12-21 23:44:4435.3883-119.0295324401
2017-12-21 23:43:4535.383-119.0342728394
2017-12-21 23:41:5835.3808-119.0262702391
2017-12-21 23:41:2835.3808-119.02427022391
2017-12-21 23:40:5835.3805-119.0233590391
2017-12-21 23:40:2835.3795-119.02310391
2017-12-21 23:39:5935.3787-119.023021391
2017-12-21 23:39:3435.3775-119.023019391
2017-12-21 23:38:3435.3742-119.0232709388
2017-12-21 23:37:3435.3742-119.01927012391
2017-12-21 23:33:3535.3737-119.0183060391
2017-12-21 23:23:3435.3737-119.01900362
2017-12-21 23:13:3535.3738-119.01900391
2017-12-21 23:12:0235.3737-119.01900391
2017-12-21 23:04:2035.3742-119.018903395
2017-12-21 23:03:2035.373-119.019900391
2017-12-21 23:02:2035.373-119.021916391
2017-12-21 23:01:2035.373-119.0249027391
2017-12-21 23:00:2035.3733-119.0359029388
2017-12-21 22:59:2035.3737-119.0429640388
2017-12-21 22:57:3835.3678-119.061478388
2017-12-21 22:56:2035.3647-119.066630385
2017-12-21 22:55:2035.3633-119.076941386
2017-12-21 22:54:2035.3622-119.08510447380
2017-12-21 22:53:2035.3597-119.092337369
2017-12-21 22:52:2035.3555-119.091336376
2017-12-21 22:49:2035.3558-119.09200378
2017-12-21 22:39:2035.3558-119.09200377
2017-12-21 22:29:2035.3558-119.09200378
2017-12-21 22:19:2035.3555-119.0922240376
2017-12-21 22:18:2035.353-119.09235939371
2017-12-21 22:17:2035.3487-119.09235933366
2017-12-21 22:15:2035.3428-119.1058419365
2017-12-21 22:05:2035.3417-119.10700360
2017-12-21 21:55:2035.3417-119.10700359
2017-12-21 21:45:2035.3417-119.10700360
2017-12-21 21:35:2035.3417-119.10700360
2017-12-21 21:25:2035.342-119.1072752362
2017-12-21 21:24:2035.3403-119.1062885362
2017-12-21 21:16:2035.3397-119.1051750358
2017-12-21 21:06:2035.34-119.1051800348
2017-12-21 21:05:2035.3405-119.10618019341
2017-12-21 21:04:2035.3425-119.1071498338
2017-12-21 21:03:0935.3447-119.1141790339
2017-12-21 21:02:0935.3447-119.1141790324
2017-12-21 21:01:0935.3525-119.11516332313
2017-12-21 20:59:2735.36-119.11618029339
2017-12-21 20:58:2735.365-119.1152144365
2017-12-21 20:57:3735.3725-119.1118042369
2017-12-21 20:56:3735.3828-119.1117727371
2017-12-21 20:55:3735.3863-119.111800375
2017-12-21 20:53:5735.3888-119.111041371
2017-12-21 20:52:5735.3892-119.1119012371
2017-12-21 20:52:2535.3887-119.113914371
2017-12-21 20:51:5735.3888-119.11400360
2017-12-21 20:46:2535.3888-119.114940368
2017-12-21 20:44:0235.3888-119.114940368
2017-12-21 20:43:0335.3888-119.114940368
2017-12-21 17:54:4735.4047-119.10700385
2017-12-21 17:44:4835.4047-119.1063510384
2017-12-21 17:43:4935.4037-119.10628915384
2017-12-21 17:42:4835.4-119.10635314363
2017-12-21 17:41:4735.3975-119.10500380
2017-12-21 17:40:4735.3917-119.10333022378
2017-12-21 17:29:4735.3847-119.103930384
2017-12-21 17:19:4835.3847-119.1031788370
2017-12-21 17:18:4735.3855-119.10510414376
2017-12-21 17:17:4735.3862-119.107919374
2017-12-21 17:16:4735.3862-119.111800374
2017-12-21 17:15:4735.3888-119.11929371
2017-12-21 17:14:4735.3892-119.1156710365
2017-12-21 17:13:4735.3888-119.1142690366
2017-12-21 17:12:4735.3888-119.1142690366
2017-12-21 17:11:4735.3888-119.1142690366
2017-12-21 17:10:4735.3888-119.1142690366
2017-12-21 17:09:4735.3888-119.1142690366
2017-12-21 17:08:4735.3888-119.1142690366
2017-12-21 17:07:4735.3888-119.1142690366
2017-12-21 17:06:4735.3888-119.1142690366
2017-12-21 17:05:4735.3888-119.1142690366
2017-12-21 17:04:4735.3888-119.1142690366
2017-12-21 17:03:4735.3888-119.1142690366
2017-12-21 17:02:4735.3888-119.1142690366
2017-12-21 17:01:4735.3888-119.1142690366
2017-12-21 17:00:4735.3892-119.1112687371
2017-12-21 16:59:4835.3888-119.1127510362
2017-12-21 16:58:3235.3987-119.1100350
2017-12-21 16:58:1335.4078-119.10900367
2017-12-21 16:57:3235.4078-119.10927014382
2017-12-21 16:07:1135.402-119.09300384
2017-12-21 15:57:1035.402-119.09300384
2017-12-21 15:47:1035.402-119.09300384
2017-12-21 15:46:1035.402-119.09300384
2017-12-21 15:45:1235.402-119.09300384
2017-12-21 15:44:1035.402-119.09300384
2017-12-21 15:43:1035.402-119.09300384
2017-12-21 15:42:1035.402-119.09300384
2017-12-21 15:40:3635.4017-119.09300384
2017-12-21 06:41:2535.405-119.10700378
2017-12-21 06:39:1035.405-119.10700376
2017-12-21 06:38:4035.405-119.10700376
2017-12-21 06:38:0535.405-119.10700376
2017-12-21 01:59:5035.4047-119.10701355
2017-12-21 01:58:5035.4047-119.10701355
2017-12-21 01:57:5035.4047-119.10701355
2017-12-21 01:56:5035.4047-119.10701355
2017-12-21 01:52:5035.4047-119.10701355
2017-12-21 01:42:5035.4047-119.10701355
2017-12-21 01:32:5035.4047-119.10701355
2017-12-21 01:31:5035.4047-119.10701355
2017-12-21 01:30:5035.4047-119.10701355
2017-12-21 01:29:5035.4047-119.10701355
2017-12-21 01:28:5035.4047-119.10701355
2017-12-21 01:27:5035.4047-119.10701355
2017-12-21 01:26:5035.4047-119.10701355
2017-12-21 01:17:5035.4047-119.10701355
2017-12-21 01:07:5035.4047-119.10701355
2017-12-21 01:06:5035.4047-119.10701355
2017-12-21 01:05:5035.4047-119.10701355
2017-12-21 01:04:5035.4047-119.10701355
2017-12-21 01:03:5035.4047-119.10701355
2017-12-21 01:02:5035.4047-119.10701355
2017-12-21 01:01:5035.4047-119.10701355
2017-12-21 01:00:5035.4047-119.10701355
2017-12-21 00:59:5035.4047-119.10701355
2017-12-20 20:54:1935.405-119.10700379
2017-12-20 20:44:1935.405-119.10700434
2017-12-20 20:34:1935.4045-119.107611383
2017-12-20 20:33:1935.4045-119.107610384
2017-12-20 20:32:1935.4038-119.10733715380
2017-12-20 20:31:1935.4038-119.1061690384
2017-12-20 20:30:1935.4028-119.10535716379
2017-12-20 20:28:2235.3978-119.1079025381
2017-12-20 20:27:1235.3905-119.1100364
2017-12-20 20:26:4835.3905-119.1101364
2017-12-20 20:26:1235.3875-119.11741358
2017-12-20 20:25:1235.3887-119.111277349
2017-12-20 20:24:1235.3888-119.1129119352
2017-12-20 20:22:1235.3888-119.1142690404
2017-12-20 20:20:2135.3888-119.1142690366
2017-12-20 20:19:2235.3888-119.1142690366
2017-12-20 20:18:1035.3888-119.11321310371
2017-12-20 20:17:1035.3887-119.1118020371
2017-12-20 20:16:1035.3922-119.1117933378
2017-12-20 20:14:2835.4092-119.106000
2017-12-20 20:13:2735.4045-119.1073307380
2017-12-20 20:11:3535.4047-119.1071440384
2017-12-20 20:10:3935.4047-119.10701374
2017-12-20 03:00:5435.41-119.09301392
2017-12-20 02:50:5435.41-119.0921713392
2017-12-20 02:47:5435.4128-119.0941000395
2017-12-20 02:46:1935.4128-119.0941000395
2017-12-20 02:45:1935.4128-119.0941000395
2017-12-20 02:44:1935.4128-119.0941011395
2017-12-20 02:43:1935.4137-119.09910039392
2017-12-20 02:42:1935.4125-119.1078235383
2017-12-20 01:51:5135.3892-119.1128914371
2017-12-20 01:50:4735.3892-119.1128914371
2017-12-20 01:49:4635.3892-119.1128914371
2017-12-20 01:48:4635.3892-119.1128914371
2017-12-20 01:47:4635.3892-119.1128914371
2017-12-20 01:46:4635.3892-119.1128914371
2017-12-20 01:45:4635.3892-119.1128914371
2017-12-20 01:44:4635.3892-119.1128914371
2017-12-20 01:43:4735.3892-119.1128914371
2017-12-20 01:42:4635.3892-119.1128914371
2017-12-20 01:41:4635.3892-119.1128914371
2017-12-20 01:40:4635.3892-119.1128914371
2017-12-20 01:39:4735.3892-119.1128914371
2017-12-20 01:38:4635.3892-119.1128914371
2017-12-20 01:37:4635.3892-119.1128914371
2017-12-20 01:36:4635.3892-119.1128914371
2017-12-20 01:35:4635.3892-119.1128914371
2017-12-20 01:34:4635.3892-119.1128914371
2017-12-20 01:33:4635.3892-119.1128914371
2017-12-20 01:32:4635.3892-119.1128914371
2017-12-20 01:31:4635.3892-119.1128914371
2017-12-20 01:30:4635.3892-119.1128914371
2017-12-20 01:29:4635.3892-119.1128914371
2017-12-20 01:28:4635.3892-119.1128914371
2017-12-20 01:27:4635.3892-119.1128914371
2017-12-20 01:26:4635.3892-119.1128914371
2017-12-20 01:25:4635.3892-119.1128914371
2017-12-20 01:24:4635.3892-119.1128914371
2017-12-20 01:23:4635.3892-119.1128914371
2017-12-20 01:22:4635.3892-119.1128914371
2017-12-20 01:21:4635.3892-119.1128914371
2017-12-20 01:20:4635.3892-119.1128914371
2017-12-20 01:19:4635.3892-119.1128914371
2017-12-20 01:18:4735.3892-119.1128914371
2017-12-20 01:17:4635.3892-119.1128914371
2017-12-20 01:15:4635.3892-119.1128914371
2017-12-20 01:14:4635.3892-119.1128914371
2017-12-20 01:13:4635.3892-119.1128914371
2017-12-20 01:12:4635.3892-119.1128914371
2017-12-20 01:11:4735.3892-119.1128914371
2017-12-20 01:10:4635.3892-119.1128914371
2017-12-20 01:09:4635.3892-119.1128914371
2017-12-20 01:08:4635.3892-119.1128914371
2017-12-20 01:07:4635.3892-119.1128914371
2017-12-20 01:06:4735.3892-119.1128914371
2017-12-20 01:05:4635.3892-119.1128914371
2017-12-20 01:04:4635.3892-119.1128914371
2017-12-20 01:03:4635.3892-119.1128914371
2017-12-20 01:02:4635.3892-119.1128914371
2017-12-20 01:01:4635.3892-119.1128914371
2017-12-20 01:00:4635.3892-119.1128914371
2017-12-20 00:59:4635.3892-119.1128914371
2017-12-20 00:58:4635.3892-119.1128914371
2017-12-20 00:48:4635.3892-119.1128914371
2017-12-20 00:47:4635.3892-119.1128914371
2017-12-20 00:45:4935.3892-119.1128914371
2017-12-20 00:44:4935.3892-119.1128914371
2017-12-20 00:43:4935.3892-119.1128914371
2017-12-20 00:42:4935.3892-119.1128914371
2017-12-19 21:44:4335.405-119.10700359
2017-12-19 21:34:4235.405-119.10700355
2017-12-19 21:24:4235.4113-119.1112216381
2017-12-19 21:23:4335.4103-119.11020386
2017-12-19 21:22:4335.4053-119.11873380
2017-12-19 21:21:4235.405-119.119901365
2017-12-19 21:20:4235.405-119.1288915360
2017-12-19 21:14:4335.407-119.13100366
2017-12-19 21:04:4235.4063-119.1311781366
2017-12-19 21:03:4235.4063-119.1312680366
2017-12-19 21:02:4335.4063-119.1312680366
2017-12-19 21:01:4235.4063-119.1312680366
2017-12-19 21:00:4235.4063-119.1312680366
2017-12-19 20:59:4235.4063-119.1312680366
2017-12-19 20:58:4235.4063-119.1312680366
2017-12-19 20:57:4235.4063-119.1312680366
2017-12-19 20:56:4235.4063-119.1312680366
2017-12-19 20:55:4235.4063-119.1312680366
2017-12-19 20:54:4235.4067-119.12928613363
2017-12-19 20:53:4235.4063-119.1313598366
2017-12-19 20:52:4235.4042-119.128032359
2017-12-19 20:51:4235.3978-119.12527038365
2017-12-19 20:50:4235.398-119.1126925378
2017-12-19 20:49:4235.3978-119.1104378
2017-12-19 20:48:4235.3905-119.1100375
2017-12-19 20:47:4235.3875-119.111801371
2017-12-19 20:46:0735.3888-119.11310116368
2017-12-19 20:45:4335.3888-119.1142780365
2017-12-19 20:44:4335.3888-119.1142680366
2017-12-19 20:43:4335.3888-119.1142680366
2017-12-19 20:42:4335.3888-119.1142680366
2017-12-19 20:41:4335.3888-119.1142680366
2017-12-19 20:40:4335.3888-119.1142680366
2017-12-19 20:38:1335.3978-119.112661378
2017-12-19 20:37:1135.3983-119.10717912382
2017-12-19 20:35:1335.3983-119.10717912382
2017-12-19 20:32:1535.3983-119.10717912382
2017-12-19 20:31:3035.3983-119.10717912382
2017-12-19 20:27:1235.3983-119.10717912382
2017-12-19 20:26:1235.3983-119.10717912382
2017-12-19 20:25:1235.3983-119.10717912382
2017-12-19 20:24:1235.3983-119.10717912382
2017-12-19 20:23:1235.3983-119.10717912382
2017-12-19 20:22:1135.3983-119.10717912382
2017-12-19 20:21:1235.3983-119.10717912382
2017-12-19 20:20:1135.3983-119.10717912382
2017-12-19 20:19:1235.3983-119.10717912382
2017-12-19 20:18:1235.3983-119.10717912382
2017-12-19 20:17:1135.3983-119.10717912382
2017-12-19 20:16:1235.3983-119.10717912382
2017-12-19 20:15:1135.3983-119.10717912382
2017-12-19 20:14:1235.3983-119.10717912382
2017-12-19 20:13:1135.3983-119.10717912382
2017-12-19 20:12:1235.3983-119.10717912382
2017-12-19 20:11:1235.3983-119.10717912382
2017-12-19 20:09:1235.3983-119.10717912382
2017-12-19 20:08:1235.3983-119.10717912382
2017-12-19 20:07:1235.3983-119.10717912382
2017-12-19 20:06:1235.3983-119.10717912382
2017-12-19 20:05:1135.3983-119.10717912382
2017-12-19 20:04:1235.3983-119.10717912382
2017-12-19 19:55:1235.3983-119.10717912382
2017-12-19 19:45:1135.3983-119.10717912382
2017-12-19 19:44:1135.3983-119.10717912382
2017-12-19 19:43:1135.3983-119.10717912382
2017-12-19 19:42:1135.3983-119.10717912382
2017-12-19 19:41:1235.3983-119.10717912382
2017-12-19 19:37:1235.3983-119.10717912382
2017-12-19 19:27:1335.3983-119.10717912382
2017-12-19 19:26:1235.3983-119.10717912382
2017-12-19 19:25:1235.3983-119.10717912382
2017-12-19 19:24:1235.3983-119.10717912382
2017-12-19 01:11:5635.408-119.1118031386
2017-12-19 01:01:5635.408-119.1118031386
2017-12-19 00:51:5635.408-119.1118031386
2017-12-19 00:50:5635.408-119.1118031386
2017-12-19 00:49:5635.408-119.1118031386
2017-12-19 00:48:5635.408-119.1118031386
2017-12-19 00:47:5635.408-119.1118031386
2017-12-19 00:46:5635.408-119.1118031386
2017-12-19 00:42:5635.408-119.1118031386
2017-12-19 00:32:5635.408-119.1118031386
2017-12-19 00:22:5635.408-119.1118031386
2017-12-19 00:12:5635.408-119.1118031386
2017-12-19 00:02:5635.408-119.1118031386
2017-12-18 23:52:5635.408-119.1118031386
2017-12-18 23:42:5635.408-119.1118031386
2017-12-18 23:32:5635.408-119.1118031386
2017-12-18 23:22:5635.408-119.1118031386
2017-12-18 23:12:5635.408-119.1118031386
2017-12-18 23:02:5635.408-119.1118031386
2017-12-18 23:01:5835.408-119.1118031386
2017-12-18 23:00:5635.408-119.1118031386
2017-12-18 22:59:5635.408-119.1118031386
2017-12-18 22:58:5635.408-119.1118031386
2017-12-18 22:57:5635.408-119.1118031386
2017-12-18 22:52:5635.408-119.1118031386
2017-12-18 22:42:5635.408-119.1118031386
2017-12-18 22:32:5635.408-119.1118031386
2017-12-18 22:31:5635.408-119.1118031386
2017-12-18 22:30:5735.408-119.1118031386
2017-12-18 22:29:5635.408-119.1118031386
2017-12-18 22:28:5635.408-119.1118031386
2017-12-18 22:24:5635.408-119.1118031386
2017-12-18 22:14:5635.408-119.1118031386
2017-12-18 20:18:3935.405-119.10700362
2017-12-18 20:17:0635.405-119.10700428
2017-12-17 22:56:3835.4067-119.10732915386
2017-12-17 22:55:3835.4067-119.10732915386
2017-12-17 22:54:3935.4067-119.10732915386
2017-12-17 22:53:3835.4067-119.10732915386
2017-12-17 22:52:3935.4067-119.10732915386
2017-12-17 22:51:3835.4067-119.10732915386
2017-12-17 22:50:3935.4067-119.10732915386
2017-12-17 22:49:4135.4067-119.10732915386
2017-12-17 22:48:3835.4067-119.10732915386
2017-12-17 22:47:3835.4067-119.10732915386
2017-12-17 22:35:3935.4067-119.10732915386
2017-12-17 22:34:3835.4067-119.10732915386
2017-12-17 22:33:3835.4067-119.10732915386
2017-12-17 22:32:3835.4067-119.10732915386
2017-12-17 22:31:3935.4067-119.10732915386
2017-12-17 22:30:3835.4067-119.10732915386
2017-12-17 22:29:3835.4067-119.10732915386
2017-12-17 22:28:3935.4067-119.10732915386
2017-12-17 22:27:3835.4067-119.10732915386
2017-12-17 22:26:3935.4067-119.10732915386
2017-12-17 22:25:3835.4067-119.10732915386
2017-12-17 22:24:3835.4067-119.10732915386
2017-12-17 22:23:3835.4067-119.10732915386
2017-12-17 22:22:3835.4067-119.10732915386
2017-12-17 22:21:3835.4067-119.10732915386
2017-12-17 22:20:3835.4067-119.10732915386
2017-12-17 22:19:5835.4067-119.10732915386
2017-12-17 22:13:3835.4067-119.10732915386
2017-12-17 22:03:3835.4067-119.10732915386
2017-12-17 21:53:3835.4067-119.10732915386
2017-12-17 21:43:3935.4067-119.10732915386
2017-12-17 21:33:3835.4067-119.10732915386
2017-12-17 21:23:3935.4067-119.10732915386
2017-12-17 21:13:3835.4067-119.10732915386
2017-12-17 21:12:3835.4067-119.10732915386
2017-12-17 21:11:3835.4067-119.10732915386
2017-12-17 21:10:3835.4067-119.10732915386
2017-12-17 21:09:3835.4067-119.10732915386
2017-12-17 21:08:3835.4067-119.10732915386
2017-12-17 21:07:3835.4067-119.10732915386
2017-12-17 21:06:3835.4067-119.10732915386
2017-12-17 21:05:3835.4067-119.10732915386
2017-12-17 21:04:3935.4067-119.10732915386
2017-12-17 21:03:3835.4067-119.10732915386
2017-12-17 21:02:3835.4067-119.10732915386
2017-12-17 21:01:3835.4067-119.10732915386
2017-12-17 19:19:1535.4047-119.1071890385
2017-12-17 19:17:4435.4047-119.1071500384
2017-12-17 19:17:1435.4047-119.1072890385
2017-12-17 19:16:4435.4062-119.10716421386
2017-12-17 19:16:4235.4062-119.10715921386
2017-12-17 19:15:4235.4103-119.1117831385
2017-12-17 19:14:4335.4128-119.1092680378
2017-12-17 19:13:4335.413-119.09629746389
2017-12-17 19:12:4335.4125-119.08627141403
2017-12-17 19:11:4335.4122-119.07927042409
2017-12-17 19:09:4335.4122-119.05727040417
2017-12-17 19:08:4335.4087-119.0531763406
2017-12-17 19:07:4335.3917-119.04535968401
2017-12-17 19:06:4335.3725-119.04434367419
2017-12-17 19:05:4335.3545-119.039067350
2017-12-17 19:04:4335.335-119.039066345
2017-12-17 19:03:4335.317-119.03634773371
2017-12-17 19:02:4335.2978-119.03134771352
2017-12-17 19:01:0035.2638-119.02234769333
2017-12-17 19:00:3035.2542-119.0234773334
2017-12-17 19:00:0035.2438-119.01734774327
2017-12-17 18:59:3035.2342-119.01435072321
2017-12-17 18:59:0435.2255-119.01335269306
2017-12-17 18:58:5934.9137-118.923349732252
2017-12-17 18:57:5934.9137-118.923349732252
2017-12-17 18:56:5934.9137-118.923349732252
2017-12-17 18:55:5934.9137-118.923349732252
2017-12-17 18:54:5934.9137-118.923349732252
2017-12-17 18:53:5934.9137-118.923349732252
2017-12-17 18:52:5934.9137-118.923349732252
2017-12-17 18:51:5934.9137-118.923349732252
2017-12-17 18:50:5934.9137-118.923349732252
2017-12-17 18:49:5934.9137-118.923349732252
2017-12-17 18:48:5934.9137-118.923349732252
2017-12-17 18:47:5934.9137-118.923349732252
2017-12-17 18:46:5934.9137-118.923349732252
2017-12-17 18:46:0034.9137-118.923349732252
2017-12-17 18:44:5934.9137-118.923349732252
2017-12-17 18:43:5934.9137-118.923349732252
2017-12-17 18:42:5934.9137-118.923349732252
2017-12-17 18:40:5934.0345-118.685263514
2017-12-17 18:39:5934.0345-118.685263514
2017-12-17 18:38:5934.0345-118.685263514
2017-12-17 18:37:5934.0345-118.685263514
2017-12-17 18:36:5934.0345-118.685263514
2017-12-17 18:35:5934.0345-118.685263514
2017-12-17 18:34:5934.0345-118.685263514
2017-12-17 18:33:5934.0345-118.685263514
2017-12-17 18:32:5934.0345-118.685263514
2017-12-17 18:31:5934.0345-118.685263514
2017-12-17 18:30:5934.0345-118.685263514
2017-12-17 18:29:5934.0345-118.685263514
2017-12-17 18:28:5934.0345-118.685263514
2017-12-17 18:27:5934.0345-118.685263514
2017-12-17 18:26:5934.0345-118.685263514
2017-12-17 18:25:5934.0345-118.685263514
2017-12-17 18:24:5934.0345-118.685263514
2017-12-17 18:23:5934.0345-118.685263514
2017-12-17 18:23:1434.0345-118.685263514
2017-12-17 18:21:5934.0345-118.685263514
2017-12-17 18:20:5934.0345-118.685263514
2017-12-17 18:19:5934.0345-118.685263514
2017-12-17 18:18:5934.0345-118.685263514
2017-12-17 18:17:5934.0345-118.685263514
2017-12-17 18:16:5934.0345-118.685263514
2017-12-17 18:15:5934.0345-118.685263514
2017-12-17 18:14:5934.0345-118.685263514
2017-12-17 18:13:5934.0345-118.685263514
2017-12-17 18:12:5934.0345-118.685263514
2017-12-17 18:11:5934.0345-118.685263514
2017-12-17 18:10:5934.0345-118.685263514
2017-12-17 18:10:0534.0345-118.685263514
2017-12-17 18:08:5934.0345-118.685263514
2017-12-17 18:07:5934.0345-118.685263514
2017-12-17 18:06:5934.0345-118.685263514
2017-12-17 18:05:5934.0345-118.685263514
2017-12-17 18:04:5934.0345-118.685263514
2017-12-17 18:03:5934.0345-118.685263514
2017-12-17 18:02:5934.0345-118.685263514
2017-12-17 18:01:5934.0345-118.685263514
2017-12-17 18:00:5934.0345-118.685263514
2017-12-17 17:59:5934.0345-118.685263514
2017-12-17 17:58:5934.0345-118.685263514
2017-12-17 17:57:5934.0345-118.685263514
2017-12-17 17:56:5934.0345-118.685263514
2017-12-17 17:55:5934.0345-118.685263514
2017-12-17 17:54:5934.0345-118.685263514
2017-12-17 17:53:5934.0345-118.685263514
2017-12-17 17:52:5934.0345-118.685263514
2017-12-17 17:51:5934.0345-118.685263514
2017-12-17 17:50:5934.0345-118.685263514
2017-12-17 17:49:5934.0345-118.685263514
2017-12-17 17:48:5934.0345-118.685263514
2017-12-17 17:47:5934.0345-118.685263514
2017-12-17 17:46:5934.0345-118.685263514
2017-12-17 17:45:5934.0345-118.685263514
2017-12-17 17:44:5934.0345-118.685263514
2017-12-17 17:43:5934.0345-118.685263514
2017-12-17 17:42:5934.0345-118.685263514
2017-12-17 17:41:5934.0345-118.685263514
2017-12-17 17:40:5934.0345-118.685263514
2017-12-17 17:39:5934.0345-118.685263514
2017-12-17 17:38:5934.0345-118.685263514
2017-12-17 17:37:5934.0345-118.685263514
2017-12-17 17:36:5934.0345-118.685263514
2017-12-17 17:35:5934.0345-118.685263514
2017-12-17 17:34:5934.0345-118.685263514
2017-12-17 17:33:5934.0345-118.685263514
2017-12-17 17:32:5934.0345-118.685263514
2017-12-17 17:31:5934.0345-118.685263514
2017-12-17 17:28:5934.0345-118.685263514
2017-12-17 17:27:5934.0345-118.685263514
2017-12-17 17:26:2534.0345-118.6852621914
2017-12-17 00:58:1534.047-118.5253160311
2017-12-17 00:48:1534.047-118.5253160311
2017-12-17 00:38:1534.047-118.5253160311
2017-12-17 00:28:1534.047-118.5253160311
2017-12-17 00:27:1534.047-118.5253160311
2017-12-17 00:26:1634.047-118.5253160311
2017-12-17 00:25:1534.047-118.5253160311
2017-12-17 00:24:1834.047-118.5253160311
2017-12-17 00:23:1534.047-118.5253160311
2017-12-17 00:22:1534.047-118.5253160311
2017-12-17 00:21:1534.047-118.5253160311
2017-12-17 00:20:1534.047-118.5253160311
2017-12-17 00:19:1634.047-118.5253160311
2017-12-17 00:18:1534.047-118.5253160311
2017-12-17 00:17:1534.047-118.5253160311
2017-12-17 00:16:1534.047-118.5253160311
2017-12-17 00:15:1534.047-118.5253160311
2017-12-17 00:14:1534.047-118.5253160311
2017-12-17 00:13:1534.047-118.5253160311
2017-12-17 00:12:1834.047-118.5253160311
2017-12-17 00:11:1534.047-118.5253160311
2017-12-17 00:10:1534.047-118.5253160311
2017-12-16 18:00:3634.0367-118.67617224
2017-12-16 17:59:3634.0367-118.67617224
2017-12-16 17:58:3534.0367-118.67617224
2017-12-16 17:57:3634.0367-118.67617224
2017-12-16 17:56:3534.0367-118.67617224
2017-12-16 17:55:3534.0367-118.67617224
2017-12-16 17:54:3534.0367-118.67617224
2017-12-16 17:53:3534.0367-118.67617224
2017-12-16 17:52:3634.0367-118.67617224
2017-12-16 17:51:4134.0367-118.67617224
2017-12-16 17:50:3534.0367-118.67617224
2017-12-16 17:49:3534.0367-118.67617224
2017-12-16 17:48:3834.0367-118.67617224
2017-12-16 17:44:3534.0367-118.67617224
2017-12-16 17:34:3634.0367-118.67617224
2017-12-16 17:24:3534.0367-118.67617224
2017-12-16 17:14:3534.0367-118.67617224
2017-12-16 17:04:3534.0367-118.67617224
2017-12-16 16:54:3534.0367-118.67617224
2017-12-16 16:34:3634.0367-118.67617224
2017-12-16 16:32:5834.0367-118.67614924
2017-12-16 16:32:2834.037-118.67614415
2017-12-16 16:31:5834.0372-118.677126211
2017-12-16 16:28:4734.0367-118.6780010
2017-12-16 16:27:4734.0367-118.6780010
2017-12-16 16:26:4834.0367-118.6780010
2017-12-16 16:25:4734.0367-118.6780010
2017-12-16 16:24:4734.0367-118.6780010
2017-12-16 16:23:4734.0367-118.6780010
2017-12-16 16:22:4734.0367-118.6780010
2017-12-16 16:21:4734.0367-118.6780010
2017-12-16 16:20:4834.0367-118.6780010
2017-12-16 16:19:4734.0367-118.6780010
2017-12-16 16:17:4734.0367-118.6780010
2017-12-16 16:16:4734.0367-118.6780010
2017-12-16 16:15:4734.0367-118.6780010
2017-12-16 16:14:4734.0367-118.6780010
2017-12-16 16:13:4734.0367-118.6780010
2017-12-16 16:12:4734.0367-118.6780010
2017-12-16 16:11:4734.0367-118.6780010
2017-12-16 16:10:4734.0367-118.6780010
2017-12-16 16:09:4734.0367-118.6780010
2017-12-16 16:08:4734.0367-118.6780010
2017-12-16 16:07:4734.0367-118.6780010
2017-12-16 16:06:4734.0367-118.6780010
2017-12-16 16:05:4734.0367-118.6780010
2017-12-16 16:04:4734.0367-118.6780010
2017-12-16 16:03:4734.0367-118.6780010
2017-12-16 16:02:4734.0367-118.6780010
2017-12-16 16:01:4734.0367-118.6780010
2017-12-16 16:00:4734.0367-118.6780010
2017-12-16 15:59:4734.0367-118.6780010
2017-12-16 15:58:4734.0367-118.6780010
2017-12-16 15:57:4734.0367-118.6780010
2017-12-16 15:56:4734.0367-118.6780010
2017-12-16 15:55:4734.0367-118.6780010
2017-12-16 15:54:4734.0367-118.6780010
2017-12-16 15:53:4734.0367-118.6780010
2017-12-16 15:52:4734.0367-118.6780010
2017-12-16 15:51:4734.0367-118.6780010
2017-12-16 15:50:4734.0367-118.6780010
2017-12-16 15:49:4734.0367-118.6780010
2017-12-16 15:48:4734.0367-118.6780010
2017-12-16 15:47:4734.0367-118.6780010
2017-12-16 15:46:4834.0367-118.6780010
2017-12-16 15:45:4734.0367-118.6780010
2017-12-16 15:43:5934.0367-118.6780011
2017-12-16 01:46:3434.037-118.6780030
2017-12-16 01:36:3534.037-118.6780027
2017-12-16 01:26:3334.037-118.6780031
2017-12-16 01:25:3334.037-118.6780034
2017-12-16 01:24:3534.037-118.6780028
2017-12-16 01:23:3434.037-118.6780019
2017-12-16 01:22:3334.037-118.6780019
2017-12-16 01:20:4234.037-118.6780036
2017-12-16 01:20:3734.037-118.6780014
2017-12-16 01:01:3134.063-118.7048231383
2017-12-16 00:51:3134.1492-118.69823412781
2017-12-16 00:41:3134.1712-118.52527042787
2017-12-16 00:31:3134.1728-118.46817954698
2017-12-16 00:21:3134.338-118.515120641703
2017-12-16 00:11:3134.3783-118.565152151324
2017-12-16 00:01:3134.4172-118.58156261125
2017-12-15 02:12:5835.3912-119.0931130389
2017-12-15 02:11:5635.3922-119.09320617372
2017-12-15 02:10:5635.3972-119.09618431361
2017-12-15 02:09:5635.3978-119.1038037362
2017-12-15 02:08:5635.398-119.1071820364
2017-12-15 02:07:5635.3997-119.1061837378
2017-12-15 02:06:5635.4022-119.10517713377
2017-12-15 02:03:5635.4047-119.10701385
2017-12-15 02:01:5635.4047-119.1073350385
2017-12-15 01:51:5935.4047-119.10700385
2017-12-15 01:50:5635.4047-119.10700385
2017-12-15 01:49:5735.4047-119.10700385
2017-12-15 01:48:5635.4047-119.10700384
2017-12-15 01:47:5935.4047-119.10700384
2017-12-15 01:46:5635.4047-119.10700374
2017-12-15 01:45:5635.4047-119.10700374
2017-12-15 01:44:5635.4047-119.10700374
2017-12-15 01:43:2535.4047-119.10702356
2017-12-15 01:43:1235.405-119.10700385
2017-12-15 01:41:5235.405-119.10700385
2017-12-14 02:04:2035.3597-119.03935966360
2017-12-14 02:03:2035.3597-119.03935966360
2017-12-14 01:57:2035.3597-119.03935966360
2017-12-14 01:56:2035.3597-119.03935966360
2017-12-14 01:55:2035.3597-119.03935966360
2017-12-14 01:54:2035.3597-119.03935966360
2017-12-14 01:53:2035.3597-119.03935966360
2017-12-14 01:52:2035.3597-119.03935966360
2017-12-14 01:51:2035.3597-119.03935966360
2017-12-14 01:50:2035.3597-119.03935966360
2017-12-14 01:49:2035.3597-119.03935966360
2017-12-14 01:48:2035.3597-119.03935966360
2017-12-14 01:47:2035.3597-119.03935966360
2017-12-14 01:46:2035.3597-119.03935966360
2017-12-14 01:39:2035.3597-119.03935966360
2017-12-14 01:29:2035.3597-119.03935966360
2017-12-14 01:19:2035.3597-119.03935966360
2017-12-14 01:09:2035.3597-119.03935966360
2017-12-14 00:59:2035.3597-119.03935966360
2017-12-14 00:58:2035.3597-119.03935966360
2017-12-14 00:57:2035.3597-119.03935966360
2017-12-14 00:56:2035.3597-119.03935966360
2017-12-14 00:55:2035.3597-119.03935966360
2017-12-14 00:54:2035.3597-119.03935966360
2017-12-14 00:53:2035.3597-119.03935966360
2017-12-14 00:52:2035.3597-119.03935966360
2017-12-13 02:56:4735.4045-119.1182420366
2017-12-13 02:46:4735.4045-119.1182420366
2017-12-13 02:45:4735.4045-119.1182420366
2017-12-13 02:44:4735.4045-119.1182420366
2017-12-13 02:43:4735.4045-119.1182420366
2017-12-13 02:42:4735.4045-119.1182420366
2017-12-13 02:41:1635.4045-119.1182400366
2017-12-12 23:53:0535.4047-119.1073270385
2017-12-12 23:52:3535.405-119.1071619387
2017-12-12 23:52:0535.4075-119.10915019383
2017-12-12 23:51:1035.4053-119.1135913383
2017-12-12 23:50:4035.3997-119.11034376
2017-12-12 23:50:2635.3978-119.113582378
2017-12-12 23:50:1035.3978-119.113410413
2017-12-12 23:48:3435.3858-119.113590375
2017-12-12 23:48:0535.385-119.1135925375
2017-12-12 23:47:3435.3828-119.113570372
2017-12-12 23:47:0535.3828-119.113570372
2017-12-12 23:46:3435.3828-119.113570372
2017-12-12 23:46:0435.3812-119.11012369
2017-12-12 23:45:3435.3812-119.1100368
2017-12-12 23:44:3635.3787-119.111144368
2017-12-12 23:44:0635.372-119.1135945371
2017-12-12 23:44:0535.3717-119.1135944371
2017-12-12 23:42:4735.3683-119.11260326
2017-12-12 23:40:4835.3528-119.11534615365
2017-12-12 23:40:1835.3517-119.11435322364
2017-12-12 23:39:4835.3487-119.11435939362
2017-12-12 23:39:0135.3408-119.11435928358
2017-12-12 23:35:0035.3395-119.119036355
2017-12-12 23:25:0135.3412-119.13318910338
2017-12-12 23:19:0035.34-119.133030358
2017-12-12 23:17:3335.3397-119.1282700352
2017-12-12 23:16:3335.3397-119.11827040342
2017-12-12 23:15:3435.3472-119.11517948348
2017-12-12 23:14:3335.3542-119.11516632348
2017-12-12 23:13:3335.3613-119.11618540351
2017-12-12 23:12:3335.3658-119.11422029355
2017-12-12 23:11:3335.3745-119.111698349
2017-12-12 23:10:3335.3805-119.1118011360
2017-12-12 23:09:3335.3897-119.1118038360
2017-12-12 23:07:3535.4078-119.1118032386
2017-12-12 23:07:0535.4078-119.1135920386
2017-12-12 23:06:3535.4075-119.1092680386
2017-12-12 23:06:0535.407-119.10835218383
2017-12-12 23:05:3535.4045-119.1073306380
2017-12-12 23:05:0135.4045-119.1072410385
2017-12-12 23:04:1235.4063-119.10714915385
2017-12-12 23:03:4135.4075-119.109885386
2017-12-12 23:03:0535.393-119.1180380
2017-12-12 23:03:0235.393-119.1135944378
2017-12-12 23:01:1235.3903-119.11025375
2017-12-12 23:00:4235.3847-119.11140374
2017-12-12 23:00:1235.3828-119.1100372
2017-12-12 22:59:4235.3828-119.1110372
2017-12-12 22:59:1835.3828-119.1100372
2017-12-12 17:30:2035.3417-119.10900335
2017-12-11 00:11:2735.4047-119.1072371374
2017-12-11 00:10:2635.4038-119.1061712360
2017-12-11 00:09:2735.4013-119.10535915359
2017-12-11 00:08:2635.3988-119.10710347
2017-12-11 00:06:2635.4013-119.09525938370
2017-12-11 00:05:2635.4012-119.09200337
2017-12-11 00:04:2635.3995-119.09235948348
2017-12-11 00:03:2635.3867-119.09235345359
2017-12-11 00:02:2635.3737-119.09333850365
2017-12-11 00:01:2635.3633-119.09135532362
2017-12-11 00:00:2635.3547-119.092027372
2017-12-10 23:59:2635.3433-119.092048368
2017-12-10 23:58:2635.3392-119.092026369
2017-12-10 23:57:2635.3338-119.0921790362
2017-12-10 23:56:2635.3375-119.09217921369
2017-12-10 23:55:2635.3367-119.0931790366
2017-12-10 23:50:3635.3372-119.0931790366
2017-12-10 23:49:2635.338-119.0922690369
2017-12-10 23:48:2635.3397-119.0922710346
2017-12-10 23:47:2635.3395-119.08928745356
2017-12-10 23:46:2635.3347-119.07426940337
2017-12-10 23:45:2635.3387-119.05924642337
2017-12-10 23:44:2635.3395-119.04827035350
2017-12-10 23:43:2635.3395-119.0432700350
2017-12-10 23:42:2635.3395-119.0412710353
2017-12-10 23:41:2635.3395-119.0392710350
2017-12-10 23:40:2635.34-119.03717423360
2017-12-10 23:39:2635.3305-119.0393520321
2017-12-10 23:38:2635.313-119.03534770311
2017-12-10 23:37:2635.2937-119.0334772316
2017-12-10 23:36:2635.2742-119.02534773293
2017-12-10 23:35:2635.255-119.0234773295
2017-12-10 23:34:2635.2358-119.01534770294
2017-12-10 23:33:2635.2158-119.01135268258
2017-12-10 23:32:2635.1972-119.00935266153
2017-12-10 23:31:2635.1783-119.00535169234
2017-12-10 23:30:2635.1597-11934569242
2017-12-10 23:29:2635.1412-118.99434566252
2017-12-10 23:28:2635.1228-118.98834568297
2017-12-10 23:27:2635.1045-118.98234564342
2017-12-10 23:26:2735.0858-118.97734572427
2017-12-10 23:25:2635.0667-118.9734672508
2017-12-10 23:24:3235.0475-118.96534573634
2017-12-10 23:22:2935.0087-118.95234570909
2017-12-10 23:21:3834.9892-118.946345741081
2017-12-10 23:20:2834.9692-118.94345741302
2017-12-10 23:19:2734.9497-118.934345691481
2017-12-10 23:18:2634.9325-118.925329601784
2017-12-10 23:17:2634.9153-118.924350652148
2017-12-10 23:16:2634.8958-118.92318632548
2017-12-10 23:15:2634.8863-118.904300672951
2017-12-10 23:14:2634.8717-118.889320713213
2017-12-10 23:13:2634.8547-118.874328733390
2017-12-10 23:12:2634.837-118.8639713564
2017-12-10 23:11:2634.8205-118.87940733828
2017-12-10 23:10:2634.8033-118.877316774104
2017-12-10 23:09:2634.7958-118.858278703851
2017-12-10 23:08:2634.7917-118.834308743587
2017-12-10 23:07:2634.7783-118.814306743427
2017-12-10 23:06:2634.763-118.798333723236
2017-12-10 23:05:2634.7442-118.7968663037
2017-12-10 23:04:2634.7258-118.7990642911
2017-12-10 23:03:2634.7078-118.796340652841
2017-12-10 23:01:2634.6747-118.775301702798
2017-12-10 23:00:2734.6622-118.758311742698
2017-12-10 22:59:3234.6425-118.75333692877
2017-12-10 22:57:2634.6203-118.717335652679
2017-12-10 22:56:2634.6038-118.711349592819
2017-12-10 22:55:2634.5867-118.711336632823
2017-12-10 22:54:2634.5745-118.696294582599
2017-12-10 22:53:2634.5625-118.683308622470
2017-12-10 22:52:2634.55-118.67326622182
2017-12-10 22:51:2734.5387-118.656318581818
2017-12-10 22:49:2634.5097-118.634328681225
2017-12-10 22:48:2634.4937-118.622328691117
2017-12-10 22:47:2634.4762-118.61510641058
2017-12-10 22:46:2634.4588-118.6158621009
2017-12-10 22:45:2634.4438-118.60730270979
2017-12-10 22:44:2634.4322-118.59315631045
2017-12-10 22:43:2634.4158-118.579338651105
2017-12-10 22:42:2634.3988-118.572347641285
2017-12-10 22:41:2634.3817-118.567341631290
2017-12-10 22:40:2634.3672-118.558327591296
2017-12-10 22:39:2634.3537-118.549316541448
2017-12-10 22:38:2634.3472-118.535300551645
2017-12-10 22:37:2634.3408-118.523277431715
2017-12-10 22:36:2634.3355-118.51307331540
2017-12-10 22:35:2634.3305-118.506336131369
2017-12-10 22:34:2634.3208-118.495304651265
2017-12-10 22:33:2634.308-118.484321661198
2017-12-10 22:32:2634.2937-118.47320661144
2017-12-10 22:31:2634.2805-118.456334691000
2017-12-10 22:30:2634.2663-118.44332664926
2017-12-10 22:29:2634.252-118.4331869909
2017-12-10 22:28:2634.2367-118.41431568845
2017-12-10 22:26:2634.223-118.37130670761
2017-12-10 22:25:2634.2147-118.35231473739
2017-12-10 22:24:2634.2008-118.33933057621
2017-12-10 22:23:2634.1892-118.32431163547
2017-12-10 22:22:2634.178-118.3130855519
2017-12-10 22:21:2634.1663-118.29931155447
2017-12-10 22:20:2634.1537-118.28729959412
2017-12-10 22:19:2634.1397-118.27734156350
2017-12-10 22:18:2634.1275-118.27334735358
2017-12-10 22:17:2634.1172-118.26933559347
2017-12-10 22:16:2634.1063-118.25530759342
2017-12-10 22:15:2634.0962-118.24432025336
2017-12-10 22:14:2634.092-118.2432130323
2017-12-10 22:13:2634.0855-118.23231013317
2017-12-10 22:12:2634.0838-118.22930914332
2017-12-10 22:11:2634.0813-118.22330113320
2017-12-10 22:10:2634.0762-118.219013245
2017-12-10 22:09:2634.0738-118.2193544269
2017-12-10 22:08:2634.0675-118.21635035302
2017-12-10 22:07:2834.0613-118.21534426293
2017-12-10 22:06:2634.0547-118.21435831269
2017-12-10 22:05:2634.0455-118.2152458297
2017-12-10 22:04:2634.0338-118.2235724249
2017-12-10 22:03:2634.0305-118.21729812255
2017-12-10 22:02:2634.0288-118.21330111238
2017-12-10 22:01:2634.0262-118.20830415201
2017-12-10 22:00:2634.022-118.19829765164
2017-12-10 21:59:2634.0187-118.17729861117
2017-12-10 21:58:2634.0117-118.1613034493
2017-12-10 21:57:2634.003-118.1513193362
2017-12-10 21:56:2833.9953-118.1453223682
2017-12-10 21:55:2633.9892-118.1393200149
2017-12-10 21:54:2633.9775-118.1263244383
2017-12-10 21:53:2633.9683-118.1223465736
2017-12-10 21:52:2633.9572-118.1113115194
2017-12-10 21:51:2633.9453-118.0993305686
2017-12-10 21:50:2633.9333-118.0913304429
2017-12-10 21:49:2633.923-118.0843295984
2017-12-10 21:48:2633.9112-118.0723085638
2017-12-10 21:47:2633.902-118.0613112935
2017-12-10 21:46:2633.8988-118.0563021040
2017-12-10 21:45:2633.8963-118.0513042031
2017-12-10 21:44:2633.8933-118.0463031975
2017-12-10 21:43:2633.8905-118.0413033468
2017-12-10 21:42:2633.8872-118.0343011365
2017-12-10 21:41:2633.8845-118.033033897
2017-12-10 21:40:2633.8803-118.0223024425
2017-12-10 21:39:2633.8713-118.007308600
2017-12-10 21:38:2633.8605-117.989303730
2017-12-10 21:37:2633.8508-117.9693036853
2017-12-10 21:36:2633.8408-117.9513026380
2017-12-10 21:35:2633.8322-117.9323166827
2017-12-10 21:34:2633.8178-117.9183196935
2017-12-10 21:33:2633.8025-117.90131974146
2017-12-10 21:32:2633.7883-117.88632158106
2017-12-10 21:31:2633.7753-117.8733256488
2017-12-10 21:30:2733.7595-117.86231366150
2017-12-10 21:29:2633.7503-117.8443255981
2017-12-10 21:28:2633.7397-117.8312915985
2017-12-10 21:27:2633.7325-117.8143106330
2017-12-10 21:26:2633.7213-117.7983105931
2017-12-10 21:25:2633.7092-117.7813227583
2017-12-10 21:24:2633.6908-117.76933177138
2017-12-10 21:23:2633.6733-117.75634967190
2017-12-10 21:22:2633.6563-117.74432671203
2017-12-10 21:21:2733.6388-117.7332573255
2017-12-10 21:20:2633.6237-117.71632268315
2017-12-10 21:19:2633.6097-117.70130166333
2017-12-10 21:18:2633.6005-117.68329560418
2017-12-10 21:17:2633.5878-117.671061346
2017-12-10 21:16:2633.5703-117.672166245
2017-12-10 21:15:2633.5525-117.67335960222
2017-12-10 21:14:2633.5347-117.675170221
2017-12-10 21:13:2633.5192-117.66534062159
2017-12-10 21:12:2633.5028-117.6583506479
2017-12-10 21:11:2633.4862-117.665327059
2017-12-10 21:10:2633.4697-117.67433364154
2017-12-10 21:09:2633.4592-117.65730359204
2017-12-10 21:08:2633.4533-117.6452991357
2017-12-10 21:07:2633.4505-117.643097166
2017-12-10 21:06:2633.448-117.63630232120
2017-12-10 21:05:2633.4453-117.6313101398
2017-12-10 21:04:2633.4408-117.625305092
2017-12-10 21:03:2633.4395-117.62330214102
2017-12-10 21:02:2633.4342-117.61733071190
2017-12-10 21:01:2633.4178-117.60433764161
2017-12-10 21:00:2633.4003-117.5953377046
2017-12-10 20:59:2633.3847-117.581295760
2017-12-10 20:58:2633.3745-117.563027055
2017-12-10 20:57:2633.3633-117.54130966148
2017-12-10 20:56:2733.352-117.52430965126
2017-12-10 20:55:2633.3403-117.50831066112
2017-12-10 20:54:2633.3287-117.49231062109
2017-12-10 20:53:2633.315-117.4823496169
2017-12-10 20:52:2633.3022-117.4693146044
2017-12-10 20:51:2633.2895-117.455327707
2017-12-10 20:50:2633.273-117.443318736
2017-12-10 20:49:2933.2578-117.426326768
2017-12-10 20:48:2633.2403-117.413296696
2017-12-10 20:47:2633.2272-117.3963167239
2017-12-10 20:46:2633.2103-117.387333660
2017-12-10 20:45:2633.1995-117.373056361
2017-12-10 20:44:2733.185-117.3583255761
2017-12-10 20:43:2633.1703-117.3463276922
2017-12-10 20:42:2633.153-117.337333638
2017-12-10 20:41:2633.1362-117.333376826
2017-12-10 20:40:2633.1205-117.3213326257
2017-12-10 20:39:2633.1045-117.3113316415
2017-12-10 20:38:2633.0888-117.301330660
2017-12-10 20:37:2633.0713-117.2943456679
2017-12-10 20:36:2633.0533-117.2893456761
2017-12-10 20:35:2633.035-117.28133074128
2017-12-10 20:34:2633.017-117.271330720
2017-12-10 20:33:2633.0028-117.2573486240
2017-12-10 20:32:2632.9855-117.2553516323
2017-12-10 20:31:2632.9688-117.2493426112
2017-12-10 20:30:2632.952-117.24435162206
2017-12-10 20:29:2632.9337-117.2413546686
2017-12-10 20:28:2632.9167-117.2333106686
2017-12-10 20:27:2632.9-117.225187287
2017-12-10 20:26:2632.8805-117.228464268
2017-12-10 20:25:2632.863-117.23461247
2017-12-10 20:24:2732.8462-117.236766107
2017-12-10 20:23:2632.8278-117.2333526718
2017-12-10 20:22:2732.8142-117.221319441
2017-12-10 20:21:2632.8088-117.2193561713
2017-12-10 20:20:2632.8053-117.221731520
2017-12-10 20:19:2632.8028-117.227491831
2017-12-10 20:18:2632.802-117.23753156
2017-12-10 20:17:2632.8005-117.23675471
2017-12-10 20:16:2632.8-117.23987569
2017-12-10 20:15:2632.7992-117.24370060
2017-12-10 20:14:3532.798-117.247752145
2017-12-10 20:12:5332.798-117.25280236
2017-12-09 00:09:5532.7942-117.2550017
2017-12-08 23:59:5532.7942-117.2550017
2017-12-08 23:49:5532.7942-117.2550017
2017-12-08 23:39:5532.7942-117.2550017
2017-12-08 23:29:5532.7942-117.2550017
2017-12-08 23:19:5532.7942-117.2550017
2017-12-08 23:18:2332.7942-117.2550017
2017-12-08 06:13:4532.7983-117.249255033
2017-12-08 06:03:4632.8678-117.2318466192
2017-12-08 05:53:4533.0342-117.2815064153
2017-12-08 05:43:4633.1978-117.3681446496
2017-12-08 05:33:4633.3387-117.50613067171
2017-12-08 05:23:4533.4588-117.65612463176
2017-12-08 05:13:4633.5197-117.667390173
2017-12-08 05:12:4533.5203-117.66715829165
2017-12-08 05:11:4533.5325-117.67517467208
2017-12-08 05:10:4533.5508-117.67317868223
2017-12-08 05:09:4533.57-117.67218066250
2017-12-08 05:08:4633.5883-117.67218065346
2017-12-08 05:07:4533.6012-117.68411565315
2017-12-08 05:06:4533.6105-117.70313266329
2017-12-08 05:05:4533.6237-117.71614259287
2017-12-08 05:04:4533.6367-117.72914561174
2017-12-08 05:03:4533.6517-117.74114564132
2017-12-08 05:02:4533.6662-117.75314663166
2017-12-08 05:01:4533.6812-117.76213659132
2017-12-08 05:00:4533.695-117.7721515775
2017-12-08 04:59:4533.7092-117.7811425758
2017-12-08 04:58:4533.7205-117.7971296135
2017-12-08 04:57:5133.7308-117.8121295961
2017-12-08 04:56:4533.7388-117.82911160111
2017-12-08 04:55:4533.7488-117.8441506349
2017-12-08 04:54:4533.7578-117.85812053102
2017-12-08 04:53:4633.77-117.8691465094
2017-12-08 04:52:4533.7817-117.8812654113
2017-12-08 04:51:4533.7942-117.89313762146
2017-12-08 04:50:4533.8075-117.90713962116
2017-12-08 04:49:4533.8197-117.9213857112
2017-12-08 04:48:4633.8325-117.9331275987
2017-12-08 04:47:4533.84-117.951235959
2017-12-08 04:46:4533.8483-117.9651195265
2017-12-08 04:45:4533.8562-117.98885582
2017-12-08 04:44:4533.8558-118895857
2017-12-08 04:43:4533.8558-118.021896428
2017-12-08 04:42:4533.8613-118.04116651
2017-12-08 04:41:4533.8713-118.0581295822
2017-12-08 04:40:4533.8763-118.076896243
2017-12-08 04:39:4533.8762-118.096895674
2017-12-08 04:38:4533.8775-118.1041725340
2017-12-08 04:37:4533.8942-118.1051776048
2017-12-08 04:36:4533.9113-118.1051816069
2017-12-08 04:35:4533.9245-118.1051722386
2017-12-08 04:34:4633.9258-118.106126071
2017-12-08 04:33:4633.9295-118.1121230108
2017-12-08 04:32:4633.932-118.1171190108
2017-12-08 04:31:4533.9325-118.118212083
2017-12-08 04:30:4533.9333-118.1172112476
2017-12-08 04:29:4533.9337-118.11782596
2017-12-08 04:27:4633.9337-118.1183362103
2017-12-08 04:17:4633.9328-118.118214079
2017-12-08 04:07:4633.9328-118.11800108
2017-12-08 03:57:4633.9333-118.11801108
2017-12-08 03:47:4633.9575-118.11317620141
2017-12-08 03:37:4533.987-118.14211223144
2017-12-08 03:27:4534.0142-118.221870209
2017-12-08 03:17:4634.1017-118.235842457
2017-12-08 03:07:4534.1855-118.178058897
2017-12-08 02:57:4534.2722-118.35499611096
2017-12-08 02:56:4534.2738-118.37695651043
2017-12-08 02:55:4634.2778-118.396110571147
2017-12-08 02:54:4534.2862-118.4168551098
2017-12-08 02:53:4534.2745-118.42646621052
2017-12-08 02:52:4534.2662-118.44210552956
2017-12-08 02:51:4534.2792-118.455152611024
2017-12-08 02:50:4534.2922-118.469140601159
2017-12-08 02:49:4534.3053-118.482141631184
2017-12-08 02:48:4534.3197-118.494125661315
2017-12-08 02:47:4534.333-118.508139621544
2017-12-08 02:46:4634.3412-118.525103531750
2017-12-08 02:45:4534.3487-118.538115481558
2017-12-08 02:44:4634.3575-118.553144601353
2017-12-08 02:43:4534.3725-118.562152691291
2017-12-08 02:42:4534.39-118.57168671329
2017-12-08 02:41:4534.4075-118.576159671149
2017-12-08 02:40:4534.4245-118.584156611058
2017-12-08 02:39:4534.438-118.59613465972
2017-12-08 02:38:4634.4495-118.613147621052
2017-12-08 02:37:4734.4663-118.617173641061
2017-12-08 02:36:4634.4842-118.616158671138
2017-12-08 02:35:4534.5012-118.627172701265
2017-12-08 02:34:4634.5188-118.637147671599
2017-12-08 02:33:4534.5353-118.645146631870
2017-12-08 02:32:4534.5478-118.66124672154
2017-12-08 02:31:4634.5605-118.68130772484
2017-12-08 02:30:4634.5745-118.697122722688
2017-12-08 02:29:4534.5892-118.712175682808
2017-12-08 02:28:4534.6088-118.713179762730
2017-12-08 02:27:5834.6267-118.722124672805
2017-12-08 02:26:4634.6355-118.741120672883
2017-12-08 02:25:4534.65-118.754158622810
2017-12-08 02:24:4634.6653-118.762145642759
2017-12-08 02:23:4534.677-118.778151692843
2017-12-08 02:21:4634.7133-118.798173732879
2017-12-08 02:20:4534.7337-118.798188743030
2017-12-08 02:19:4634.7542-118.796178713190
2017-12-08 02:18:4634.772-118.804137743389
2017-12-08 02:17:4634.7838-118.823126703557
2017-12-08 02:16:4634.7937-118.84298683741
2017-12-08 02:15:4634.7963-118.86694733993
2017-12-08 02:14:4534.8083-118.883150613970
2017-12-08 02:13:4734.8233-118.876220643651
2017-12-08 02:12:4534.838-118.863179663471
2017-12-08 02:11:4634.8545-118.874148663338
2017-12-08 02:10:4634.8697-118.887139673196
2017-12-08 02:09:4534.883-118.9156652888
2017-12-08 02:08:5134.8925-118.917136572537
2017-12-08 02:07:4634.9072-118.924176642138
2017-12-08 02:05:4634.9372-118.93177641499
2017-12-08 02:04:4634.955-118.935165651347
2017-12-08 02:02:4634.9912-118.94716567996
2017-12-08 02:01:4635.0092-118.95216467833
2017-12-08 02:00:4535.0272-118.95816568699
2017-12-08 01:59:4635.0453-118.96416567593
2017-12-08 01:58:4635.0633-118.9716566504
2017-12-08 01:57:4635.0817-118.97616569427
2017-12-08 01:56:4635.0997-118.98116563343
2017-12-08 01:55:4635.117-118.98716562306
2017-12-08 01:54:4535.1345-118.99216666300
2017-12-08 01:53:4635.1528-118.99816568238
2017-12-08 01:52:4635.1712-119.00416566219
2017-12-08 01:51:4635.1908-119.00717270227
2017-12-08 01:50:4635.2095-119.0117267244
2017-12-08 01:49:4635.2283-119.01317368266
2017-12-08 01:48:4635.247-119.01816768277
2017-12-08 01:47:4635.2638-119.02216659271
2017-12-08 01:46:4635.2813-119.02716765319
2017-12-08 01:45:4635.2992-119.03116867321
2017-12-08 01:44:4635.3155-119.03516146327
2017-12-08 01:43:4535.3175-119.04900326
2017-12-08 01:42:4635.3175-119.0459026332
2017-12-08 01:41:4635.3175-119.0549533350
2017-12-08 01:40:4635.318-119.0679046339
2017-12-08 01:39:4535.318-119.075900337
2017-12-08 01:38:4635.318-119.0759027321
2017-12-08 01:37:4535.318-119.0899027357
2017-12-08 01:36:4635.318-119.099036352
2017-12-08 01:35:4635.3222-119.09218040354
2017-12-08 01:34:4635.3303-119.0921800367
2017-12-08 01:33:4535.3378-119.092893347
2017-12-08 01:32:4535.3372-119.09300389
2017-12-08 01:26:4635.3375-119.09317915354
2017-12-08 01:25:4635.3395-119.0989041323
2017-12-08 01:24:4635.3395-119.119040283
2017-12-08 01:23:4635.34-119.1141800331
2017-12-08 01:22:4635.34-119.1141800353
2017-12-08 01:21:4635.3453-119.11517940341
2017-12-08 01:16:4635.3742-119.111690354
2017-12-08 01:15:3935.3845-119.1100347
2017-12-08 01:07:1735.4047-119.10700384
2017-12-08 01:01:2035.4047-119.10700377
2017-12-08 00:51:2035.4047-119.10700377
2017-12-08 00:45:3235.4047-119.1072180385
2017-12-08 00:44:3235.4047-119.10700385
2017-12-08 00:43:3235.4047-119.10700385
2017-12-08 00:42:3235.4047-119.10700385
2017-12-08 00:41:3235.4047-119.10700385
2017-12-08 00:40:3235.4047-119.10700384
2017-12-08 00:38:3235.4047-119.10700385
2017-12-08 00:37:3235.4047-119.10700385
2017-12-08 00:36:3235.4047-119.10700385
2017-12-08 00:35:3235.4047-119.10700385
2017-12-08 00:34:3235.4047-119.10700385
2017-12-08 00:33:3235.4047-119.1071930385
2017-12-08 00:32:3235.4047-119.1071930385
2017-12-08 00:31:3335.4047-119.10700385
2017-12-08 00:30:3235.4047-119.10700385
2017-12-08 00:29:3235.4047-119.10700385
2017-12-08 00:28:3235.4047-119.10700385
2017-12-08 00:27:3335.4047-119.10700385
2017-12-08 00:26:3335.4047-119.10700385
2017-12-08 00:25:3235.4047-119.10700385
2017-12-08 00:24:3235.4047-119.10700385
2017-12-08 00:23:3435.4047-119.10700385
2017-12-08 00:22:3235.4047-119.10700385
2017-12-08 00:21:3235.4047-119.10700385
2017-12-08 00:20:3335.4047-119.10700385
2017-12-08 00:19:3235.4047-119.10700385
2017-12-08 00:18:3335.4047-119.10700385
2017-12-08 00:17:3235.4047-119.10700385
2017-12-08 00:16:3235.4047-119.10700385
2017-12-08 00:15:3235.4047-119.10700385
2017-12-08 00:14:3235.4047-119.10700385
2017-12-08 00:13:3435.4047-119.10700385
2017-12-08 00:12:3235.405-119.10700377
2017-12-08 00:11:3235.405-119.10700377
2017-12-08 00:10:3835.4047-119.1071370385
2017-12-08 00:09:3335.4047-119.10700376
2017-12-08 00:08:3235.4047-119.10700376
2017-12-08 00:07:3235.4047-119.10700376
2017-12-08 00:06:3235.4047-119.10700376
2017-12-08 00:05:3235.4047-119.10700376
2017-12-08 00:04:3235.4047-119.10700376
2017-12-08 00:03:3335.4047-119.10700376
2017-12-08 00:02:3235.4047-119.10700376
2017-12-08 00:01:3235.4047-119.10700376
2017-12-08 00:00:3235.4047-119.10700376
2017-12-07 23:59:3235.4047-119.10700376
2017-12-07 23:58:3335.4047-119.10700376
2017-12-07 23:57:3235.4047-119.10700376
2017-12-07 23:56:3235.4047-119.10700376
2017-12-07 23:55:3235.4047-119.10700376
2017-12-07 23:54:3235.4047-119.10700376
2017-12-07 23:53:3235.4047-119.10700376
2017-12-07 23:52:3235.4047-119.10700376
2017-12-07 23:51:3235.4047-119.10700376
2017-12-07 23:50:3235.4047-119.10700376
2017-12-07 23:49:3235.4047-119.10700376
2017-12-07 23:48:3235.4047-119.10700376
2017-12-07 23:47:3235.4047-119.10700376
2017-12-07 23:46:3235.4047-119.10700376
2017-12-07 23:45:3235.4047-119.10700376
2017-12-07 23:37:3235.4047-119.10717217387
2017-12-07 23:36:3235.4075-119.11541386
2017-12-07 23:35:3235.4003-119.11024375
2017-12-07 23:34:3535.3892-119.11038371
2017-12-07 23:33:3335.3838-119.11031375
2017-12-07 23:32:3335.3828-119.113570369
2017-12-07 23:31:3235.3803-119.11029368
2017-12-07 23:30:3235.372-119.1135943371
2017-12-07 23:28:5335.3553-119.11534543369
2017-12-07 23:28:2335.353-119.11500363
2017-12-07 23:28:2135.353-119.11500363
2017-12-07 23:20:2135.3417-119.10900396
2017-12-07 23:10:2135.3417-119.10900362
2017-12-07 23:03:5435.3417-119.10900360
2017-12-07 22:53:5535.3417-119.10900360
2017-12-07 22:52:2035.3417-119.10900360
2017-12-07 19:58:4435.3413-119.10900358
2017-12-07 19:58:1135.3413-119.10900357
2017-12-07 19:52:5035.3417-119.10800360
2017-12-07 19:42:5035.3417-119.10800360
2017-12-07 19:32:5035.3417-119.10800360
2017-12-07 19:22:5035.3417-119.10800360
2017-12-07 19:12:5035.3417-119.10800360
2017-12-07 19:02:5035.3417-119.10800360
2017-12-07 18:52:5035.3417-119.10800360
2017-12-07 18:42:5035.3417-119.10800360
2017-12-07 18:32:5035.3417-119.10800360
2017-12-07 18:22:5035.3417-119.10800360
2017-12-07 18:21:1535.3417-119.10800360
2017-12-07 18:21:1035.3417-119.10900357
2017-12-07 15:59:5035.4028-119.09300382
2017-12-07 15:49:5035.4028-119.0933550383
2017-12-07 15:48:5035.4038-119.09235830386
2017-12-07 15:47:5035.4013-119.09200388
2017-12-07 15:46:5035.3963-119.0921800394
2017-12-07 15:45:5035.3963-119.0921800393
2017-12-07 15:44:5035.3963-119.0923176392
2017-12-07 15:43:5035.39-119.092144404
2017-12-07 15:42:5035.3825-119.09235922370
2017-12-07 15:41:5035.3692-119.09235949378
2017-12-07 15:40:5035.3592-119.092048392
2017-12-07 15:39:5035.3495-119.09201315
2017-12-07 15:38:5035.345-119.092032346
2017-12-07 15:37:5135.3442-119.092860362
2017-12-07 15:36:5135.3433-119.0944844366
2017-12-07 15:35:5035.3428-119.1089033349
2017-12-07 15:32:5035.3417-119.1092790360
2017-12-07 15:31:5035.3417-119.10900360
2017-12-07 15:30:5035.3417-119.10900360
2017-12-07 15:29:5035.3417-119.10900360
2017-12-07 15:28:5035.3417-119.10900360
2017-12-07 15:27:5135.3417-119.10900361
2017-12-07 15:26:5035.3417-119.10900374
2017-12-07 15:25:5035.3417-119.10900374
2017-12-07 15:24:5035.3417-119.10900374
2017-12-07 15:23:5035.3417-119.10900374
2017-12-07 15:22:5035.3417-119.10900374
2017-12-07 15:21:5035.3417-119.10900374
2017-12-07 15:20:5035.3417-119.10900374
2017-12-07 15:19:5035.3417-119.10900374
2017-12-07 15:18:5035.3417-119.10900374
2017-12-07 15:17:5035.3417-119.1091890370
2017-12-07 15:16:5035.3417-119.1091890370
2017-12-07 15:15:5135.3417-119.1091890370
2017-12-07 15:14:5035.3417-119.1091890370
2017-12-07 15:10:5035.3428-119.109926361
2017-12-07 15:09:5035.3447-119.1141790361
2017-12-07 15:08:5135.3445-119.1141790319
2017-12-07 15:07:5035.3505-119.11518037329
2017-12-07 15:06:5035.3537-119.11516512365
2017-12-07 15:05:5035.3622-119.11618934365
2017-12-07 15:04:5035.368-119.11121431369
2017-12-07 15:03:5035.3733-119.1116929366
2017-12-07 15:02:1935.3875-119.111790331
2017-12-07 15:01:3435.3892-119.1117938372
2017-12-07 15:01:0335.3922-119.1117945378
2017-12-07 15:00:3335.3978-119.1117922378
2017-12-07 15:00:0335.398-119.111800378
2017-12-07 07:26:4035.4047-119.10700375
2017-12-07 07:16:3935.4047-119.10700375
2017-12-07 07:06:3935.4047-119.10700375
2017-12-07 06:56:3935.4047-119.10700375
2017-12-07 06:46:3935.4047-119.10700375
2017-12-07 06:36:3935.4047-119.10700375
2017-12-07 06:26:3935.4047-119.10700375
2017-12-07 06:16:3935.4047-119.10700375
2017-12-07 06:06:4035.4047-119.10700375
2017-12-07 05:57:2135.4-119.10635717380
2017-12-07 05:56:3935.4047-119.10700375
2017-12-07 05:47:2135.41-119.09300363
2017-12-07 05:46:3935.4047-119.10700375
2017-12-07 05:37:2035.41-119.09300388
2017-12-07 05:36:3935.4047-119.10700375
2017-12-07 05:27:2135.41-119.09300364
2017-12-07 05:26:3935.4047-119.10700375
2017-12-07 05:17:2135.41-119.09300389
2017-12-07 05:16:4035.4047-119.10700375
2017-12-07 05:07:2135.41-119.09300389
2017-12-07 05:06:3935.4047-119.10700375
2017-12-07 04:57:2135.4097-119.09300388
2017-12-07 04:56:3935.4047-119.10700375
2017-12-07 04:47:2135.41-119.09300389
2017-12-07 04:46:3935.4047-119.10700375
2017-12-07 04:37:2835.41-119.09300380
2017-12-07 04:36:3935.4047-119.10700375
2017-12-07 04:27:2135.41-119.09300386
2017-12-07 04:26:4035.4047-119.10700375
2017-12-07 04:17:2135.41-119.09300387
2017-12-07 04:16:3935.4047-119.10700375
2017-12-07 04:07:2135.4103-119.09300388
2017-12-07 04:06:3935.4047-119.10700375
2017-12-07 03:57:2135.41-119.09300388
2017-12-07 03:56:3935.4047-119.10700375
2017-12-07 03:47:2135.4097-119.09300385
2017-12-07 03:46:3935.4047-119.10700375
2017-12-07 03:37:2135.41-119.09300388
2017-12-07 03:36:3935.4047-119.10700375
2017-12-07 03:27:2135.41-119.0933000395
2017-12-07 03:26:3935.4047-119.10700375
2017-12-07 03:22:2035.41-119.0932941370
2017-12-07 03:16:3935.4047-119.10700375
2017-12-07 03:12:2035.4008-119.0922660381
2017-12-07 03:11:2035.4013-119.09217915349
2017-12-07 03:09:4235.4103-119.0933070392
2017-12-07 03:08:4635.4103-119.0932970392
2017-12-07 03:08:1635.41-119.0922510392
2017-12-07 03:07:4635.41-119.0932800392
2017-12-07 03:07:1635.412-119.0921769396
2017-12-07 03:06:3935.4047-119.10700375
2017-12-07 03:06:3235.4133-119.09810850383
2017-12-07 03:06:0235.4137-119.101900389
2017-12-07 03:05:3235.4128-119.1077344382
2017-12-07 03:05:0235.4122-119.11030383
2017-12-07 02:56:4035.4047-119.10700375
2017-12-07 02:46:3935.4047-119.10700375
2017-12-07 02:36:3935.4047-119.10700375
2017-12-07 02:26:3935.4047-119.10700375
2017-12-07 02:16:3935.4047-119.10700375
2017-12-07 02:06:3935.4047-119.10700375
2017-12-07 01:56:3935.4047-119.10700375
2017-12-07 01:49:1435.3913-119.0932741388
2017-12-07 01:48:1435.3937-119.09217915388
2017-12-07 01:47:1435.3992-119.09715826384
2017-12-07 01:46:3935.4047-119.10700375
2017-12-07 01:46:1435.3978-119.1059113356
2017-12-07 01:45:1635.3997-119.10618716378
2017-12-07 01:44:1435.4033-119.10517014384
2017-12-07 01:42:1435.405-119.1071170386
2017-12-07 01:36:3935.4047-119.10700375
2017-12-07 01:32:1435.4047-119.10700385
2017-12-07 01:29:5535.405-119.10700376
2017-12-07 01:26:3935.4047-119.10700375
2017-12-07 01:19:5535.405-119.107790386
2017-12-07 01:17:4635.4047-119.1063520385
2017-12-07 01:16:4635.4037-119.10634711383
2017-12-07 01:16:3935.4047-119.10700375
2017-12-07 01:15:4635.4005-119.10734916376
2017-12-07 01:14:4635.3978-119.107900354
2017-12-07 01:13:4635.3942-119.11040356
2017-12-07 01:12:0335.3828-119.113575372
2017-12-07 01:11:3335.3828-119.113570372
2017-12-07 01:11:0335.3828-119.113570372
2017-12-07 01:10:3335.3828-119.1135714372
2017-12-07 01:09:3335.3817-119.113570372
2017-12-07 01:09:0335.3813-119.113573371
2017-12-07 01:08:3335.3788-119.111231368
2017-12-07 01:08:0335.3733-119.1134927370
2017-12-07 01:07:3335.3722-119.1135918372
2017-12-07 01:07:0335.368-119.113428371
2017-12-07 01:06:5435.3675-119.1114417368
2017-12-07 01:06:3935.4047-119.10700375
2017-12-07 01:06:3435.3653-119.1143645365
2017-12-07 01:06:3335.365-119.1143545365
2017-12-07 01:05:5435.3583-119.116125369
2017-12-07 01:04:5435.352-119.1143471365
2017-12-07 01:03:1835.3433-119.11130334365
2017-12-07 01:02:5435.3428-119.1100362
2017-12-07 01:02:3935.3428-119.1113362
2017-12-07 01:01:5335.3422-119.109340367
2017-12-07 01:00:1735.3417-119.10901334
2017-12-07 01:00:0135.3417-119.10900362
2017-12-07 00:58:3035.3413-119.10900361
2017-12-07 00:56:3935.4047-119.10700375
2017-12-07 00:48:3035.3417-119.10900358
2017-12-07 00:46:3935.4047-119.10700375
2017-12-07 00:38:3035.3417-119.10900371
2017-12-07 00:36:4935.3417-119.10900335
2017-12-07 00:36:4035.4047-119.10700375
2017-12-07 00:36:1935.3417-119.10900335
2017-12-07 00:35:4935.3417-119.10900335
2017-12-07 00:35:1935.3417-119.10900335
2017-12-07 00:26:3935.4047-119.10700375
2017-12-07 00:26:3035.3417-119.10900361
2017-12-07 00:24:3635.3417-119.10901360
2017-12-07 00:24:0635.3417-119.10900360
2017-12-07 00:23:3635.3417-119.10900360
2017-12-07 00:23:2235.3417-119.10900360
2017-12-07 00:23:1735.3417-119.10900359
2017-12-07 00:23:1135.3417-119.10900418
2017-12-07 00:16:3935.4047-119.10700375
2017-12-07 00:06:3935.4047-119.10700375
2017-12-06 23:56:3935.4047-119.10700375
2017-12-06 23:46:3935.4047-119.10700375
2017-12-06 23:36:3935.4047-119.10700375
2017-12-06 23:26:3935.4047-119.10700375
2017-12-06 23:16:3935.4047-119.10700375
2017-12-06 23:06:3935.4047-119.10700375
2017-12-06 22:56:3935.4047-119.10700375
2017-12-06 22:46:3935.4047-119.10700375
2017-12-06 22:36:3935.4047-119.10700375
2017-12-06 22:26:3935.4047-119.10700375
2017-12-06 22:16:4035.4047-119.10700375
2017-12-06 22:06:4135.4047-119.10700375
2017-12-06 21:56:4035.4047-119.10700375
2017-12-06 21:46:3935.4047-119.10700375
2017-12-06 21:36:3935.4047-119.10700375
2017-12-06 21:26:4035.4047-119.10700375
2017-12-06 21:16:3935.4047-119.10700375
2017-12-06 21:06:3935.4047-119.10700375
2017-12-06 20:56:3935.4047-119.10700375
2017-12-06 20:46:3935.4047-119.10700375
2017-12-06 20:36:3935.4047-119.10700375
2017-12-06 20:26:4035.4047-119.10700375
2017-12-06 20:16:3935.4047-119.10700375
2017-12-06 20:06:3935.4047-119.10700375
2017-12-06 19:56:4035.4047-119.10700375
2017-12-06 19:46:3935.4047-119.10700375
2017-12-06 19:36:3935.4047-119.10700375
2017-12-06 19:26:3935.4047-119.10700375
2017-12-06 19:16:3935.4047-119.10700375
2017-12-06 19:06:4035.4047-119.10700375
2017-12-06 18:56:3935.4047-119.10700375
2017-12-06 18:46:4035.4047-119.10700375
2017-12-06 18:36:4035.4047-119.10700375
2017-12-06 18:26:4035.4047-119.10700375
2017-12-06 18:16:4035.4047-119.10700375
2017-12-06 18:06:3935.4047-119.10700375
2017-12-06 17:56:4135.4047-119.10700375
2017-12-06 17:46:4035.4047-119.10700375
2017-12-06 17:36:4035.4047-119.10700375
2017-12-06 17:26:4035.4047-119.10700375
2017-12-06 17:16:4035.4047-119.10700375
2017-12-06 17:06:4035.4047-119.10700375
2017-12-06 16:56:4035.4047-119.10700375
2017-12-06 16:46:4035.4047-119.10700375
2017-12-06 16:36:4035.4047-119.10700375
2017-12-06 16:26:4035.4047-119.10700375
2017-12-06 16:16:4035.4047-119.10700375
2017-12-06 16:06:4035.4047-119.10700375
2017-12-06 15:56:4035.4047-119.10700375
2017-12-06 15:46:4035.4047-119.10700375
2017-12-06 15:36:4035.4047-119.10700375
2017-12-06 15:26:4035.4047-119.10700375
2017-12-06 15:16:4035.4047-119.10700375
2017-12-06 15:06:4135.4047-119.10700375
2017-12-06 14:56:4035.4047-119.10700375
2017-12-06 14:46:4035.4047-119.10700375
2017-12-06 14:36:4035.4047-119.10700375
2017-12-06 14:26:4035.4047-119.10700375
2017-12-06 14:16:4035.4047-119.10700375
2017-12-06 14:06:4035.4047-119.10700375
2017-12-06 13:56:4035.4047-119.10700375
2017-12-06 13:46:4035.4047-119.10700375
2017-12-06 13:36:4035.4047-119.10700375
2017-12-06 13:26:4035.4047-119.10700375
2017-12-06 13:16:4035.4047-119.10700375
2017-12-06 13:06:4035.4047-119.10700375
2017-12-06 12:56:4035.4047-119.10700375
2017-12-06 12:46:4035.4047-119.10700375
2017-12-06 12:36:4135.4047-119.10700375
2017-12-06 12:26:4035.4047-119.10700375
2017-12-06 12:16:4035.4047-119.10700375
2017-12-06 12:06:4035.4047-119.10700375
2017-12-06 11:56:4035.4047-119.10700375
2017-12-06 11:46:4035.4047-119.10700375
2017-12-06 11:36:4035.4047-119.10700375
2017-12-06 11:26:4035.4047-119.10700375
2017-12-06 11:16:4035.4047-119.10700375
2017-12-06 11:06:4135.4047-119.10700375
2017-12-06 10:56:4035.4047-119.10700375
2017-12-06 10:46:4035.4047-119.10700375
2017-12-06 10:36:4035.4047-119.10700375
2017-12-06 10:26:4035.4047-119.10700375
2017-12-06 10:16:4135.4047-119.10700375
2017-12-06 10:06:4035.4047-119.10700375
2017-12-06 09:56:4035.4047-119.10700375
2017-12-06 09:46:4035.4047-119.10700375
2017-12-06 09:36:4035.4047-119.10700375
2017-12-06 09:26:4135.4047-119.10700375
2017-12-06 09:16:4035.4047-119.10700375
2017-12-06 09:06:4035.4047-119.10700375
2017-12-06 08:56:4035.4047-119.10700375
2017-12-06 08:46:4035.4047-119.10700375
2017-12-06 08:36:4135.4047-119.10700375
2017-12-06 08:34:5835.4047-119.10700375
2017-12-06 01:06:1735.4077-119.109980426
2017-12-06 01:00:5835.427-119.0872780368
2017-12-06 01:00:2835.427-119.08727044410
2017-12-06 00:59:2835.427-119.07526935417
2017-12-06 00:58:2935.4242-119.06531338423
2017-12-06 00:57:2835.4195-119.05427138433
2017-12-06 00:56:2935.4195-119.04127133448
2017-12-06 00:55:2835.4213-119.03917821458
2017-12-06 00:54:3135.4262-119.0391359481
2017-12-06 00:38:2935.4258-119.04731463755
2017-12-06 00:28:2835.435-119.0861381101481
2017-12-06 00:08:2935.7342-119.176113935206
2017-12-06 00:06:4935.6958-119.205181135172
2017-12-06 00:06:1635.6808-119.211171125232
2017-12-06 00:05:4635.6658-119.216141115268
2017-12-06 00:05:2035.6528-119.22121085297
2017-12-06 00:05:1535.6508-119.22121095295
2017-12-05 23:53:5635.4487-119.115261862401
2017-12-05 23:52:1635.4453-119.07312751199
2017-12-05 23:52:0535.4438-119.068312741156
2017-12-05 23:42:0635.4258-119.041990498
2017-12-05 23:32:0535.4263-119.0413532473
2017-12-05 23:31:0535.4233-119.043464461
2017-12-05 23:21:0535.4245-119.0418016468
2017-12-05 23:20:0535.4263-119.041880480
2017-12-05 23:19:0535.423-119.03935914465
2017-12-05 23:18:0635.4192-119.039900449
2017-12-05 23:17:0535.4195-119.0419140448
2017-12-05 23:16:0535.4197-119.0559935434
2017-12-05 23:15:0535.4213-119.06112944409
2017-12-05 23:14:0535.427-119.068857435
2017-12-05 23:13:0535.427-119.0819043416
2017-12-05 23:12:0735.427-119.093901402
2017-12-05 23:10:0535.4225-119.11029385
2017-12-05 23:09:0535.4188-119.1135846384
2017-12-05 23:08:0535.4125-119.1135921385
2017-12-05 23:07:0635.4075-119.10926816382
2017-12-05 22:58:0635.4047-119.1072380385
2017-12-05 22:57:0535.4038-119.1061710383
2017-12-05 22:56:0535.4008-119.10735513376
2017-12-05 22:55:0535.398-119.1052680353
2017-12-05 22:54:0635.3983-119.09634740352
2017-12-05 22:53:0535.3922-119.0932821388
2017-12-05 22:50:0535.3912-119.0933090389
2017-12-05 22:40:0535.3903-119.09300383
2017-12-05 22:30:0535.3903-119.09300383
2017-12-05 22:20:0535.3903-119.09300383
2017-12-05 22:10:0535.3925-119.09217921346
2017-12-05 22:09:0535.3988-119.09616230386
2017-12-05 22:08:0535.3978-119.1059113347
2017-12-05 22:07:0535.4003-119.10616918376
2017-12-05 22:06:0535.4037-119.106858382
2017-12-05 21:59:0835.4045-119.1072241385
2017-12-05 21:57:4435.4075-119.109887386
2017-12-05 21:56:4535.3992-119.11036378
2017-12-05 21:55:1635.392-119.1135942340
2017-12-05 21:55:1335.3645-119.11535939337
2017-12-05 21:54:1635.3645-119.1153251365
2017-12-05 21:53:1635.3645-119.1153251365
2017-12-05 21:51:2635.3608-119.11635931365
2017-12-05 21:50:5635.3563-119.11634946363
2017-12-05 21:50:2635.353-119.1153453363
2017-12-05 21:49:4635.3512-119.1143590363
2017-12-05 21:49:2635.35-119.11435938362
2017-12-05 21:48:5635.3445-119.11435912362
2017-12-05 21:48:2635.343-119.11130534363
2017-12-05 21:47:5635.3422-119.10926710362
2017-12-05 21:17:2535.3417-119.10900361
2017-12-05 21:11:3435.3417-119.10900363
2017-12-05 21:01:3535.3417-119.10900360
2017-12-05 20:51:3535.3417-119.10900362
2017-12-05 20:41:3435.3417-119.10900362
2017-12-05 20:31:3535.3417-119.10900362
2017-12-05 20:21:3535.3417-119.10900335
2017-12-05 20:19:5735.3422-119.1091971355
2017-12-05 20:18:5735.3422-119.1115012337
2017-12-05 20:17:5735.3428-119.10227038322
2017-12-05 20:16:5835.345-119.09217951314
2017-12-05 20:15:5735.3542-119.09127120328
2017-12-05 20:14:5835.3542-119.0827036324
2017-12-05 20:13:5735.3542-119.06627038378
2017-12-05 20:12:2535.3562-119.0613590381
2017-12-05 20:11:5535.3562-119.0613590381
2017-12-05 20:10:5535.3562-119.0613590381
2017-12-05 20:10:3835.3553-119.0613555381
2017-12-05 20:10:2735.355-119.06100378
2017-12-05 20:08:3935.3545-119.063160383
2017-12-05 19:58:3835.3545-119.06100354
2017-12-05 19:48:3935.3545-119.0600385
2017-12-05 19:38:4035.3545-119.0600378
2017-12-05 19:35:4935.355-119.062017382
2017-12-05 19:35:1935.3538-119.0629015378
2017-12-05 19:34:4935.3542-119.0621220378
2017-12-05 19:33:5335.3538-119.0639043378
2017-12-05 19:33:2335.3542-119.0719045375
2017-12-05 19:32:5335.3542-119.0799147375
2017-12-05 19:32:2335.3542-119.0878948373
2017-12-05 19:32:1735.3542-119.0898944375
2017-12-05 19:31:5435.3538-119.0923590372
2017-12-05 19:31:1635.35-119.092018369
2017-12-05 19:30:1635.347-119.09235946368
2017-12-05 19:23:1635.3417-119.10900361
2017-12-05 19:22:1735.3417-119.10900361
2017-12-05 19:21:1635.3417-119.10900361
2017-12-05 19:20:1635.3417-119.10900361
2017-12-05 19:19:1635.3417-119.10900361
2017-12-05 19:18:1635.3417-119.10900361
2017-12-05 19:17:1635.3417-119.10900361
2017-12-05 19:16:1635.3417-119.10900361
2017-12-05 19:15:1635.3417-119.10900361
2017-12-05 19:14:1635.3417-119.10900361
2017-12-05 19:13:1635.3417-119.10900361
2017-12-05 19:12:1635.3417-119.10900361
2017-12-05 19:11:1635.3417-119.10900361
2017-12-05 19:10:1735.3417-119.10900361
2017-12-05 19:09:1635.3417-119.10900361
2017-12-05 19:08:1635.3417-119.10900361
2017-12-05 19:07:1635.3417-119.10900361
2017-12-05 19:06:1635.3417-119.10900361
2017-12-05 19:05:1735.3417-119.10900361
2017-12-05 19:04:1735.3417-119.10900361
2017-12-05 19:03:1635.3417-119.10900361
2017-12-05 19:02:1635.3417-119.10900361
2017-12-05 19:01:1735.3417-119.10900361
2017-12-05 19:00:1635.3417-119.10900384
2017-12-05 18:59:1735.3417-119.10900357
2017-12-05 18:58:1635.3417-119.10900357
2017-12-05 18:57:1635.3417-119.10900357
2017-12-05 18:56:1635.3417-119.10900357
2017-12-05 18:55:1635.3417-119.10900357
2017-12-05 18:54:1635.3417-119.10900357
2017-12-05 18:53:1635.3417-119.10900357
2017-12-05 18:52:1735.3417-119.10900357
2017-12-05 18:51:1735.3417-119.10900357
2017-12-05 18:50:1635.3417-119.10900357
2017-12-05 18:49:1635.3417-119.10900357
2017-12-05 18:48:1635.3417-119.10900357
2017-12-05 18:47:1735.3417-119.10900357
2017-12-05 18:46:1635.3417-119.10900357
2017-12-05 18:45:1635.3417-119.10900357
2017-12-05 18:44:1635.3417-119.10900357
2017-12-05 18:43:1635.3417-119.10900357
2017-12-05 18:42:1635.3417-119.10900357
2017-12-05 18:41:1635.3417-119.10900357
2017-12-05 18:40:1635.3417-119.10900357
2017-12-05 18:39:1735.3417-119.10900357
2017-12-05 18:38:1635.3417-119.10900357
2017-12-05 18:37:1635.3417-119.10900357
2017-12-05 18:36:1735.3417-119.10900357
2017-12-05 18:35:1735.3417-119.10900357
2017-12-05 18:34:1735.3417-119.10900357
2017-12-05 18:31:1635.3417-119.10900457
2017-12-05 18:21:1635.3417-119.10900362
2017-12-05 18:11:1735.3417-119.10900362
2017-12-05 18:01:1635.3417-119.10900362
2017-12-05 17:51:1635.3417-119.10900362
2017-12-05 17:41:1635.3417-119.10900484
2017-12-05 17:31:1735.3417-119.10900362
2017-12-05 17:21:1635.3417-119.109610447
2017-12-05 17:11:1735.3417-119.10900412
2017-12-05 17:01:1735.3417-119.10900364
2017-12-05 16:51:1635.3405-119.1063461350
2017-12-05 16:41:1635.3403-119.10402364
2017-12-05 16:39:4335.3403-119.1031550364
2017-12-05 16:36:0535.4083-119.1118032386
2017-12-05 16:26:0835.4083-119.1118032386
2017-12-05 16:16:0435.4083-119.1118032386
2017-12-05 16:06:0435.4083-119.1118032386
2017-12-05 15:56:0435.4083-119.1118032386
2017-12-05 15:46:0435.4083-119.1118032386
2017-12-05 15:36:0435.4083-119.1118032386
2017-12-05 15:26:0435.4083-119.1118032386
2017-12-05 15:16:0535.4083-119.1118032386
2017-12-05 15:06:0435.4083-119.1118032386
2017-12-05 15:04:2235.4092-119.113279386
2017-12-05 15:04:0335.4078-119.112720386
2017-12-05 08:55:3435.4047-119.10700376
2017-12-05 08:54:0135.4047-119.10700375
2017-12-05 08:25:4935.405-119.10700356
2017-12-05 08:25:4435.4047-119.10702355
2017-12-05 00:40:0635.4047-119.107350386
2017-12-05 00:39:0635.4042-119.10733313380
2017-12-05 00:38:0635.4012-119.1069011375
2017-12-05 00:37:0635.3978-119.1079013384
2017-12-05 00:36:0635.3972-119.11032352
2017-12-05 00:35:0635.3875-119.11041357
2017-12-05 00:34:0635.3833-119.11024342
2017-12-05 00:33:0635.3745-119.1135046345
2017-12-05 00:32:0635.3653-119.1143846365
2017-12-05 00:31:0835.3538-119.11534532358
2017-12-05 00:30:0635.3508-119.11435924362
2017-12-05 00:29:0635.3433-119.11230737362
2017-12-05 00:25:0635.3417-119.109840361
2017-12-05 00:24:0635.3417-119.109840361
2017-12-05 00:23:0635.3417-119.109840361
2017-12-05 00:22:0635.3417-119.109840361
2017-12-05 00:21:0635.3417-119.109840361
2017-12-05 00:20:0635.3417-119.109840361
2017-12-05 00:19:0635.3417-119.109840361
2017-12-05 00:18:0635.3417-119.109180361
2017-12-05 00:17:0635.3417-119.109180361
2017-12-05 00:16:0635.3417-119.109180361
2017-12-05 00:15:0635.3417-119.109180361
2017-12-05 00:14:0635.3417-119.109180361
2017-12-05 00:13:0635.3417-119.109180361
2017-12-05 00:12:0635.3417-119.109180361
2017-12-05 00:11:0635.3417-119.109180361
2017-12-05 00:10:0635.3417-119.109180361
2017-12-05 00:09:0635.3417-119.109180361
2017-12-05 00:08:0635.3417-119.109180361
2017-12-05 00:07:0635.3417-119.109180361
2017-12-05 00:06:0635.3417-119.109180361
2017-12-05 00:05:0735.3417-119.109180361
2017-12-05 00:04:0635.3417-119.109180361
2017-12-05 00:03:0735.3417-119.109180361
2017-12-05 00:02:0635.3417-119.109180361
2017-12-05 00:01:0635.3417-119.109180361
2017-12-05 00:00:0635.3417-119.109180361
2017-12-04 23:59:0735.3417-119.109180361
2017-12-04 23:58:0635.3417-119.109180361
2017-12-04 23:57:0635.3417-119.109180361
2017-12-04 23:56:0635.3417-119.109180361
2017-12-04 23:55:0635.3417-119.109180361
2017-12-04 23:54:0635.3417-119.109180361
2017-12-04 23:53:0635.3417-119.109180361
2017-12-04 23:52:0635.3417-119.109180361
2017-12-04 23:51:0635.3417-119.109180361
2017-12-04 23:50:0635.3417-119.109180361
2017-12-04 23:49:0635.3417-119.109180361
2017-12-04 23:48:0635.3417-119.109180361
2017-12-04 23:47:0635.3417-119.109180361
2017-12-04 23:46:0635.3417-119.109180361
2017-12-04 23:45:0635.3417-119.109180361
2017-12-04 23:44:0635.3417-119.109180361
2017-12-04 23:43:0635.3417-119.109140361
2017-12-04 23:42:0635.3417-119.109950361
2017-12-04 23:41:0635.3417-119.109950361
2017-12-04 23:40:0635.3417-119.109950361
2017-12-04 23:39:0635.3417-119.109950361
2017-12-04 23:38:0635.3417-119.109950361
2017-12-04 23:37:0635.3417-119.109950361
2017-12-04 23:36:0635.3417-119.109950361
2017-12-04 23:35:0635.3417-119.109140361
2017-12-04 23:34:0635.3417-119.109110361
2017-12-04 23:33:0635.3417-119.109110361
2017-12-04 23:32:0635.3417-119.109110361
2017-12-04 23:31:0635.3417-119.109110361
2017-12-04 23:30:0635.3417-119.109110361
2017-12-04 23:29:0635.3417-119.109110361
2017-12-04 23:28:0635.3417-119.109150361
2017-12-04 23:27:0635.3417-119.109150361
2017-12-04 23:26:0635.3417-119.109150361
2017-12-04 23:25:0735.3417-119.109150361
2017-12-04 23:24:0635.3417-119.109150361
2017-12-04 23:23:0635.3417-119.109150361
2017-12-04 23:22:0735.3417-119.109150361
2017-12-04 23:21:0635.3417-119.109110361
2017-12-04 23:20:0635.3417-119.109140361
2017-12-04 23:19:0635.3417-119.109140361
2017-12-04 23:18:0635.3417-119.109140361
2017-12-04 23:17:0635.3417-119.109140361
2017-12-04 23:16:0635.3417-119.109140361
2017-12-04 23:15:0635.3417-119.109140361
2017-12-04 23:14:0635.3417-119.109140361
2017-12-04 23:13:0635.3417-119.109140361
2017-12-04 23:12:0635.3417-119.109140361
2017-12-04 23:11:0635.3417-119.109140361
2017-12-04 23:10:0635.3417-119.109140361
2017-12-04 23:09:0735.3417-119.109140361
2017-12-04 23:08:0635.3417-119.109140361
2017-12-04 23:07:0635.3417-119.109140361
2017-12-04 23:06:0635.3417-119.109140361
2017-12-04 23:05:0635.3417-119.109140361
2017-12-04 23:04:0635.3417-119.109140361
2017-12-04 23:03:0635.3417-119.109140361
2017-12-04 23:02:0635.3417-119.109140361
2017-12-04 23:01:0735.3417-119.109140361
2017-12-04 23:00:0635.3417-119.109140361
2017-12-04 22:59:0635.3417-119.109140361
2017-12-04 22:58:0635.3417-119.109140361
2017-12-04 22:57:0635.3417-119.109140361
2017-12-04 22:56:0635.3417-119.109140361
2017-12-04 22:55:0635.3417-119.109140361
2017-12-04 22:54:0635.3417-119.109140361
2017-12-04 22:53:0635.3417-119.109140361
2017-12-04 22:52:0735.3417-119.109140361
2017-12-04 22:51:0635.3417-119.109140361
2017-12-04 22:50:0635.3417-119.109140361
2017-12-04 22:49:0635.3417-119.109140361
2017-12-04 22:48:0635.3417-119.109140361
2017-12-04 22:47:0635.3417-119.109140361
2017-12-04 22:46:0635.3417-119.109110360
2017-12-04 22:45:0635.3417-119.109110360
2017-12-04 22:44:0635.3417-119.109110360
2017-12-04 22:43:0635.3417-119.109110360
2017-12-04 22:42:0635.3417-119.109110360
2017-12-04 22:41:0635.3417-119.109110360
2017-12-04 22:40:0635.3417-119.10900360
2017-12-04 22:39:0635.3417-119.10900360
2017-12-04 22:38:0635.3417-119.10900360
2017-12-04 22:37:0635.3417-119.10900360
2017-12-04 22:36:0635.3417-119.10900360
2017-12-04 22:35:0635.3417-119.10900360
2017-12-04 22:34:0635.3417-119.10900360
2017-12-04 22:33:0635.3417-119.10900399
2017-12-04 22:32:0635.3417-119.10900399
2017-12-04 22:31:0635.3417-119.10900399
2017-12-04 22:30:0635.3417-119.10900399
2017-12-04 22:29:0635.3417-119.10900399
2017-12-04 22:28:0635.3417-119.10900399
2017-12-04 22:27:0635.3417-119.10900399
2017-12-04 22:26:0635.3417-119.10900399
2017-12-04 22:25:0735.3417-119.10900399
2017-12-04 22:24:0635.3417-119.10900399
2017-12-04 22:23:0735.3417-119.10900399
2017-12-04 22:22:0735.3417-119.10900399
2017-12-04 22:21:0635.3417-119.10900399
2017-12-04 22:20:0635.3417-119.10900399
2017-12-04 22:19:0635.3417-119.10900399
2017-12-04 22:18:0635.3417-119.10900399
2017-12-04 22:17:0635.3417-119.10900399
2017-12-04 22:16:0735.3417-119.10900399
2017-12-04 22:15:0635.3417-119.10900399
2017-12-04 22:14:0635.3417-119.10900399
2017-12-04 22:13:0735.3417-119.10900399
2017-12-04 22:12:0635.3417-119.10900399
2017-12-04 22:11:0635.3417-119.10900399
2017-12-04 22:10:0735.3417-119.10900399
2017-12-04 22:09:0635.3417-119.10900399
2017-12-04 22:08:0635.3417-119.10900399
2017-12-04 22:07:0635.3417-119.10900399
2017-12-04 22:06:0635.3417-119.10900399
2017-12-04 22:05:0635.3417-119.10900399
2017-12-04 22:04:0635.3417-119.10900399
2017-12-04 22:03:0735.3417-119.10900399
2017-12-04 22:02:0635.3417-119.10900399
2017-12-04 22:01:0635.3417-119.10900399
2017-12-04 22:00:0735.3417-119.10900399
2017-12-04 21:59:0735.3417-119.10900399
2017-12-04 21:58:0635.3417-119.10900399
2017-12-04 21:57:0635.3417-119.10900399
2017-12-04 21:56:0635.3417-119.10900399
2017-12-04 21:55:0635.3417-119.10900399
2017-12-04 21:54:0635.3417-119.10900399
2017-12-04 21:53:0635.3417-119.10900399
2017-12-04 21:52:0635.3417-119.10900399
2017-12-04 21:51:0735.3417-119.10900399
2017-12-04 21:50:0635.3417-119.10900399
2017-12-04 21:49:0735.3417-119.10900399
2017-12-04 21:48:0735.3417-119.10900399
2017-12-04 21:47:0735.3417-119.10900399
2017-12-04 21:39:0635.3403-119.1062811362
2017-12-04 21:37:3535.3413-119.105862362
2017-12-04 21:30:1135.3413-119.105862362
2017-12-04 21:20:1135.3413-119.105862362
2017-12-04 21:18:3735.3413-119.105762362
2017-12-04 21:18:3135.3412-119.10502335
2017-12-04 18:10:4435.3417-119.10900363
2017-12-04 18:00:4435.3417-119.10900363
2017-12-04 17:50:4435.3413-119.10900467
2017-12-04 17:40:4435.3417-119.10900363
2017-12-04 17:30:4435.3417-119.10900363
2017-12-04 17:20:4435.3417-119.10900363
2017-12-04 17:10:4435.3417-119.10900358
2017-12-04 17:00:4435.3417-119.10900363
2017-12-04 16:50:4435.3417-119.10900361
2017-12-04 16:40:4435.3417-119.10900433
2017-12-04 16:30:4435.3417-119.10900361
2017-12-04 16:20:4435.3417-119.10900432
2017-12-04 16:10:4535.3412-119.1072751374
2017-12-04 16:00:4535.3403-119.10302363
2017-12-04 15:59:1135.3403-119.1041955363
2017-12-04 15:58:4735.3403-119.1041955363
2017-12-04 15:51:3635.3412-119.107991358
2017-12-04 15:49:5735.3413-119.107981358
2017-12-04 15:49:2735.3413-119.108921358
2017-12-04 15:49:0835.3413-119.10801356
2017-12-04 15:34:3635.3417-119.10900363
2017-12-04 15:25:3635.3422-119.1091800361
2017-12-04 15:24:3635.3425-119.1118110361
2017-12-04 15:23:3635.3447-119.1141790361
2017-12-04 15:22:3635.3445-119.1141790352
2017-12-04 15:21:0435.3537-119.1151650323
2017-12-04 15:21:0235.3537-119.1151650315
2017-12-04 15:20:0235.3605-119.11618148339
2017-12-04 15:19:0235.3717-119.1118037338
2017-12-04 15:17:2335.3842-119.111800374
2017-12-04 15:16:5335.387-119.1118038371
2017-12-04 15:16:2335.3908-119.111774378
2017-12-04 15:15:5335.3962-119.1118045378
2017-12-04 15:15:3235.4003-119.1117944373
2017-12-04 15:15:2835.4008-119.1117943373
2017-12-04 15:14:2835.4088-119.1135519386
2017-12-04 15:13:2835.4078-119.10828810382
2017-12-04 15:12:4635.4047-119.10733012379
2017-12-04 15:09:2935.4047-119.10700386
2017-12-04 15:08:2935.405-119.10700357
2017-12-04 15:06:5935.4047-119.10700376
2017-12-04 15:05:5935.405-119.10700377
2017-12-04 15:05:0035.405-119.10700377
2017-12-04 15:03:5935.405-119.10700377
2017-12-04 15:02:5935.405-119.10700377
2017-12-04 15:02:0035.405-119.10700377
2017-12-04 15:00:5935.405-119.10700377
2017-12-04 15:00:0035.405-119.10700377
2017-12-04 14:59:0135.405-119.10700377
2017-12-04 14:57:5935.405-119.10700377
2017-12-04 14:56:5935.405-119.10700377
2017-12-04 14:56:0035.405-119.10700377
2017-12-04 14:54:5935.405-119.10700377
2017-12-04 14:54:0035.405-119.10700377
2017-12-04 14:52:5935.405-119.10700377
2017-12-04 14:51:5935.405-119.10700377
2017-12-04 14:51:0035.405-119.10700377
2017-12-04 14:49:5935.405-119.10700377
2017-12-04 14:48:5935.405-119.10700377
2017-12-04 14:47:5935.405-119.10700377
2017-12-04 14:46:5935.405-119.10700377
2017-12-04 14:45:5935.405-119.10700377
2017-12-04 14:44:5935.405-119.10700377
2017-12-04 14:43:5935.405-119.10700377
2017-12-04 14:42:5935.405-119.10700377
2017-12-04 14:41:5935.405-119.10700377
2017-12-04 14:40:5935.405-119.10700377
2017-12-04 14:39:5935.405-119.10700377
2017-12-04 14:38:5935.405-119.10700377
2017-12-04 14:37:5935.405-119.10700377
2017-12-04 14:36:5935.405-119.10700377
2017-12-04 14:35:5935.4047-119.107810385
2017-12-04 14:34:5935.4047-119.107810385
2017-12-04 14:33:5935.4047-119.107810385
2017-12-04 14:32:5935.4047-119.107810385
2017-12-04 14:32:0135.4047-119.107810385
2017-12-04 14:31:0035.4047-119.107810385
2017-12-04 14:29:5935.4047-119.107810385
2017-12-04 14:28:5935.4047-119.107810385
2017-12-04 14:28:0035.4047-119.107810385
2017-12-04 14:26:5935.4047-119.107810385
2017-12-04 14:25:5935.4047-119.107810385
2017-12-04 14:24:5935.4047-119.107810385
2017-12-04 14:24:0035.4047-119.107810385
2017-12-04 14:22:5935.4047-119.107810385
2017-12-04 14:21:5935.4047-119.107810385
2017-12-04 14:21:0035.4047-119.107810385
2017-12-04 14:20:0035.4047-119.107810385
2017-12-04 14:18:1735.4047-119.107810385
2017-12-04 14:17:4535.4047-119.107810385
2017-12-04 14:17:1535.4047-119.107810385
2017-12-04 14:16:4535.4047-119.107810385
2017-12-04 14:16:1935.4047-119.10701357
2017-12-04 13:58:4935.4047-119.10700385
2017-12-04 13:48:4935.4047-119.10700384
2017-12-04 13:47:1635.4047-119.10700384
2017-12-04 13:41:0935.405-119.10700377
2017-12-04 13:31:0835.405-119.10700376
2017-12-04 13:21:0935.405-119.10700376
2017-12-04 13:11:0835.405-119.10700377
2017-12-04 13:01:0835.405-119.10700377
2017-12-04 12:51:0935.405-119.10700377
2017-12-04 12:41:0835.405-119.10700376
2017-12-04 12:31:0835.405-119.10700376
2017-12-04 12:21:1135.405-119.10700376
2017-12-04 12:11:0835.405-119.10700377
2017-12-04 12:01:0835.405-119.10700377
2017-12-04 11:51:0835.405-119.10700377
2017-12-04 11:41:0835.405-119.10700377
2017-12-04 11:31:0835.405-119.10700377
2017-12-04 11:21:0835.405-119.10700377
2017-12-04 11:11:0835.405-119.10700377
2017-12-04 11:01:0835.405-119.10700377
2017-12-04 10:51:0835.405-119.10700377
2017-12-04 10:41:0935.405-119.10700377
2017-12-04 10:31:0935.405-119.10700376
2017-12-04 10:21:0835.4047-119.10700376
2017-12-04 10:11:0835.4047-119.10700376
2017-12-04 10:01:0935.405-119.10700377
2017-12-04 09:51:0835.405-119.10700377
2017-12-04 09:41:0835.405-119.10700377
2017-12-04 09:31:0935.405-119.10700377
2017-12-04 09:30:0835.405-119.10700377
2017-12-04 09:29:0835.405-119.10700377
2017-12-04 09:28:0835.405-119.10700377
2017-12-04 09:27:0835.405-119.10700377
2017-12-04 09:26:0835.405-119.10700377
2017-12-04 09:25:0835.405-119.10700377
2017-12-04 09:24:0835.405-119.10700377
2017-12-04 09:23:0835.405-119.10700377
2017-12-04 09:22:0835.405-119.10700377
2017-12-04 09:21:0935.405-119.10700377
2017-12-04 09:20:0935.405-119.10700377
2017-12-04 09:19:0935.405-119.10700377
2017-12-04 09:18:0835.405-119.10700377
2017-12-04 09:17:0835.405-119.10700377
2017-12-04 09:16:0835.405-119.10700377
2017-12-04 09:15:0835.405-119.10700377
2017-12-04 09:14:0935.405-119.10700377
2017-12-04 09:13:0835.405-119.10700377
2017-12-04 09:12:0835.405-119.10700377
2017-12-04 09:11:0835.405-119.10700377
2017-12-04 09:10:0935.405-119.10700377
2017-12-04 09:09:0935.4047-119.10700376
2017-12-04 09:08:0935.4047-119.10700376
2017-12-04 09:07:0835.4047-119.10700376
2017-12-04 09:06:0835.4047-119.10700376
2017-12-04 09:05:0835.4047-119.10700376
2017-12-04 09:04:0835.4047-119.10700376
2017-12-04 09:03:0835.4047-119.10700376
2017-12-04 09:02:0935.4047-119.10700376
2017-12-04 09:01:0835.4047-119.10700376
2017-12-04 09:00:0935.4047-119.10700376
2017-12-04 08:59:1035.4047-119.10700376
2017-12-04 08:58:0835.4047-119.10700376
2017-12-04 08:57:0935.4047-119.10700377
2017-12-04 08:56:0835.4047-119.10700377
2017-12-04 08:55:0835.4047-119.10700377
2017-12-04 08:54:0835.4047-119.10700377
2017-12-04 08:53:0835.4047-119.10700377
2017-12-04 08:52:0835.4047-119.10700377
2017-12-04 08:51:0935.4047-119.10700377
2017-12-04 08:50:0835.405-119.10700377
2017-12-04 08:49:0835.405-119.10700377
2017-12-04 08:48:0835.405-119.10700377
2017-12-04 08:47:0835.405-119.10700377
2017-12-04 08:46:0935.405-119.10700377
2017-12-04 08:45:0835.405-119.10700377
2017-12-04 08:44:0835.405-119.10700377
2017-12-04 08:43:0835.405-119.10700377
2017-12-04 08:42:0835.405-119.10700377
2017-12-04 08:41:0835.405-119.10700377
2017-12-04 08:40:0935.405-119.10700377
2017-12-04 08:39:0835.405-119.10700377
2017-12-04 08:38:0935.405-119.10700377
2017-12-04 08:37:0935.405-119.10700377
2017-12-04 08:36:0835.405-119.10700377
2017-12-04 08:35:0935.405-119.10700377
2017-12-04 08:34:0935.405-119.10700377
2017-12-04 08:33:0835.405-119.10700377
2017-12-04 08:32:0935.405-119.10700377
2017-12-04 08:31:0835.405-119.10700377
2017-12-04 08:30:0835.405-119.10700377
2017-12-04 08:29:0835.405-119.10700377
2017-12-04 08:28:0835.405-119.10700377
2017-12-04 08:27:1035.405-119.10700377
2017-12-04 08:26:0935.405-119.10700377
2017-12-04 08:25:0835.405-119.10700377
2017-12-04 08:24:0835.405-119.10700377
2017-12-04 08:23:0835.405-119.10700377
2017-12-04 08:22:0935.405-119.10700377
2017-12-04 08:21:0835.405-119.10700377
2017-12-04 08:20:0835.405-119.10700377
2017-12-04 08:19:0935.405-119.10700377
2017-12-04 08:18:0935.405-119.10700377
2017-12-04 08:17:0835.405-119.10700377
2017-12-04 08:16:0935.405-119.10700377
2017-12-04 08:15:0835.405-119.10700376
2017-12-04 08:14:0835.405-119.10700376
2017-12-04 08:13:0835.405-119.10700376
2017-12-04 08:12:0935.405-119.10700376
2017-12-04 08:11:1035.405-119.10700376
2017-12-04 08:10:0835.405-119.10700376
2017-12-04 08:09:0835.405-119.10700376
2017-12-04 08:08:0835.405-119.10700376
2017-12-04 08:07:0835.405-119.10700376
2017-12-04 08:06:0935.405-119.10700376
2017-12-04 08:05:0935.405-119.10700376
2017-12-04 08:04:0835.405-119.10700376
2017-12-04 08:03:0835.405-119.10700376
2017-12-04 08:02:0835.405-119.10700376
2017-12-04 08:01:0835.405-119.10700376
2017-12-04 08:00:0835.405-119.10700376
2017-12-04 07:59:0835.405-119.10700376
2017-12-04 07:58:0835.405-119.10700376
2017-12-04 07:57:0935.4047-119.10700376
2017-12-04 07:56:0835.4047-119.10700376
2017-12-04 07:55:0835.4047-119.10700376
2017-12-04 07:54:1035.4047-119.10700376
2017-12-04 07:53:0835.4047-119.10700376
2017-12-04 07:52:0835.4047-119.10700376
2017-12-04 07:51:0835.4047-119.10700376
2017-12-04 07:50:0835.4047-119.10700376
2017-12-04 07:49:1035.4047-119.10700376
2017-12-04 07:48:0935.4047-119.10700376
2017-12-04 07:47:0835.4047-119.10700376
2017-12-04 07:46:0935.4047-119.10700376
2017-12-04 07:45:0935.4047-119.10700376
2017-12-04 07:44:0935.4047-119.10700376
2017-12-04 07:43:1035.4047-119.10700376
2017-12-04 07:42:0935.4047-119.10700376
2017-12-04 07:41:0835.4047-119.10700376
2017-12-04 07:40:0835.4047-119.10700376
2017-12-04 07:39:0835.4047-119.10700376
2017-12-04 07:38:1035.4047-119.10700376
2017-12-04 07:37:0835.4047-119.10700376
2017-12-04 07:36:0835.4047-119.10700376
2017-12-04 07:35:0835.405-119.10700376
2017-12-04 07:34:0835.405-119.10700376
2017-12-04 07:33:0935.405-119.10700376
2017-12-04 07:32:0835.4047-119.10700374
2017-12-04 07:31:3435.4047-119.10700375
2017-12-04 07:31:0935.405-119.10700376
2017-12-04 07:30:3135.4047-119.10700374
2017-12-04 07:30:0935.405-119.10700376
2017-12-04 07:29:5935.4047-119.10700375
2017-12-04 07:29:2635.405-119.10700376
2017-12-04 07:29:2535.4047-119.10700375
2017-12-04 07:27:0935.405-119.10700377
2017-12-04 07:26:0835.405-119.10700377
2017-12-04 07:25:0935.405-119.10700377
2017-12-04 07:24:0835.405-119.10700377
2017-12-04 07:23:0835.405-119.10700377
2017-12-04 07:22:0835.405-119.10700377
2017-12-04 07:21:0835.405-119.10700377
2017-12-04 07:20:0835.405-119.10700377
2017-12-04 07:19:0835.405-119.10700377
2017-12-04 07:18:0835.405-119.10700377
2017-12-04 07:17:1035.405-119.10700377
2017-12-04 07:16:0935.405-119.10700377
2017-12-04 07:15:0935.405-119.10700377
2017-12-04 07:14:0935.405-119.10700377
2017-12-04 07:13:0835.405-119.10700377
2017-12-04 07:12:0835.405-119.10700377
2017-12-04 07:11:0935.405-119.10700377
2017-12-04 07:10:0935.405-119.10700377
2017-12-04 07:09:0835.4047-119.10700383
2017-12-04 07:08:0935.4047-119.10700383
2017-12-04 07:07:0835.4047-119.10700383
2017-12-04 07:06:0835.4047-119.10700383
2017-12-04 07:05:0835.4047-119.10700383
2017-12-04 07:04:0835.4047-119.10700383
2017-12-04 07:03:0935.4047-119.10700383
2017-12-04 07:02:0835.4047-119.10700383
2017-12-04 07:01:1035.4047-119.10700383
2017-12-04 07:00:0835.4047-119.10700383
2017-12-04 06:59:0835.4047-119.10700383
2017-12-04 06:57:3135.4047-119.10700383
2017-12-04 06:57:0835.4047-119.10701357
2017-12-04 03:39:2435.405-119.107240359
2017-12-04 03:29:2435.4012-119.10900369
2017-12-04 03:19:2435.3978-119.11131349
2017-12-04 03:18:2435.3967-119.1128811358
2017-12-04 03:17:2435.402-119.1117944375
2017-12-04 03:16:2435.4083-119.1135627386
2017-12-04 03:15:2435.4067-119.10835517383
2017-12-04 03:08:2435.405-119.10700386
2017-12-04 02:58:5635.4047-119.10700384
2017-12-04 02:57:1635.4047-119.10701384
2017-12-04 02:56:4735.4047-119.10700383
2017-12-04 02:49:0635.405-119.10600368
2017-12-04 02:39:0635.4047-119.10700371
2017-12-04 02:29:0735.405-119.10700373
2017-12-04 02:19:0735.405-119.10700387
2017-12-04 02:09:0835.4047-119.10700380
2017-12-04 01:59:0735.405-119.10700369
2017-12-04 01:49:0735.405-119.10700372
2017-12-04 01:39:0735.405-119.10700355
2017-12-04 01:29:0635.405-119.10700364
2017-12-04 01:19:0735.4047-119.10700379
2017-12-04 01:09:0735.405-119.10700377
2017-12-04 00:59:0735.405-119.10700367
2017-12-04 00:49:0735.405-119.10700373
2017-12-04 00:39:3335.405-119.10700375
2017-12-04 00:35:5335.405-119.10700377
2017-12-04 00:25:5335.405-119.10700378
2017-12-04 00:15:5435.405-119.10700385
2017-12-04 00:14:1835.4047-119.10700382
2017-12-04 00:14:1235.4047-119.10700389
2017-12-03 22:43:5035.405-119.1072390386
2017-12-03 22:33:5035.3983-119.10700382
2017-12-03 22:32:0935.3983-119.10700381
2017-12-03 22:31:3935.3983-119.1072260381
2017-12-03 22:31:0935.3983-119.1072270381
2017-12-03 22:30:4035.3983-119.10700371
2017-12-03 22:29:4135.3983-119.10700381
2017-12-03 22:19:4135.3903-119.09300383
2017-12-03 22:09:4235.3903-119.09300384
2017-12-03 22:08:0935.3908-119.09300384
2017-12-03 22:05:2835.3905-119.09300383
2017-12-03 21:55:2735.3905-119.09300383
2017-12-03 21:52:5635.3903-119.09300383
2017-12-03 21:51:1735.3903-119.09300383
2017-12-03 20:20:1035.4047-119.10700368
2017-12-03 20:10:0835.4047-119.10700382
2017-12-03 20:00:0935.4047-119.10700356
2017-12-03 19:58:3635.405-119.10700377
2017-12-03 19:58:3535.405-119.10700376
2017-12-03 19:55:4335.405-119.10700376
2017-12-03 19:45:4335.405-119.10700383
2017-12-03 19:44:0135.4047-119.10700385
2017-12-03 19:43:3135.4047-119.10700385
2017-12-03 19:42:3135.4047-119.10700385
2017-12-03 19:42:0435.405-119.10700380
2017-12-03 19:41:5335.405-119.10700380
2017-12-03 19:40:0935.4047-119.10700356
2017-12-03 19:39:0935.4047-119.10700356
2017-12-03 19:38:3935.4047-119.10700356
2017-12-03 19:38:2235.4047-119.10700356
2017-12-03 19:38:1535.4047-119.10700355
2017-12-03 19:38:0435.405-119.10700376
2017-12-03 19:32:2535.405-119.10700385
2017-12-03 19:30:4135.405-119.10700385
2017-12-03 19:29:4135.405-119.10700385
2017-12-03 19:28:5435.405-119.10700385
2017-12-03 19:28:4135.405-119.10700385
2017-12-03 19:28:1635.4047-119.10703391
2017-12-03 01:42:0135.4047-119.1071550385
2017-12-03 01:31:5435.3845-119.10900354
2017-12-03 01:21:5435.3845-119.10900368
2017-12-03 01:11:5435.3833-119.05827038421
2017-12-03 01:01:5335.3763-118.99628636374
2017-12-03 00:51:5435.377-118.99400409
2017-12-03 00:41:5435.377-118.99400413
2017-12-03 00:32:4835.377-118.99400412
2017-12-03 00:22:4935.377-118.99400436
2017-12-03 00:12:4835.377-118.99400412
2017-12-03 00:11:2335.377-118.99400381
2017-12-03 00:11:1235.377-118.99400409
2017-12-03 00:09:5135.377-118.99400409
2017-12-02 21:36:2435.3742-118.99200413
2017-12-02 21:26:2435.3742-118.99200396
2017-12-02 21:16:2435.3742-118.99200376
2017-12-02 21:06:2435.3872-119.0212546397
2017-12-02 21:04:4435.4028-119.0449849368
2017-12-02 21:04:3635.403-119.04612550419
2017-12-02 21:02:4935.4122-119.068925423
2017-12-02 21:02:1935.4122-119.0639039418
2017-12-02 21:01:4935.4122-119.0719047416
2017-12-02 21:01:1935.4122-119.089045406
2017-12-02 21:00:5035.4122-119.0859022402
2017-12-02 21:00:2835.4122-119.0889049398
2017-12-02 21:00:2735.4122-119.0889049398
2017-12-02 20:59:5935.412-119.09200388
2017-12-02 20:52:4435.4047-119.10700385
2017-12-02 20:51:1135.4047-119.10700374
2017-12-02 20:50:1135.4047-119.1071870385
2017-12-02 20:47:5335.405-119.1073220386
2017-12-02 20:47:2735.405-119.10700386
2017-12-02 20:47:2335.405-119.1071970386
2017-12-02 20:46:5335.4047-119.10700385
2017-12-02 20:45:4035.4047-119.10700385
2017-12-02 20:35:4035.4047-119.10700356
2017-12-02 20:33:3135.4047-119.10700385
2017-12-02 20:33:1535.405-119.10700386
2017-12-02 20:32:1535.405-119.10700386
2017-12-02 20:31:4535.4047-119.10700385
2017-12-02 20:30:5135.4047-119.10700385
2017-12-02 20:30:3835.4047-119.1072040385
2017-12-02 20:30:2135.405-119.10700385
2017-12-02 20:29:5135.405-119.10700385
2017-12-02 20:29:2435.405-119.10701355
2017-12-02 00:03:1635.4047-119.1071760384
2017-12-02 00:02:1635.4062-119.10716115386
2017-12-02 00:01:1535.4058-119.1135932385
2017-12-02 00:00:1535.3988-119.1135840359
2017-12-01 23:59:1635.3903-119.1103345
2017-12-01 23:58:1535.383-119.1135720346
2017-12-01 23:57:1535.3795-119.1177344
2017-12-01 23:56:1635.3725-119.1135929371
2017-12-01 23:55:2335.3683-119.11310370
2017-12-01 23:54:1535.3672-119.1124844338
2017-12-01 23:53:1535.3575-119.11635438346
2017-12-01 23:52:1535.3525-119.1153460365
2017-12-01 23:46:1635.3417-119.109710361
2017-12-01 23:45:1535.3417-119.109520361
2017-12-01 23:44:1635.3417-119.109630361
2017-12-01 23:43:1535.3413-119.109700360
2017-12-01 23:42:1535.3413-119.109690360
2017-12-01 23:41:1535.3413-119.109690360
2017-12-01 23:40:1535.3413-119.109690360
2017-12-01 23:39:1535.3413-119.109690360
2017-12-01 23:38:1635.3413-119.109690360
2017-12-01 23:37:1635.3413-119.109690360
2017-12-01 23:36:1535.3413-119.109690360
2017-12-01 23:35:1535.3413-119.109690360
2017-12-01 23:34:1535.3413-119.109690360
2017-12-01 23:33:1535.3413-119.109690360
2017-12-01 23:32:1535.3413-119.109690360
2017-12-01 23:31:1535.3413-119.109150359
2017-12-01 23:30:1535.3413-119.109150359
2017-12-01 23:29:1635.3413-119.109150359
2017-12-01 23:28:1535.3413-119.109150359
2017-12-01 23:27:1535.3413-119.109150359
2017-12-01 23:26:1535.3413-119.109150359
2017-12-01 23:25:1535.3413-119.109150359
2017-12-01 23:24:1535.3413-119.109150359
2017-12-01 23:23:1535.3413-119.109150359
2017-12-01 23:22:1535.3413-119.109150359
2017-12-01 23:21:1635.3413-119.109150359
2017-12-01 23:20:1635.3413-119.109150359
2017-12-01 23:19:1535.3413-119.109150359
2017-12-01 23:18:1635.3413-119.109150359
2017-12-01 23:17:1635.3413-119.109150359
2017-12-01 23:16:1535.3413-119.109150359
2017-12-01 23:15:1535.3413-119.109150359
2017-12-01 23:14:1535.3413-119.109150359
2017-12-01 23:13:1535.3413-119.109150359
2017-12-01 23:12:1535.3413-119.109150359
2017-12-01 23:11:1535.3413-119.109150359
2017-12-01 23:10:1535.3413-119.109150359
2017-12-01 23:09:1535.3413-119.109150359
2017-12-01 23:08:1635.3413-119.109150359
2017-12-01 23:07:1635.3413-119.109150359
2017-12-01 23:06:1535.3413-119.109150359
2017-12-01 23:05:1535.3413-119.109150359
2017-12-01 23:04:1535.3413-119.109150359
2017-12-01 23:03:1535.3413-119.109150359
2017-12-01 23:02:1535.3413-119.109150359
2017-12-01 23:01:1535.3413-119.109150359
2017-12-01 23:00:1635.3413-119.109150359
2017-12-01 22:59:1535.3413-119.1091760360
2017-12-01 22:58:1535.3413-119.1091760360
2017-12-01 22:57:1535.3413-119.1091760360
2017-12-01 22:56:1535.3413-119.1091760360
2017-12-01 22:55:1535.3413-119.1091760360
2017-12-01 22:54:1535.3413-119.1091760360
2017-12-01 22:53:1535.3413-119.1091760360
2017-12-01 22:52:1535.3413-119.1091760360
2017-12-01 22:51:1535.3413-119.1091760360
2017-12-01 22:50:1535.3413-119.1091760360
2017-12-01 22:49:1635.3413-119.1091760360
2017-12-01 22:48:1535.3413-119.1091760360
2017-12-01 22:47:1535.3413-119.1091760360
2017-12-01 22:46:1535.3413-119.1091760360
2017-12-01 22:45:1535.3413-119.1091760360
2017-12-01 22:44:1535.3413-119.1091760360
2017-12-01 22:43:1535.3413-119.1091760360
2017-12-01 22:42:1635.3413-119.1091760360
2017-12-01 22:41:1535.3413-119.1091760360
2017-12-01 22:40:1635.3413-119.1091760360
2017-12-01 22:39:1635.3413-119.1091760360
2017-12-01 22:38:1635.3413-119.1091760360
2017-12-01 22:37:1535.3413-119.1091760360
2017-12-01 22:36:1535.3413-119.1091760360
2017-12-01 22:35:1535.3413-119.1091760360
2017-12-01 22:34:1535.3413-119.1091760360
2017-12-01 22:33:1535.3413-119.1091760360
2017-12-01 22:32:1635.3413-119.1091760360
2017-12-01 22:31:1635.3413-119.1091760360
2017-12-01 22:30:1535.3413-119.1091760360
2017-12-01 22:29:1535.3413-119.10900360
2017-12-01 22:28:1535.3413-119.10900360
2017-12-01 22:27:1535.3413-119.10900360
2017-12-01 22:26:1635.3413-119.10900360
2017-12-01 22:25:1635.3413-119.10900360
2017-12-01 22:24:1535.3413-119.10900360
2017-12-01 22:23:1635.3417-119.10900360
2017-12-01 22:22:1535.3417-119.10900360
2017-12-01 22:21:1635.3417-119.10900360
2017-12-01 22:20:1535.3417-119.10900360
2017-12-01 22:19:1635.3417-119.10900360
2017-12-01 22:18:1535.3417-119.10900360
2017-12-01 22:17:1535.3417-119.10900360
2017-12-01 22:16:1635.3417-119.10900360
2017-12-01 22:15:1635.3417-119.10900360
2017-12-01 22:13:1535.3417-119.10900361
2017-12-01 22:12:1635.3417-119.10900361
2017-12-01 22:11:1635.3417-119.10900361
2017-12-01 22:10:1535.3417-119.10900323
2017-12-01 22:09:1635.3417-119.10900323
2017-12-01 22:08:1635.3417-119.10900323
2017-12-01 22:07:1635.3417-119.10900323
2017-12-01 22:06:1635.3417-119.10900323
2017-12-01 22:05:1635.3417-119.10900323
2017-12-01 22:03:3035.3417-119.10900361
2017-12-01 22:02:3035.3417-119.10900361
2017-12-01 22:01:3035.3417-119.10900361
2017-12-01 22:00:3035.3417-119.10900361
2017-12-01 21:59:3035.3417-119.10900361
2017-12-01 21:58:3035.3417-119.10900361
2017-12-01 21:57:3035.3417-119.10900361
2017-12-01 21:56:3035.3417-119.10900361
2017-12-01 21:55:3135.3417-119.10900361
2017-12-01 21:54:3135.3417-119.10900361
2017-12-01 21:53:3035.3417-119.10900361
2017-12-01 21:52:3035.3417-119.10900361
2017-12-01 21:51:3035.3417-119.10900361
2017-12-01 21:50:3035.3417-119.10900361
2017-12-01 21:49:3135.3417-119.10900361
2017-12-01 21:48:3035.3417-119.10900361
2017-12-01 21:47:3135.3417-119.10900361
2017-12-01 21:46:3035.3417-119.10900361
2017-12-01 21:45:3135.3417-119.10900361
2017-12-01 21:44:3135.3417-119.10900361
2017-12-01 21:43:3035.3417-119.10900361
2017-12-01 21:42:3035.3417-119.10900361
2017-12-01 21:41:3135.3417-119.10900361
2017-12-01 21:40:3135.3417-119.10900361
2017-12-01 21:39:3135.3417-119.10900361
2017-12-01 21:38:3135.3417-119.10900361
2017-12-01 21:37:3135.3417-119.10900361
2017-12-01 21:36:3035.3417-119.10900361
2017-12-01 21:35:3135.3417-119.10900361
2017-12-01 21:34:3135.3417-119.10900361
2017-12-01 21:33:3135.3417-119.10900361
2017-12-01 21:32:3135.3417-119.10900361
2017-12-01 21:31:3135.3417-119.10900361
2017-12-01 21:30:3035.3417-119.10900361
2017-12-01 21:29:3135.3417-119.10900361
2017-12-01 21:28:3135.3417-119.10900361
2017-12-01 21:27:3135.3417-119.10900361
2017-12-01 21:26:3135.3417-119.10900361
2017-12-01 21:25:3135.3417-119.10900361
2017-12-01 21:24:3135.3417-119.10900361
2017-12-01 21:23:3035.3417-119.10900361
2017-12-01 21:22:3135.3417-119.10900361
2017-12-01 21:20:3135.3417-119.10900361
2017-12-01 21:10:3135.3417-119.10900361
2017-12-01 21:08:5235.3417-119.109029363
2017-12-01 07:47:3835.4047-119.10700376
2017-12-01 07:47:1935.405-119.10700377
2017-12-01 07:46:5835.4047-119.10700376
2017-12-01 07:36:5835.405-119.10700379
2017-12-01 07:35:2235.405-119.10700377
2017-12-01 07:35:0135.4047-119.10700378
2017-12-01 07:32:3235.4047-119.10700378
2017-12-01 07:30:5335.405-119.10700377
2017-12-01 07:30:2635.405-119.10700378
2017-11-30 07:32:4635.405-119.10700377
2017-11-30 07:28:0635.405-119.10700378
2017-11-30 07:18:0635.405-119.107500386
2017-11-30 07:08:0635.405-119.107500386
2017-11-30 06:58:0635.405-119.107500386
2017-11-30 06:48:0735.405-119.107500386
2017-11-30 06:38:0735.405-119.107500386

© 2017 Adam Reeder http://www.adammreeder.com